[[{"header":{"parameterUnit":"m.s-1","parameterCategory":1,"la1":30.6,"la2":28.766,"lo1":-90.7593,"lo2":-88.6598,"dy":0.0162,"dx":0.0183,"nx":116,"ny":114,"refTime":"2024-06-20T12:00:00:Z","depth":0,"parameterNumber":2,"parameterNumberName":"U-component_of_WINDS"},"data":[0.0,0.0,0.0,0.0,0.0,0.0,0.0,0.0,0.0,0.0,0.0,0.0,0.0,0.0,0.0,0.0,0.0,0.0,0.0,0.0,0.0,0.0,0.0,0.0,0.0,0.0,0.0,0.0,0.0,0.0,0.0,0.0,0.0,0.0,0.0,0.0,0.0,0.0,0.0,0.0,0.0,0.0,0.0,0.0,0.0,0.0,0.0,0.0,0.0,0.0,0.0,0.0,0.0,0.0,0.0,0.0,0.0,0.0,0.0,0.0,0.0,0.0,0.0,0.0,0.0,0.0,0.0,0.0,0.0,0.0,0.0,0.0,0.0,0.0,0.0,0.0,0.0,0.0,0.0,0.0,0.0,0.0,0.0,0.0,0.0,0.0,0.0,0.0,0.0,0.0,0.0,0.0,0.0,0.0,0.0,0.0,0.0,0.0,0.0,0.0,0.0,0.0,0.0,0.0,0.0,0.0,0.0,0.0,0.0,0.0,0.0,0.0,0.0,0.0,0.0,0.0,0.0,0.0,0.0,0.0,0.0,0.0,0.0,0.0,0.0,0.0,0.0,0.0,0.0,0.0,0.0,0.0,0.0,0.0,0.0,0.0,0.0,0.0,0.0,0.0,0.0,0.0,0.0,0.0,0.0,0.0,0.0,0.0,0.0,0.0,0.0,0.0,0.0,0.0,0.0,0.0,0.0,0.0,0.0,0.0,0.0,0.0,0.0,0.0,0.0,0.0,0.0,0.0,0.0,0.0,0.0,0.0,0.0,0.0,0.0,0.0,0.0,0.0,0.0,0.0,0.0,0.0,0.0,0.0,0.0,0.0,0.0,0.0,0.0,0.0,0.0,0.0,0.0,0.0,0.0,0.0,0.0,0.0,0.0,0.0,0.0,0.0,0.0,0.0,0.0,0.0,0.0,0.0,0.0,0.0,0.0,0.0,0.0,0.0,0.0,0.0,0.0,0.0,0.0,0.0,0.0,0.0,0.0,0.0,0.0,0.0,0.0,0.0,0.0,0.0,0.0,0.0,0.0,0.0,0.0,0.0,0.0,0.0,0.0,0.0,0.0,0.0,0.0,0.0,0.0,0.0,0.0,0.0,0.0,0.0,0.0,0.0,0.0,0.0,0.0,0.0,0.0,0.0,0.0,0.0,0.0,0.0,0.0,0.0,0.0,0.0,0.0,0.0,0.0,0.0,0.0,0.0,0.0,0.0,0.0,0.0,0.0,0.0,0.0,0.0,0.0,0.0,0.0,0.0,0.0,0.0,0.0,0.0,0.0,0.0,0.0,0.0,0.0,0.0,0.0,0.0,0.0,0.0,0.0,0.0,0.0,0.0,0.0,0.0,0.0,0.0,0.0,0.0,0.0,0.0,0.0,0.0,0.0,0.0,0.0,0.0,0.0,0.0,0.0,0.0,0.0,0.0,0.0,0.0,0.0,0.0,0.0,0.0,0.0,0.0,0.0,0.0,0.0,0.0,0.0,0.0,0.0,0.0,0.0,0.0,0.0,0.0,0.0,0.0,0.0,0.0,0.0,0.0,0.0,0.0,0.0,0.0,0.0,0.0,0.0,0.0,0.0,0.0,0.0,0.0,0.0,0.0,0.0,0.0,0.0,0.0,0.0,0.0,0.0,0.0,0.0,0.0,0.0,0.0,0.0,0.0,0.0,0.0,0.0,0.0,0.0,0.0,0.0,0.0,0.0,0.0,0.0,0.0,0.0,0.0,0.0,0.0,0.0,0.0,0.0,0.0,0.0,0.0,0.0,0.0,0.0,0.0,0.0,0.0,0.0,0.0,0.0,0.0,0.0,0.0,0.0,0.0,0.0,0.0,0.0,0.0,0.0,0.0,0.0,0.0,0.0,0.0,0.0,0.0,0.0,0.0,0.0,0.0,0.0,0.0,0.0,0.0,0.0,0.0,0.0,0.0,0.0,0.0,0.0,0.0,0.0,0.0,0.0,0.0,0.0,0.0,0.0,0.0,0.0,0.0,0.0,0.0,0.0,0.0,0.0,0.0,0.0,0.0,0.0,0.0,0.0,0.0,0.0,0.0,0.0,0.0,0.0,0.0,0.0,0.0,0.0,0.0,0.0,0.0,0.0,0.0,0.0,0.0,0.0,0.0,0.0,0.0,0.0,0.0,0.0,0.0,0.0,0.0,0.0,0.0,0.0,0.0,0.0,0.0,0.0,0.0,0.0,0.0,0.0,0.0,0.0,0.0,0.0,0.0,0.0,0.0,0.0,0.0,0.0,0.0,0.0,0.0,0.0,0.0,0.0,0.0,0.0,0.0,0.0,0.0,0.0,0.0,0.0,0.0,0.0,0.0,0.0,0.0,0.0,0.0,0.0,0.0,0.0,0.0,0.0,0.0,0.0,0.0,0.0,0.0,0.0,0.0,0.0,0.0,0.0,0.0,0.0,0.0,0.0,0.0,0.0,0.0,0.0,0.0,0.0,0.0,0.0,0.0,0.0,0.0,0.0,0.0,0.0,0.0,0.0,0.0,0.0,0.0,0.0,0.0,0.0,0.0,0.0,0.0,0.0,0.0,0.0,0.0,0.0,0.0,0.0,0.0,0.0,0.0,0.0,0.0,0.0,0.0,0.0,0.0,0.0,0.0,0.0,0.0,0.0,0.0,0.0,0.0,0.0,0.0,0.0,0.0,0.0,0.0,0.0,0.0,0.0,0.0,0.0,0.0,0.0,0.0,0.0,0.0,0.0,0.0,0.0,0.0,0.0,0.0,0.0,0.0,0.0,0.0,0.0,0.0,0.0,0.0,0.0,0.0,0.0,0.0,0.0,0.0,0.0,0.0,0.0,0.0,0.0,0.0,0.0,0.0,0.0,0.0,0.0,0.0,0.0,0.0,0.0,0.0,0.0,0.0,0.0,0.0,0.0,0.0,0.0,0.0,0.0,0.0,0.0,0.0,0.0,0.0,0.0,0.0,0.0,0.0,0.0,0.0,0.0,0.0,0.0,0.0,0.0,0.0,0.0,0.0,0.0,0.0,0.0,0.0,0.0,0.0,0.0,0.0,0.0,0.0,0.0,0.0,0.0,0.0,0.0,0.0,0.0,0.0,0.0,0.0,0.0,0.0,0.0,0.0,0.0,0.0,0.0,0.0,0.0,0.0,0.0,0.0,0.0,0.0,0.0,0.0,0.0,0.0,0.0,0.0,0.0,0.0,0.0,0.0,0.0,0.0,0.0,0.0,0.0,0.0,0.0,0.0,0.0,0.0,0.0,0.0,0.0,0.0,0.0,0.0,0.0,0.0,0.0,0.0,0.0,0.0,0.0,0.0,0.0,0.0,0.0,0.0,0.0,0.0,0.0,0.0,0.0,0.0,0.0,0.0,0.0,0.0,0.0,0.0,0.0,0.0,0.0,0.0,0.0,0.0,0.0,0.0,0.0,0.0,0.0,0.0,0.0,0.0,0.0,0.0,0.0,0.0,0.0,0.0,0.0,0.0,0.0,0.0,0.0,0.0,0.0,0.0,0.0,0.0,0.0,0.0,0.0,0.0,0.0,0.0,0.0,0.0,0.0,0.0,0.0,0.0,0.0,0.0,0.0,0.0,0.0,0.0,0.0,0.0,0.0,0.0,0.0,0.0,0.0,0.0,0.0,0.0,0.0,0.0,0.0,0.0,0.0,0.0,0.0,0.0,0.0,0.0,0.0,0.0,0.0,0.0,0.0,0.0,0.0,0.0,0.0,0.0,0.0,0.0,0.0,0.0,0.0,0.0,0.0,0.0,0.0,0.0,0.0,0.0,0.0,0.0,0.0,0.0,0.0,0.0,0.0,0.0,0.0,0.0,0.0,0.0,0.0,0.0,0.0,0.0,0.0,0.0,0.0,0.0,0.0,0.0,0.0,0.0,0.0,0.0,0.0,0.0,0.0,0.0,0.0,0.0,0.0,0.0,0.0,0.0,0.0,0.0,0.0,0.0,0.0,0.0,0.0,0.0,0.0,0.0,0.0,0.0,0.0,0.0,0.0,0.0,0.0,0.0,0.0,0.0,0.0,0.0,0.0,0.0,0.0,0.0,0.0,0.0,0.0,0.0,0.0,0.0,0.0,0.0,0.0,0.0,0.0,0.0,0.0,0.0,0.0,0.0,0.0,0.0,0.0,0.0,0.0,0.0,0.0,0.0,0.0,0.0,0.0,0.0,0.0,0.0,0.0,0.0,0.0,0.0,0.0,0.0,0.0,0.0,0.0,0.0,0.0,0.0,0.0,0.0,0.0,0.0,0.0,0.0,0.0,0.0,0.0,0.0,0.0,0.0,0.0,0.0,0.0,0.0,0.0,0.0,0.0,0.0,0.0,0.0,0.0,0.0,0.0,0.0,0.0,0.0,0.0,0.0,0.0,0.0,0.0,0.0,0.0,0.0,0.0,0.0,0.0,0.0,0.0,0.0,0.0,0.0,0.0,0.0,0.0,0.0,0.0,0.0,0.0,0.0,0.0,0.0,0.0,0.0,0.0,0.0,0.0,0.0,0.0,0.0,0.0,0.0,0.0,0.0,0.0,0.0,0.0,0.0,0.0,0.0,0.0,0.0,0.0,0.0,0.0,0.0,0.0,0.0,0.0,0.0,0.0,0.0,0.0,0.0,0.0,0.0,0.0,0.0,0.0,0.0,0.0,0.0,0.0,0.0,0.0,0.0,0.0,0.0,0.0,0.0,0.0,0.0,0.0,0.0,0.0,0.0,0.0,0.0,0.0,0.0,0.0,0.0,0.0,0.0,0.0,0.0,0.0,0.0,0.0,0.0,0.0,0.0,0.0,0.0,0.0,0.0,0.0,0.0,0.0,0.0,0.0,0.0,0.0,0.0,0.0,0.0,0.0,0.0,0.0,0.0,0.0,0.0,0.0,0.0,0.0,0.0,0.0,0.0,0.0,0.0,0.0,0.0,0.0,0.0,0.0,0.0,0.0,0.0,0.0,0.0,0.0,0.0,0.0,0.0,0.0,0.0,0.0,0.0,0.0,0.0,0.0,0.0,0.0,0.0,0.0,0.0,0.0,0.0,0.0,0.0,0.0,0.0,0.0,0.0,0.0,0.0,0.0,0.0,0.0,0.0,0.0,0.0,0.0,0.0,0.0,0.0,0.0,0.0,0.0,0.0,0.0,0.0,0.0,0.0,0.0,0.0,0.0,0.0,0.0,0.0,0.0,0.0,0.0,0.0,0.0,0.0,0.0,0.0,0.0,0.0,0.0,0.0,0.0,0.0,0.0,0.0,0.0,0.0,0.0,0.0,0.0,0.0,0.0,0.0,0.0,0.0,0.0,0.0,0.0,0.0,0.0,0.0,0.0,0.0,0.0,0.0,0.0,0.0,0.0,0.0,0.0,0.0,0.0,0.0,0.0,0.0,0.0,0.0,0.0,0.0,0.0,0.0,0.0,0.0,0.0,0.0,0.0,0.0,0.0,0.0,0.0,0.0,0.0,0.0,0.0,0.0,0.0,0.0,0.0,0.0,0.0,0.0,0.0,0.0,0.0,0.0,0.0,0.0,0.0,0.0,0.0,0.0,0.0,0.0,0.0,0.0,0.0,0.0,0.0,0.0,0.0,0.0,0.0,0.0,0.0,0.0,0.0,0.0,0.0,0.0,0.0,0.0,0.0,0.0,0.0,0.0,0.0,0.0,0.0,0.0,0.0,0.0,0.0,0.0,0.0,0.0,0.0,0.0,0.0,0.0,0.0,0.0,0.0,0.0,0.0,0.0,0.0,0.0,0.0,0.0,0.0,0.0,0.0,0.0,0.0,0.0,0.0,0.0,0.0,0.0,0.0,0.0,0.0,0.0,0.0,0.0,0.0,0.0,0.0,0.0,0.0,0.0,0.0,0.0,0.0,0.0,0.0,0.0,0.0,0.0,0.0,0.0,0.0,0.0,0.0,0.0,0.0,0.0,0.0,0.0,0.0,0.0,0.0,0.0,0.0,0.0,0.0,0.0,0.0,0.0,0.0,0.0,0.0,0.0,0.0,0.0,0.0,0.0,0.0,0.0,0.0,0.0,0.0,0.0,0.0,0.0,0.0,0.0,0.0,0.0,0.0,0.0,0.0,0.0,0.0,0.0,0.0,0.0,0.0,0.0,0.0,0.0,2.3799,2.1184,0.0,0.0,0.0,0.0,0.0,0.0,0.0,0.0,0.0,0.0,0.0,0.0,0.0,0.0,0.0,0.0,0.0,0.0,0.0,0.0,0.0,0.0,0.0,1.1632,1.207,1.25,1.2539,1.2637,1.2883,1.2915,1.2785,1.2559,1.2539,1.2332,1.1906,1.1886,1.2003,1.221,1.2211,1.2535,1.3167,1.3478,1.3435,1.3087,0.0,0.0,0.0,0.0,0.0,0.0,0.0,0.0,0.0,0.0,0.0,0.0,0.0,0.0,0.0,0.0,0.0,0.0,0.0,0.0,0.0,0.0,0.0,0.0,0.0,0.0,0.0,0.0,0.0,0.0,0.0,0.0,0.0,0.0,0.0,0.0,0.0,0.0,0.0,0.0,0.0,0.0,0.0,0.0,0.0,0.0,0.0,0.0,0.0,0.0,0.0,0.0,0.0,0.0,0.0,0.0,0.0,0.0,0.0,0.0,0.0,0.0,0.0,0.0,0.0,0.0,0.0,0.0,0.0,0.0,2.528,2.3382,0.0,0.0,0.0,0.0,0.0,0.0,0.0,0.0,0.0,0.0,0.0,0.0,0.0,0.0,0.0,0.0,0.0,0.0,0.0,0.0,0.0,1.1202,1.1643,1.2059,1.2508,1.2961,1.2954,1.2935,1.3001,1.2954,1.2915,1.2915,1.2915,1.2727,1.232,1.2398,1.2602,1.2947,1.2499,1.3002,1.4431,1.5197,1.4799,1.3387,1.2962,0.0,0.0,0.0,0.0,0.0,0.0,0.0,0.0,0.0,0.0,0.0,0.0,0.0,0.0,0.0,0.0,0.0,0.0,0.0,0.0,0.0,0.0,0.0,0.0,0.0,0.0,0.0,0.0,0.0,0.0,0.0,0.0,0.0,0.0,0.0,0.0,0.0,0.0,0.0,0.0,0.0,0.0,0.0,0.0,0.0,0.0,0.0,0.0,0.0,0.0,0.0,0.0,0.0,0.0,0.0,0.0,0.0,0.0,0.0,0.0,0.0,0.0,0.0,2.6448,2.6594,2.667,2.8774,2.8784,2.7158,2.6547,2.5702,2.4649,2.2855,0.0,0.0,0.0,0.0,0.0,0.0,0.0,0.0,0.0,0.0,0.0,0.0,0.0,0.0,0.0,0.0,0.0,0.0,0.0,1.1652,1.2078,1.2539,1.2981,1.3398,1.3098,1.304,1.3398,1.3086,1.2915,1.2915,1.2915,1.2864,1.2805,1.3145,1.3279,1.3168,1.3539,1.4384,1.5658,1.5506,1.5302,1.5079,1.5003,1.4745,1.4317,0.0,0.0,0.0,0.0,0.0,0.0,0.0,0.0,0.0,0.0,0.0,0.0,0.0,0.0,0.0,0.0,0.0,0.0,0.0,0.0,0.0,0.0,0.0,0.0,0.0,0.0,0.0,0.0,0.0,0.0,0.0,0.0,0.0,0.0,0.0,0.0,0.0,0.0,0.0,0.0,0.0,1.7626,1.7695,0.0,0.0,0.0,0.0,0.0,0.0,0.0,0.0,0.0,0.0,0.0,0.0,0.0,2.658,2.7358,2.8782,2.956,2.9732,3.1435,3.2299,3.2493,3.2825,3.3024,3.3087,3.2996,0.0,2.5642,2.6822,0.0,0.0,0.0,0.0,0.0,0.0,0.0,0.0,0.0,0.0,0.0,0.0,0.0,0.0,0.0,0.0,0.0,0.0,0.0,0.0,0.0,1.2518,1.2641,1.307,1.2572,1.2473,1.3067,1.2804,1.2802,1.3224,1.302,1.3013,1.3223,1.3887,1.4315,1.4478,1.4774,1.5041,1.5345,1.5333,1.5471,1.5745,1.5858,1.5542,1.4872,1.4205,0.0,0.0,0.0,0.0,0.0,0.0,0.0,0.0,0.0,0.0,0.0,0.0,0.0,0.0,0.0,0.0,0.0,0.0,0.0,0.0,0.0,0.0,0.0,0.0,0.0,0.0,0.0,0.0,0.0,0.0,0.0,0.0,0.0,0.0,0.0,0.0,0.0,0.0,0.0,1.7297,1.8918,1.8758,1.9716,2.0151,0.0,0.0,0.0,0.0,0.0,0.0,0.0,0.0,0.0,2.8525,2.8222,2.8624,2.9985,3.0753,3.1265,3.1485,3.2324,3.2935,3.3276,3.3276,3.3432,3.3677,3.3677,3.2287,2.9966,2.9743,2.8326,2.6293,0.0,0.0,0.0,0.0,2.7208,2.6856,0.0,0.0,0.0,0.0,0.0,0.0,0.0,0.0,0.0,0.0,0.0,0.0,1.2567,1.2133,1.1995,1.2441,1.1988,1.2088,1.3043,1.266,1.2772,1.362,1.3262,1.3242,1.3627,1.4412,1.4967,1.5262,1.534,1.5272,1.5063,1.5313,1.569,1.6151,1.6275,1.6101,1.5655,1.518,1.4658,1.4091,0.0,0.0,0.0,0.0,0.0,0.0,0.0,0.0,0.0,0.0,0.0,0.0,0.0,0.0,0.0,0.0,0.0,0.0,0.0,0.0,0.0,0.0,0.0,0.0,0.0,0.0,0.0,0.0,0.0,0.0,0.0,0.0,0.0,0.0,0.0,0.0,0.0,1.8805,2.0406,2.0322,2.1353,2.1892,0.0,0.0,0.0,0.0,0.0,0.0,2.7445,2.7763,2.8698,3.0396,3.0108,3.0604,3.1941,3.2081,3.2306,3.2592,3.2592,3.2872,3.3398,3.3398,3.3598,3.3911,3.3911,3.3952,3.3886,3.2088,3.0631,2.9519,2.9547,2.9582,2.9722,3.0769,3.0509,2.9959,0.0,0.0,0.0,0.0,0.0,0.0,0.0,0.0,0.0,0.0,0.0,1.1327,1.1789,1.1381,1.1209,1.1622,1.1621,1.2276,1.3848,1.2981,1.2905,1.402,1.3665,1.3659,1.4062,1.461,1.48,1.4661,1.4713,1.4983,1.5471,1.5697,1.6075,1.6579,1.6515,1.6885,1.7509,1.6653,1.6462,1.6549,1.4497,0.0,0.0,0.0,0.0,0.0,0.0,0.0,0.0,0.0,0.0,0.0,0.0,0.0,0.0,0.0,0.0,0.0,0.0,0.0,0.0,0.0,0.0,0.0,0.0,0.0,0.0,0.0,0.0,0.0,0.0,0.0,0.0,0.0,0.0,0.0,0.0,0.0,0.0,2.2958,2.4179,0.0,0.0,0.0,0.0,2.4746,2.6866,2.8025,2.7698,2.9775,3.1037,3.115,3.1856,3.2364,3.267,3.2645,3.2882,3.3352,3.3352,3.376,3.4512,3.4512,3.4903,3.5568,3.5568,3.5725,3.5809,3.3919,3.313,3.3045,3.3245,3.3315,3.316,3.1789,3.1527,3.178,0.0,0.0,0.0,1.0645,1.0791,1.1083,1.1658,1.1883,1.2148,1.2598,1.1967,1.1706,1.232,1.1213,1.0667,1.1283,1.091,1.1123,1.2261,1.2332,1.3125,1.4917,1.5114,1.5559,1.6387,1.5259,1.4972,1.5625,1.5192,1.5245,1.5753,1.6012,1.6406,1.6932,1.7064,1.727,1.7493,1.7044,1.6746,1.6539,1.5942,1.499,0.0,0.0,0.0,0.0,0.0,0.0,0.0,0.0,0.0,0.0,0.0,0.0,0.0,0.0,0.0,0.0,0.0,0.0,0.0,0.0,0.0,0.0,0.0,0.0,0.0,0.0,0.0,0.0,0.0,0.0,0.0,0.0,0.0,0.0,0.0,0.0,0.0,2.4371,2.5178,0.0,2.4995,2.5851,2.6584,2.6911,2.8368,2.9336,2.9564,3.0795,3.1532,3.1532,3.226,3.2774,3.3024,3.3182,3.343,3.3792,3.3792,3.4,3.4424,3.4581,3.4882,3.5261,3.5417,3.5576,3.5587,3.4938,3.4685,3.4806,3.4985,3.4874,3.4486,3.3948,3.3854,3.3944,1.0293,1.0293,0.0,1.083,1.1035,1.1387,1.2086,1.232,1.2445,1.2487,1.1811,1.1377,1.1563,1.0383,0.9837,1.0468,1.0233,1.0739,1.2393,1.27,1.3848,1.6239,1.6169,1.617,1.636,1.5187,1.4888,1.5554,1.5155,1.5227,1.5771,1.6036,1.6438,1.6989,1.7338,1.7524,1.7566,1.7623,1.7325,1.6811,1.6847,1.6339,1.5483,0.0,0.0,0.0,0.0,0.0,0.0,0.0,0.0,0.0,0.0,0.0,0.0,0.0,0.0,0.0,0.0,0.0,0.0,0.0,0.0,0.0,0.0,0.0,0.0,0.0,0.0,0.0,0.0,0.0,0.0,0.0,0.0,0.0,0.0,2.2818,2.4114,2.5304,2.5963,2.6261,2.6113,2.7092,2.7997,2.8645,2.9466,3.017,3.0675,3.1252,3.16,3.1693,3.2277,3.2676,3.2957,3.3144,3.3353,3.3607,3.3699,3.3935,3.4336,3.4613,3.4919,3.5207,3.5392,3.5461,3.5484,3.5575,3.5606,3.5574,3.5695,3.5531,3.521,3.521,3.521,3.521,1.0293,1.0312,1.044,1.0849,1.131,1.176,1.2141,1.2593,1.2625,1.1857,1.1069,1.0304,0.9563,0.8947,0.8766,0.9154,0.9611,1.1238,1.4423,1.4119,1.5078,1.7891,1.6763,1.5353,1.3788,1.4348,1.4545,1.4299,1.4565,1.4972,1.5518,1.5809,1.6212,1.6727,1.7277,1.7665,1.7938,1.8459,1.8282,1.7605,1.7217,1.7396,1.7721,0.0,0.0,0.0,0.0,0.0,0.0,0.0,0.0,0.0,0.0,0.0,0.0,0.0,0.0,0.0,0.0,0.0,0.0,0.0,0.0,0.0,0.0,0.0,0.0,0.0,0.0,0.0,0.0,0.0,0.0,0.0,0.0,0.0,2.2593,2.3781,2.4924,2.5834,2.6677,2.7311,2.7678,2.8241,2.8943,2.9728,3.0035,3.04,3.0868,3.1155,3.1419,3.1683,3.1968,3.2252,3.2512,3.2535,3.263,3.2841,3.3122,3.3691,3.4458,3.4718,3.5131,3.5622,3.5646,3.5646,3.567,3.5932,3.5871,3.5531,3.5452,3.5398,3.5398,3.5398,3.5398,3.5398,1.0293,1.0527,1.0889,1.133,1.1769,1.2014,1.1931,1.2471,1.2865,1.2741,1.1437,1.0736,1.1289,0.9617,0.8634,0.9097,0.9429,1.0588,1.2958,1.3676,1.5253,1.8019,1.779,1.6866,1.5322,1.4446,1.4072,1.4241,1.4692,1.522,1.58,1.6272,1.669,1.7094,1.7615,1.7904,1.8,1.8344,1.8454,1.8396,1.8381,1.8121,1.7709,0.0,0.0,0.0,0.0,0.0,0.0,0.0,0.0,0.0,0.0,0.0,0.0,0.0,0.0,0.0,0.0,0.0,0.0,0.0,0.0,0.0,0.0,0.0,0.0,0.0,0.0,0.0,0.0,0.0,0.0,0.0,2.2049,2.3029,2.3811,2.4399,2.5249,2.6624,2.6777,2.7137,2.8036,2.8455,2.89,2.9483,2.9699,3.0008,3.038,3.098,3.1404,3.1673,3.2157,3.2487,3.2733,3.33,3.3709,3.3983,3.4631,3.5066,3.5283,3.5736,3.6033,3.6203,3.6577,3.6751,3.6751,3.6825,3.6826,3.6677,3.6018,3.5599,3.5398,3.5398,3.5398,3.5353,1.0293,1.0625,1.1055,1.1517,1.1934,1.2117,1.1834,1.2569,1.3012,1.2657,1.1429,1.08,1.1359,0.9408,0.832,0.8955,0.9149,1.0247,1.2606,1.411,1.5303,1.6225,1.6373,1.5808,1.4453,1.3835,1.3748,1.4196,1.4627,1.5148,1.5737,1.6178,1.6577,1.7014,1.7595,1.7881,1.8041,1.8428,1.864,1.8706,1.8795,1.8744,1.8629,1.8351,1.8042,1.7747,1.7606,1.7333,1.7058,1.7201,0.0,0.0,0.0,0.0,0.0,0.0,0.0,0.0,0.0,0.0,0.0,0.0,0.0,0.0,0.0,0.0,0.0,0.0,0.0,0.0,0.0,0.0,0.0,0.0,2.2796,2.3589,2.4241,2.487,2.5708,2.695,2.6939,2.7164,2.8004,2.8312,2.8743,2.9329,2.9575,2.9995,3.0705,3.1139,3.1582,3.2057,3.2476,3.2812,3.3044,3.3673,3.4042,3.4197,3.4884,3.5227,3.5253,3.5797,3.6054,3.6079,3.6409,3.6536,3.6536,3.6639,3.6765,3.6844,0.0,0.0,0.0,0.0,3.5825,3.5753,1.0371,1.0723,1.1191,1.1584,1.2012,1.2163,1.1748,1.2632,1.2971,1.187,1.1052,1.0513,1.041,0.8731,0.7926,0.8718,0.8974,1.0264,1.3016,1.506,1.54,1.3667,1.3863,1.3523,1.241,1.2918,1.3478,1.4062,1.4385,1.4826,1.5374,1.5737,1.6152,1.663,1.7239,1.7661,1.799,1.8529,1.8694,1.8618,1.8651,1.9147,1.9858,1.9217,1.9165,1.9365,1.8893,1.8213,1.7584,1.7862,0.0,0.0,0.0,0.0,0.0,0.0,0.0,0.0,0.0,0.0,0.0,0.0,0.0,0.0,0.0,0.0,0.0,0.0,0.0,0.0,0.0,0.0,0.0,0.0,2.3099,2.3801,2.4224,2.5096,2.5988,2.6818,2.6983,2.7227,2.7718,2.8031,2.8513,2.9286,2.9584,3.0197,3.137,3.1466,0.0,0.0,0.0,3.3017,3.3258,3.367,3.3879,3.3901,3.4502,3.4788,3.4814,3.539,3.5699,3.5699,3.5751,3.5777,3.5803,3.6038,3.6246,3.6528,3.7016,3.7193,3.7144,3.6677,3.6481,3.6407,1.0771,1.1415,1.1969,1.2078,1.2461,1.2354,1.1178,1.1868,1.2067,1.0779,1.0096,0.9737,0.9779,0.8471,0.7736,0.8058,0.9473,1.1347,1.3672,1.5992,1.6157,1.3646,1.3938,1.3583,1.2358,1.2503,1.2772,1.3152,1.39,1.4331,1.4466,1.5458,1.5965,1.6072,1.663,1.7186,1.7687,1.7793,1.7969,1.815,1.8313,1.8783,1.9399,1.898,1.9134,1.9608,1.9862,1.9856,1.9748,2.0014,1.9532,1.8683,1.7916,1.7076,0.0,0.0,0.0,0.0,0.0,0.0,0.0,0.0,0.0,0.0,0.0,0.0,0.0,0.0,0.0,0.0,0.0,0.0,0.0,2.2307,2.2875,2.3456,2.4201,2.4644,2.5152,2.5754,2.6287,2.6878,2.7584,2.7863,2.8513,2.9628,2.9748,3.0126,3.0902,3.1188,3.1502,3.1864,3.2183,3.2372,3.2426,3.3356,3.3824,3.3824,3.4794,0.0,3.5295,3.5894,3.6168,3.6195,3.6624,3.6811,3.6811,3.6864,3.6918,3.6982,3.7131,3.7193,3.7193,3.7095,3.7046,3.6971,1.1513,1.1911,1.2192,1.2192,1.2598,1.2424,1.1015,1.1713,1.2042,1.1034,1.0426,1.0136,1.019,0.9164,0.8387,0.8206,0.9522,1.0914,1.2264,1.3271,1.3152,1.1719,1.2148,1.2162,1.1519,1.2083,1.2491,1.2663,1.3386,1.39,1.4223,1.4788,1.5271,1.5725,1.6125,1.6475,1.6755,1.7082,1.7285,1.7406,1.7475,1.7833,1.8369,1.8559,1.8874,1.9258,1.9631,1.9837,2.0002,2.0226,1.9887,1.9276,1.8927,1.8164,1.7344,0.0,0.0,0.0,0.0,0.0,0.0,0.0,0.0,0.0,0.0,0.0,0.0,0.0,0.0,1.9268,2.009,0.0,2.0898,2.1662,2.211,2.2625,2.3348,2.387,2.4587,2.5585,2.6005,2.6488,2.7222,2.7611,2.8168,2.907,2.9361,2.9822,3.065,3.0858,3.121,3.1722,3.203,3.2281,3.2448,3.3146,3.3559,3.372,3.4403,3.4813,3.498,3.5428,3.5703,3.5868,3.6141,3.625,3.6277,3.6576,3.6793,3.6911,3.7082,3.7152,3.7104,3.689,3.6794,3.672,1.2234,1.2352,1.2352,1.2352,1.2656,1.2424,1.1015,1.1636,1.194,1.1048,1.0608,1.0373,1.0314,0.9663,0.9224,0.9215,0.9705,1.0264,1.0791,1.0347,0.9907,0.9561,1.0159,1.053,1.0667,1.1601,1.2137,1.2246,1.2854,1.3369,1.3846,1.4008,1.4519,1.5271,1.5491,1.5666,1.5786,1.6266,1.6469,1.6457,1.6524,1.6767,1.7155,1.7804,1.828,1.862,1.8966,1.9196,1.9419,1.9608,1.9455,1.9167,1.9318,1.8729,1.807,1.8443,1.8382,0.0,0.0,0.0,0.0,0.0,0.0,0.0,0.0,1.8343,1.8171,1.9768,1.9648,1.9387,1.9865,2.0072,2.0311,2.0776,2.1156,2.1612,2.2287,2.2953,2.3857,2.519,2.5532,2.5964,2.6682,2.7096,2.7632,2.8321,2.8728,2.9345,3.0255,3.0389,3.0747,3.1392,3.1738,3.2084,3.2428,3.2742,3.3076,3.3332,3.3749,3.4058,3.4261,3.4646,3.4924,3.5146,3.5374,3.5491,3.5636,3.619,3.6525,3.6745,3.6963,3.7045,3.7002,3.6661,3.6532,3.6459,1.2649,1.2825,1.2825,1.2825,1.2864,1.2424,1.1015,1.1153,1.0823,0.9064,0.9091,0.9106,0.8634,0.879,0.9694,1.1532,1.0774,1.048,1.1179,1.0637,0.9788,0.8678,0.9324,0.9969,1.0506,1.077,1.1154,1.1682,1.2219,1.2545,1.2627,1.3396,1.3964,1.4347,1.4431,1.4739,1.5189,1.5271,1.5294,1.5331,1.5808,1.5978,1.6014,1.6353,1.7021,1.7877,1.8411,1.8604,1.865,1.885,1.8734,1.8455,1.8195,1.7866,1.7727,1.8526,1.8455,1.8439,1.9908,1.9597,1.9079,2.0183,1.9087,1.845,0.0,1.9653,1.8164,1.9462,1.8812,1.8079,1.8306,1.8852,1.9416,1.9959,2.0363,2.0849,2.1521,2.1966,2.2481,2.3222,2.4256,2.5169,2.5775,2.6155,2.6785,2.7821,2.822,2.8626,2.915,2.967,3.0012,3.0098,3.0665,3.1131,3.1441,3.1787,3.2104,3.2371,3.2998,3.3332,3.3339,3.3946,3.4227,3.4304,3.5254,3.59,3.6321,3.6614,3.6757,3.6786,3.6814,3.6843,3.6844,3.6967,3.7022,3.6942,1.2739,1.2915,1.2915,1.2915,1.2915,1.2559,1.1529,1.1505,1.1101,0.9732,0.9827,0.9717,0.8865,0.9228,1.025,1.206,1.1511,1.1076,1.1068,1.0393,0.9412,0.8085,0.8626,0.9077,0.9342,0.9895,1.0387,1.0778,1.1177,1.1522,1.1892,1.2404,1.2815,1.3105,1.3455,1.3725,1.3954,1.4105,1.4257,1.4437,1.4825,1.5052,1.5213,1.5581,1.6008,1.6551,1.8126,1.8773,0.0,1.8819,1.8727,1.8457,1.7465,1.7469,1.8007,1.8806,1.9856,2.0949,2.1736,2.1189,2.0189,1.9288,1.8511,1.7992,1.8148,1.7265,1.6552,1.7086,1.7015,1.6938,1.7241,1.7766,1.831,1.8724,1.923,1.9736,2.0159,2.0658,2.1205,2.1875,2.2532,2.3468,2.4816,2.5468,2.6043,2.6646,2.7215,2.7723,2.8122,2.8558,2.8886,2.9076,2.952,2.9991,3.048,3.0626,3.0927,3.1372,3.1854,3.2313,3.2731,3.3215,3.3736,3.4386,3.5013,3.541,3.5612,3.5874,3.5991,3.602,3.6193,3.6418,3.6582,3.6861,3.6749,3.647,0.0,1.2915,1.2915,1.2915,1.2915,1.2645,1.1901,1.1802,1.1442,1.0432,1.0529,1.0395,0.9602,0.9909,1.0707,1.2067,1.1728,1.1177,1.0529,0.9869,0.8863,0.7399,0.7825,0.8183,0.834,0.9067,0.9586,0.9873,1.0212,1.0629,1.1148,1.1434,1.1719,1.208,1.2398,1.2633,1.2769,1.3014,1.3253,1.3522,1.3835,1.4088,1.4338,1.4754,1.5175,1.5774,1.7712,1.8523,1.8696,1.8662,1.8772,1.8696,1.7371,1.7576,1.8511,1.9647,2.1271,2.2668,2.2411,2.1367,1.9868,1.7969,1.7285,1.67,1.5338,1.5047,1.5047,1.5047,1.5469,1.5973,1.6276,1.6792,1.7274,1.765,1.8093,1.8487,1.8832,1.933,1.9959,2.0674,2.1016,2.1788,2.3352,2.4378,2.5092,2.5384,2.607,2.6584,2.6827,2.725,2.7581,2.7822,2.8229,2.8737,2.9361,2.939,2.9783,3.0575,3.0918,3.1456,3.2197,3.2612,3.3359,3.4327,3.4625,3.4858,3.4993,3.538,3.5529,3.5588,3.5913,3.62,3.6406,3.6612,3.6476,3.6149,0.0,1.2915,1.2915,1.2915,1.2915,1.2645,1.1901,1.1802,1.1442,1.0432,1.0529,1.0667,1.0562,1.0563,1.0939,1.1828,1.1246,1.0429,0.9508,0.906,0.8124,0.6523,0.6887,0.7392,0.791,0.8333,0.8689,0.9029,0.956,0.9959,1.0238,1.0499,1.0967,1.1502,1.1274,1.145,1.1933,1.2008,1.22,1.2492,1.2953,1.317,1.3286,1.3543,1.4587,1.6026,1.7064,1.7455,1.755,1.8112,1.8708,1.9034,1.8143,1.8283,1.9195,2.1298,2.2333,2.2536,2.1298,1.9087,1.7044,1.656,1.5331,1.4202,1.414,1.414,1.4151,1.4151,1.4613,1.5129,1.5388,1.5889,1.6413,1.6943,1.704,1.7232,1.7768,1.814,1.8681,1.9559,1.9947,2.0437,2.1119,2.2675,2.3795,2.4131,2.4795,2.5165,2.5165,2.5809,2.6158,2.6158,2.6753,2.7388,2.805,2.805,2.8709,3.0046,3.0359,3.0917,3.1642,3.2311,3.3064,3.3851,3.4106,3.4473,3.4943,3.5592,3.589,3.5921,3.6258,3.638,3.6411,3.6411,3.6383,3.6309,0.0,0.0,1.2915,1.2915,1.2915,1.2822,1.2571,1.2535,1.2333,1.183,1.1371,0.0,0.0,0.0,0.0,0.0,1.219,1.1992,1.1002,0.9967,0.8816,0.7514,0.6719,0.649,0.69,0.7199,0.7604,0.8079,0.8256,0.856,0.9022,0.9274,0.9601,0.9979,1.0237,1.0584,1.0922,1.1128,1.1468,1.1887,1.2097,1.2302,1.2663,1.4545,1.5031,1.5067,0.0,1.8827,1.8723,1.8759,1.8891,1.8888,1.7894,1.8417,1.9669,2.1009,2.1341,2.0779,1.8525,1.6874,1.548,1.4151,1.3284,1.2756,1.2756,1.2765,1.2771,1.2771,1.4153,1.5374,1.5454,1.6174,1.6783,1.6961,1.6608,1.6321,1.6518,1.6881,1.7462,1.8199,1.8534,1.8995,1.9699,2.1473,2.2647,2.2762,2.3386,2.3759,2.3759,2.4409,2.4859,2.5094,2.5733,2.65,2.7387,2.7387,2.7954,2.9088,2.9948,3.0723,3.1433,3.2135,3.2753,3.3203,3.3547,3.3877,3.4267,3.4485,3.4704,3.4922,3.5015,3.5201,3.5387,3.517,3.5211,3.5407,0.0,0.0,0.0,1.2915,1.2915,0.0,0.0,0.0,0.0,0.0,0.0,0.0,0.0,0.0,0.0,0.0,0.0,1.255,1.1329,1.075,0.9917,0.8729,0.7818,0.7515,0.7929,0.7522,0.7553,0.8041,0.7531,0.7557,0.8131,0.8379,0.8659,0.8931,0.9377,0.9723,0.9994,1.0212,1.0551,1.1018,1.207,1.2439,1.2687,1.5402,1.6072,0.0,1.8136,1.9216,1.954,1.9216,1.8856,1.8445,1.7674,1.8123,1.9148,2.0198,1.9726,1.8448,1.6355,1.4865,1.3637,1.2477,1.1898,1.16,1.1656,1.1657,1.1711,1.1891,1.3547,1.5015,1.5216,1.5767,1.627,1.654,1.5707,1.5136,1.5391,1.57,1.617,1.6924,1.7172,1.755,1.827,1.9818,2.0948,2.1348,2.201,2.2443,2.2511,2.3155,2.368,2.3974,2.4787,2.5564,2.6328,2.6504,2.7143,2.8296,2.9538,3.0419,3.0961,3.1569,3.2115,3.2562,3.2785,3.3038,3.3355,3.3481,3.367,3.389,3.4141,3.436,3.4517,3.4454,3.4454,3.457,0.0,0.0,0.0,0.0,0.0,0.0,0.0,0.0,0.0,0.0,0.0,0.0,0.0,0.0,0.0,0.0,0.0,0.0,1.0621,1.1293,1.1205,1.0035,0.9883,1.0097,1.0655,0.909,0.8487,0.8885,0.7559,0.7198,0.7788,0.8056,0.8354,0.8694,0.8966,0.9238,0.9558,0.9695,0.9851,1.0263,1.2926,1.3595,1.3343,1.6075,1.7581,1.8199,1.7904,1.8688,1.9844,1.9362,1.8502,1.7604,1.7448,1.7438,1.7715,1.8784,1.7548,1.5668,1.4725,1.3049,1.1527,1.1544,1.1105,1.0706,1.0855,1.0868,1.0993,1.1441,1.286,1.4186,1.4613,1.4723,1.4968,1.5599,1.4433,1.3691,1.4426,1.4523,1.4897,1.5814,1.5919,1.6212,1.6861,1.7751,1.8743,1.9845,2.0609,2.1142,2.1388,2.2047,2.2526,2.2799,2.3858,2.4588,2.4927,2.5395,2.631,2.7669,2.9045,2.987,3.021,3.0635,3.1152,3.1777,3.1809,3.2019,3.2358,3.2657,3.2816,3.2912,3.3576,3.3827,3.3859,3.4173,3.411,3.3859,0.0,0.0,0.0,0.0,0.0,0.0,0.0,0.0,0.0,0.0,0.0,0.0,0.0,0.0,0.0,0.0,0.0,0.0,1.2196,1.1243,1.0749,1.0945,0.9804,0.9454,1.0097,0.9691,0.9621,0.9915,0.9748,0.9866,1.0206,1.0469,1.1254,1.2424,1.2699,1.3349,1.4277,1.4523,1.456,1.4518,1.5102,1.5144,1.5176,1.7685,1.8185,1.7785,1.9622,2.012,1.9677,1.8216,1.6802,1.5718,1.6109,1.6103,1.5823,1.5144,1.4513,1.3694,1.2028,1.1176,1.0763,1.0656,1.0516,1.0417,1.0463,1.0442,1.0486,1.0611,1.276,1.4342,1.3532,1.456,1.5255,1.4435,1.3433,1.2897,1.3352,1.3578,1.3985,1.4726,1.4941,1.53,1.6028,1.6653,1.7225,1.7806,1.9288,2.017,2.0245,2.0872,2.1376,2.1696,2.2765,2.3576,2.4185,2.5389,2.63,2.6958,2.7833,2.8394,2.8774,2.9397,2.9952,3.0358,3.0635,3.0976,3.1299,3.1635,3.1923,3.2211,3.2626,3.2804,3.2785,3.288,3.2867,3.2785,0.0,0.0,0.0,0.0,0.0,0.0,0.0,0.0,0.0,0.0,0.0,0.0,0.0,0.0,0.0,0.0,0.0,0.0,0.0,1.184,1.1634,1.2114,1.1275,1.1017,1.1521,1.0943,1.0687,1.075,1.0414,1.0301,1.0355,1.0639,1.1428,1.2666,1.2927,1.3791,1.4985,1.5191,1.5301,0.0,0.0,1.6695,1.6739,1.9147,1.952,1.8943,2.0408,1.9514,1.7511,1.6746,1.5237,1.3755,1.4182,1.3668,1.2956,1.3138,1.2466,1.1414,1.04,0.9921,0.9702,0.9658,0.9548,0.965,1.029,1.0438,1.0672,1.1439,1.3404,1.47,1.3722,1.4341,1.466,1.3771,1.2611,1.2006,1.2409,1.2603,1.2922,1.3493,1.3837,1.4242,1.4861,1.5564,1.6064,1.628,1.7867,1.8967,1.9251,1.9757,2.026,2.0779,2.1824,2.2821,2.3679,2.465,2.5408,2.5947,2.6651,2.7284,2.7783,2.8345,2.8872,2.9364,2.9593,2.9952,3.044,3.0635,3.0926,3.1281,3.1603,3.175,3.175,3.191,3.1878,3.175,0.0,0.0,0.0,0.0,0.0,0.0,0.0,0.0,0.0,1.4309,1.3722,1.3275,1.3377,1.2391,0.0,0.0,0.0,0.0,0.0,0.0,1.2864,1.3133,1.3146,1.326,1.3533,1.2403,1.1721,1.1549,1.0647,1.0136,0.9964,1.024,1.0898,1.1837,1.2209,1.3124,1.4442,1.4615,1.4907,1.5424,1.7639,1.8307,1.8226,0.0,2.0898,2.0625,2.0742,1.826,1.4985,1.5441,1.3846,1.1713,1.1899,1.0923,1.0018,1.1806,1.086,0.93,0.9391,0.9051,0.8676,0.8765,0.864,0.8842,1.0313,1.0626,1.1131,1.2881,1.4239,1.4907,1.4065,1.3897,1.3649,1.302,1.1814,1.1156,1.1663,1.171,1.1895,1.2332,1.2764,1.3189,1.3694,1.4596,1.5147,1.5252,1.649,1.7554,1.8317,1.8729,1.9278,1.9994,2.1081,2.2138,2.3167,2.3509,2.4054,2.48,2.5476,2.6182,2.6934,2.7318,2.7866,2.851,2.8576,2.8938,2.9511,2.9576,2.9822,3.023,3.0555,3.0685,3.0717,3.1023,3.0926,3.0685,0.0,0.0,0.0,0.0,0.0,0.0,0.0,0.0,0.0,0.0,1.5018,1.4202,1.3487,1.3444,0.0,0.0,0.0,0.0,0.0,0.0,0.0,1.2851,1.2864,1.2992,1.326,1.304,1.292,1.2868,1.2905,1.2908,1.287,1.3193,1.3965,1.5114,1.5939,1.7033,1.8313,1.9079,1.9453,1.9566,2.0018,2.0137,2.0138,2.0547,0.0,0.0,2.1407,1.9239,1.5978,1.5704,1.2874,0.9477,0.9685,0.9441,0.9092,0.9208,0.8982,0.8628,0.8552,0.8501,0.8497,0.8668,0.8762,0.9164,1.046,1.0758,1.1175,1.2583,1.3949,1.4169,1.1856,1.2699,1.3017,1.0784,1.0611,1.0889,1.1247,1.1314,1.146,1.188,1.2229,1.2719,1.3402,1.3871,1.4388,1.5,1.5282,1.5908,1.6957,1.7728,1.8554,1.9576,2.0445,2.1289,2.207,2.2413,2.2962,2.3679,2.4074,2.4665,2.5408,2.6066,2.6651,2.7085,2.7367,2.7683,2.8097,2.8378,2.8708,2.9102,2.9447,2.9578,2.9578,2.9626,2.9626,2.9578,0.0,0.0,0.0,0.0,0.0,0.0,0.0,1.4395,1.5121,1.6586,1.6582,1.6113,1.5179,1.4194,1.3397,0.0,0.0,0.0,0.0,0.0,0.0,1.2524,1.2537,1.2604,1.2732,1.3053,1.3053,1.2732,0.0,1.3233,1.2927,1.3093,1.3722,1.4795,1.5774,1.6918,1.8226,1.9162,1.9824,2.0253,2.0253,2.039,2.0605,2.0605,0.0,0.0,2.1583,1.9505,1.6323,1.6513,1.4116,1.0966,1.0547,0.9573,0.8783,0.9784,0.9098,0.8017,0.8037,0.7949,0.7852,0.8043,0.817,0.8813,1.0815,1.1315,1.1936,1.3946,1.4882,1.4798,1.3095,1.3552,1.372,1.2322,1.2184,1.2153,1.181,1.1658,1.1442,1.1106,1.1395,1.1893,1.2589,1.2959,1.3444,1.4074,1.4296,1.5008,1.6381,1.7157,1.8002,1.8912,1.9308,1.997,2.0908,2.1289,2.1829,2.2585,2.2928,2.3543,2.4428,2.4786,2.5274,2.5813,2.5996,2.6282,2.6635,2.6969,2.7302,2.7683,2.8048,2.8229,2.8229,2.8229,2.8229,2.8196,0.0,0.0,0.0,0.0,0.0,0.0,0.0,1.4238,1.4868,1.6778,1.7339,1.7304,1.6581,1.5024,1.384,0.0,0.0,0.0,0.0,0.0,0.0,0.0,1.2604,1.2604,1.2604,0.0,0.0,1.2417,1.2946,0.0,0.0,0.0,0.0,0.0,1.4762,1.5891,1.7134,1.8075,1.8968,0.0,0.0,2.0098,2.0605,0.0,0.0,0.0,0.0,1.9706,1.6905,1.7348,1.5582,1.3081,1.2479,1.1086,0.9879,1.1009,0.9928,0.8245,0.7788,0.7482,0.7327,0.7424,0.7589,0.8412,1.1082,1.18,1.2657,1.5249,1.5808,1.5504,1.4607,1.4521,1.4449,1.3995,1.3898,1.3502,1.2354,1.2139,1.1637,1.041,1.0542,1.1029,1.1727,1.2092,1.2496,1.3085,1.3523,1.4403,1.586,1.6673,1.7344,1.7907,1.8153,1.8749,1.9727,2.0144,2.07,2.1462,2.1794,2.2482,2.3441,2.3543,2.3918,2.4563,2.4563,2.4766,2.5158,2.5394,2.5764,2.6182,2.6499,2.6666,2.6733,2.6666,2.6633,2.655,0.0,0.0,0.0,0.0,0.0,0.0,0.0,1.3119,1.4048,1.5581,1.6009,1.6204,1.6242,1.6276,1.5262,0.0,0.0,0.0,0.0,0.0,0.0,0.0,0.0,0.0,0.0,0.0,0.0,1.2744,1.3039,0.0,0.0,0.0,0.0,0.0,0.0,1.5737,1.6735,1.767,0.0,0.0,0.0,0.0,0.0,0.0,0.0,0.0,0.0,2.047,1.8469,1.7751,1.587,1.3936,1.4642,1.4467,1.3605,1.1417,1.0774,1.0273,0.7891,0.728,0.7311,0.7322,0.75,0.8412,1.1082,1.18,1.2657,1.5249,1.5808,1.5416,1.41,1.4267,1.4259,1.3277,1.3887,1.3894,1.2161,1.2395,1.1987,1.0006,0.9918,1.0304,1.1009,1.133,1.1783,1.2502,1.3062,1.386,1.5052,1.586,1.632,1.6391,1.7414,1.8153,1.8538,1.8959,1.9517,2.0249,2.0665,2.1254,2.2001,2.231,2.2688,2.3099,2.3099,2.3304,2.3611,2.3645,2.4054,2.4699,2.4733,2.4936,2.5172,2.4868,2.4733,2.4699,0.0,0.0,0.0,0.0,0.0,0.0,1.2714,1.2766,1.3509,1.5784,1.6167,1.6081,1.5705,1.6618,1.6397,1.4238,0.0,0.0,0.0,0.0,0.0,0.0,0.0,0.0,0.0,0.0,1.2803,1.2803,1.3072,0.0,0.0,0.0,0.0,0.0,0.0,1.5872,1.6662,1.7596,0.0,0.0,0.0,0.0,0.0,0.0,0.0,0.0,0.0,0.0,1.7493,1.7583,1.6597,1.5437,1.5947,1.6242,1.5814,1.284,1.119,0.9859,0.776,0.7215,0.7225,0.7225,0.7355,0.8188,1.0957,1.167,1.2542,1.5236,1.5808,1.5623,1.5106,1.5195,1.508,1.4313,1.5135,1.4868,1.201,1.2397,1.2075,0.9645,0.9397,0.9664,1.0285,1.0428,1.088,1.1762,1.2557,1.3182,1.3654,1.4617,1.5363,1.5824,1.6275,1.6805,1.7369,1.7791,1.8247,1.8773,1.9401,1.9924,2.0445,2.0792,2.122,2.16,2.16,2.1656,2.1794,2.2001,2.2242,2.2551,2.2743,2.2901,2.3003,2.2867,2.2798,2.2764,0.0,0.0,0.0,0.0,0.0,1.1143,1.2125,1.1966,1.257,1.4877,1.5188,1.5053,1.4721,1.5774,1.6188,1.5389,1.5753,0.0,0.0,0.0,0.0,0.0,0.0,0.0,0.0,0.0,1.3327,1.3327,1.3406,1.3427,0.0,0.0,1.3772,1.4642,0.0,0.0,0.0,0.0,0.0,0.0,0.0,0.0,0.0,0.0,0.0,0.0,0.0,0.0,0.0,0.0,0.0,1.5949,1.615,1.6593,1.6484,1.3546,1.1716,1.017,0.782,0.721,0.721,0.721,0.7635,0.868,1.0985,1.1995,1.3106,1.5343,1.5808,1.5808,1.5808,1.5808,1.5588,1.491,1.5545,1.5175,1.2495,1.2908,1.2793,1.103,1.0267,1.0046,1.0544,1.0164,1.0241,1.1017,1.1697,1.2166,1.2423,1.3218,1.4074,1.507,1.5212,1.5638,1.6381,1.6654,1.7007,1.7414,1.8142,1.8633,1.8866,1.9367,1.975,2.0028,2.0028,2.0028,2.0028,2.0272,2.0445,2.0584,2.0802,2.0975,2.1044,2.0941,2.0837,2.0686,0.0,0.0,0.0,0.0,0.0,0.0,1.0204,1.0414,1.1031,1.2194,1.2342,1.2564,1.3166,1.352,1.4237,1.5501,1.7057,0.0,0.0,0.0,0.0,0.0,0.0,0.0,0.0,0.0,1.4588,1.4588,1.4248,1.3935,1.36,1.36,1.4304,1.5589,0.0,0.0,0.0,0.0,0.0,0.0,0.0,0.0,1.8877,0.0,0.0,0.0,0.0,0.0,0.0,0.0,0.0,0.0,0.0,1.5378,1.5383,1.3087,1.2576,1.1952,0.8205,0.721,0.721,0.721,0.8547,1.0168,1.1246,1.2956,1.4558,1.5584,1.5808,1.5808,1.5808,1.5808,1.5458,1.4471,1.46,1.4597,1.3867,1.406,1.4405,1.479,1.2972,1.1838,1.2241,1.0839,1.0001,1.0277,1.0337,1.0712,1.1556,1.1606,1.2323,1.386,1.4296,1.4866,1.5603,1.5603,1.5824,1.6214,1.6971,1.7323,1.7359,1.8096,1.8412,1.8412,1.8412,1.8412,1.8412,1.8447,1.8657,1.9017,1.9028,1.9227,1.946,1.9157,1.8773,1.8377,0.0,0.0,0.0,0.0,0.0,0.0,0.0,0.9766,1.0329,1.1293,1.1566,1.1913,1.2518,1.3081,1.3668,1.424,1.5982,0.0,0.0,0.0,0.0,0.0,0.0,0.0,0.0,1.4965,1.4712,1.4949,1.4566,1.4686,1.5303,1.5303,1.6067,1.7436,1.7154,1.7551,0.0,0.0,0.0,0.0,1.7136,1.6744,1.6642,0.0,0.0,0.0,0.0,0.0,0.0,0.0,0.0,0.0,0.0,0.0,0.0,1.3338,1.3442,1.3402,1.0852,1.0283,1.0375,1.0174,1.0579,1.1361,1.2699,1.3459,1.4253,1.553,1.5808,1.5808,1.5808,1.5808,1.5093,1.295,1.3483,1.3696,1.23,1.225,1.2714,1.3561,1.1608,0.9873,0.9112,0.9098,0.9177,0.9257,0.9911,1.042,1.0712,1.0801,1.1563,1.3111,1.3253,1.3575,1.4039,1.4039,1.4359,1.5044,1.5523,1.5877,1.6169,1.6664,1.6911,1.6911,1.6911,1.6911,1.6911,1.6911,1.6991,1.7097,1.7097,1.7168,1.7193,1.6805,1.6593,1.6442,0.0,0.0,0.0,0.0,0.0,0.0,0.0,0.9364,0.9793,1.0568,1.0805,1.1179,1.1873,1.2245,1.2778,1.3621,1.4722,0.0,0.0,0.0,0.0,0.0,0.0,0.0,1.6263,1.5419,1.52,1.5622,1.4769,1.4802,1.5691,1.6153,1.6891,1.7856,1.7914,1.8175,0.0,0.0,0.0,0.0,1.6162,1.5642,1.5435,0.0,0.0,0.0,0.0,0.0,0.0,0.0,0.0,0.0,0.0,0.0,0.0,0.0,1.4244,1.4346,1.2112,1.1617,1.1708,1.1526,1.1987,1.2705,1.3513,1.4211,1.4887,1.5647,1.5808,1.5808,1.5808,1.5415,1.4534,1.2864,1.2321,1.2447,1.3337,1.2393,1.1958,1.275,1.1545,0.9848,0.7699,0.7988,0.8314,0.8389,0.8983,0.9501,0.9871,0.9989,1.0635,1.1893,1.2036,1.2287,1.2646,1.2824,1.3146,1.3654,1.4145,1.4501,1.475,1.515,1.5328,1.5328,1.5328,1.5328,0.0,1.5328,1.5257,1.5115,1.5115,1.4999,1.4857,1.4608,1.443,1.4244,0.0,0.0,0.0,0.0,0.0,0.0,0.0,0.919,0.939,0.9965,1.0072,1.0405,1.1232,1.1116,1.1658,1.3391,1.3306,0.0,0.0,0.0,0.0,0.0,0.0,0.0,1.7784,1.6311,1.5816,1.6428,1.4898,1.4507,1.517,1.6374,1.7019,1.7184,1.7957,1.8341,0.0,0.0,0.0,0.0,1.5909,1.542,0.0,0.0,0.0,0.0,0.0,0.0,0.0,0.0,0.0,0.0,0.0,0.0,0.0,0.0,0.0,0.0,0.0,1.1757,1.1792,1.1792,1.3,1.413,1.3912,1.5084,0.0,1.5861,1.5808,1.5821,1.5888,1.4808,1.3943,1.4023,1.1325,1.1004,1.6108,1.4062,1.2029,1.2077,1.2215,1.1026,0.7732,0.7459,0.7536,0.7635,0.7739,0.8194,0.9082,0.9165,0.9554,1.0311,1.0635,1.1031,1.1534,1.1893,1.2108,1.2108,1.2824,1.3146,1.3182,1.3575,1.3761,1.3761,1.3761,1.3761,1.3761,1.3761,1.3503,1.3182,1.3146,1.2896,1.2567,1.2531,1.228,1.1965,0.0,0.0,0.0,0.0,0.0,0.0,0.0,0.0,0.0,0.0,0.9804,1.0179,1.0379,1.0584,1.1043,0.0,0.0,0.0,0.0,0.0,0.0,0.0,0.0,0.0,1.586,1.5205,1.5134,1.574,1.511,1.5392,1.6561,1.7757,1.8073,1.7668,1.8217,1.7648,0.0,0.0,0.0,0.0,1.4746,1.4289,0.0,0.0,0.0,0.0,1.3287,1.3433,0.0,0.0,0.0,0.0,0.0,0.0,0.0,0.0,1.4594,1.4639,1.4256,0.0,1.4479,1.4479,1.4776,1.5134,0.0,1.5615,1.5888,1.5821,1.5808,1.6008,1.6739,1.5332,1.432,1.5144,1.1946,1.0696,1.4615,1.3951,1.2108,0.9482,0.9286,0.8682,0.6892,0.6953,0.7161,0.7226,0.7601,0.7949,0.8272,0.8344,0.8476,0.8657,0.8729,0.941,1.0743,1.0851,1.1031,1.1276,1.1456,1.1707,1.2001,1.2101,1.2144,1.2144,1.2144,1.2144,1.2144,1.2144,1.2072,1.1958,1.1671,1.1491,1.1312,1.0773,1.0527,1.0359,0.0,0.0,0.0,0.0,0.0,0.0,0.0,0.0,0.0,0.0,0.9538,0.9913,0.9913,1.0332,1.0827,0.0,0.0,0.0,0.0,0.0,0.0,0.0,0.0,1.4972,1.519,1.468,1.4766,1.5504,1.5022,1.5345,1.6494,1.772,1.7913,1.7248,1.7381,1.6596,0.0,0.0,0.0,1.4394,1.4191,0.0,0.0,0.0,0.0,0.0,1.3019,1.3186,0.0,1.356,1.382,1.4103,0.0,0.0,0.0,0.0,1.4322,1.4362,1.4544,1.5186,1.5815,1.5815,1.5899,1.6046,1.6168,1.5995,1.5808,1.5808,1.5808,1.5995,1.6658,1.5582,1.4769,1.5294,1.2625,1.0861,1.1835,1.2968,1.2246,0.8413,0.8222,0.7908,0.6623,0.6652,0.6791,0.6855,0.7122,0.7428,0.7704,0.7805,0.7933,0.8078,0.8114,0.862,0.9663,0.9843,1.0131,1.0491,1.0671,1.0887,1.1103,1.1103,1.1103,1.1103,1.0881,1.0815,1.0815,1.0635,1.0455,1.0239,1.0023,0.9843,0.9596,0.9071,0.8873,0.8779,0.0,0.0,0.0,0.0,0.0,0.0,0.0,0.0,0.0,0.0,0.0,0.0,0.0,0.0,0.0,0.0,0.0,0.0,0.0,0.0,0.0,0.0,1.3928,1.4384,1.487,1.4339,1.4467,1.5348,1.4839,1.499,1.5765,1.7086,1.7266,1.6473,1.6014,1.5277,1.4389,1.4389,1.4112,1.3693,1.3786,0.0,0.0,0.0,0.0,0.0,0.0,0.0,0.0,1.3346,1.3714,1.4015,1.4015,0.0,0.0,0.0,0.0,0.0,1.3964,1.4966,1.6045,1.6077,1.6353,1.662,1.658,1.6168,1.5724,1.5557,1.5525,1.561,1.5853,1.5189,1.4649,1.4795,1.2943,1.0757,0.8671,1.0986,1.1513,0.7853,0.778,0.7631,0.6585,0.6501,0.6546,0.6602,0.6696,0.6927,0.73,0.745,0.7643,0.7933,0.7933,0.8114,0.8512,0.891,0.9302,0.9627,1.0023,1.0203,1.0131,1.0203,1.0203,1.0095,0.9771,0.9627,0.959,0.9266,0.891,0.862,0.8563,0.8319,0.7897,0.7625,0.7475,0.7339,0.0,0.0,0.0,0.0,0.0,0.0,0.0,0.0,0.0,0.0,0.0,0.0,0.0,0.0,0.0,0.0,0.0,0.0,0.0,0.0,0.0,1.2512,1.2599,1.2921,1.3502,1.34,1.3784,1.4659,1.4838,1.5106,1.5494,1.7008,1.7094,1.5955,1.4595,1.3788,1.3417,1.3417,1.3662,1.3931,1.2972,0.0,0.0,0.0,0.0,0.0,0.0,0.0,0.0,1.2596,1.3253,1.3687,1.3687,0.0,0.0,0.0,0.0,0.0,1.3349,1.3998,1.4913,1.5133,1.5775,1.6297,1.5995,1.5875,1.5486,1.4411,1.4279,1.4308,1.4132,1.2887,1.2341,1.3695,1.1821,0.9197,0.6348,0.7039,0.741,0.6322,0.625,0.634,0.6493,0.6559,0.6607,0.6662,0.6786,0.6908,0.7074,0.7091,0.7135,0.7172,0.7172,0.7353,0.7747,0.8114,0.8331,0.8367,0.8801,0.8801,0.8476,0.8837,0.8801,0.8476,0.8403,0.8367,0.8367,0.8295,0.8259,0.816,0.7952,0.7621,0.7228,0.6904,0.6559,0.6159,0.0,0.0,0.0,0.0,0.0,0.0,0.0,0.0,0.0,0.0,0.0,0.0,0.0,0.0,0.0,0.0,0.0,0.0,0.0,0.0,1.2452,1.2772,1.2658,1.2765,1.318,1.352,1.4041,1.4763,1.5079,1.5351,1.5631,1.6031,1.5772,1.4866,1.3845,1.322,1.2953,1.2476,1.2538,1.2828,0.0,0.0,0.0,0.0,0.0,0.0,0.0,0.0,0.0,0.0,1.1463,1.1863,1.1863,0.0,0.0,0.0,0.0,0.0,1.196,1.2479,1.3188,1.2736,1.3889,1.5088,1.4828,1.4616,1.4256,1.3591,1.3567,1.3646,1.3588,1.281,1.2076,1.1845,1.0147,0.816,0.6054,0.6359,0.6431,0.5423,0.551,0.5781,0.615,0.6262,0.6421,0.6686,0.6842,0.6928,0.6986,0.699,0.699,0.699,0.699,0.7099,0.7276,0.7425,0.7715,0.8114,0.8295,0.8295,0.8114,0.8295,0.8259,0.8078,0.7897,0.7824,0.7824,0.7607,0.7383,0.721,0.7105,0.6819,0.6458,0.6122,0.5641,0.51,0.0,0.0,0.0,0.0,0.0,0.0,0.0,0.0,0.0,0.0,0.0,0.0,0.0,0.0,0.0,0.0,0.0,0.0,0.0,1.2096,1.2465,1.308,1.2746,1.2883,1.3614,1.3629,1.3957,1.4614,1.4523,1.4778,1.5354,1.4852,1.4445,1.4047,1.2969,1.2478,1.2376,1.1492,1.1285,1.146,0.0,0.0,0.0,0.0,0.0,0.0,0.0,0.0,0.0,0.0,0.0,0.0,0.0,0.0,0.0,1.0864,1.1209,1.1671,1.0622,1.1005,1.1398,1.0274,1.1872,1.3625,1.3231,1.2843,1.2469,1.2064,1.2272,1.2441,1.2276,1.1887,1.116,0.9883,0.8243,0.6799,0.5812,0.6027,0.5917,0.4919,0.5077,0.5413,0.5744,0.5907,0.6164,0.6546,0.6721,0.6845,0.6986,0.699,0.699,0.699,0.699,0.699,0.699,0.699,0.728,0.786,0.7933,0.7933,0.786,0.7933,0.7933,0.7824,0.7566,0.747,0.7456,0.7055,0.6742,0.6522,0.6433,0.6228,0.5882,0.5399,0.4867,0.4358,0.0,0.0,0.0,0.0,0.0,0.0,0.0,0.0,0.0,0.0,0.0,0.0,0.0,0.0,0.0,0.0,0.0,0.0,0.0,1.1926,1.2208,1.2797,1.2147,1.275,1.4839,1.3145,1.2666,1.3508,1.235,1.255,1.404,1.3679,1.3714,1.3992,1.1519,1.0755,1.1264,1.0387,1.0213,1.0418,0.9437,0.0,0.0,0.0,0.0,0.0,0.0,0.0,0.0,0.0,0.0,0.0,0.0,0.0,1.0713,1.0627,1.0649,1.0572,0.9792,0.9853,0.9837,0.852,1.0274,1.2071,1.1063,1.0615,1.0083,0.8884,0.9433,0.9794,0.868,0.8072,0.7817,0.8124,0.6123,0.4521,0.4448,0.4451,0.4552,0.4775,0.4839,0.501,0.5413,0.5546,0.581,0.6197,0.6348,0.6587,0.699,0.699,0.699,0.699,0.699,0.699,0.699,0.699,0.7027,0.7099,0.7457,0.7421,0.7099,0.7457,0.7421,0.7063,0.7063,0.7072,0.7117,0.6707,0.6567,0.6578,0.6236,0.5964,0.5636,0.4782,0.4434,0.428,0.0,0.0,0.0,0.0,0.0,0.0,0.0,0.0,0.0,0.0,0.0,0.0,0.0,0.0,0.0,0.0,0.0,0.0,1.157,1.1788,1.1955,1.2114,1.1778,1.188,1.2506,1.2002,1.1971,1.2467,1.1987,1.2028,1.2537,1.2236,1.1993,1.1741,1.0551,1.0067,1.0075,0.9132,0.8839,0.8947,0.7926,0.7401,0.0,0.0,0.0,0.0,0.0,0.0,0.0,0.0,0.7684,0.791,0.791,0.8653,0.9383,0.8535,0.8879,0.9323,0.8291,0.8466,0.8634,0.7289,0.7938,0.8842,0.8665,0.864,0.8425,0.7646,0.7922,0.8139,0.7697,0.7572,0.7349,0.6732,0.5315,0.4308,0.4308,0.4308,0.4342,0.4473,0.4473,0.4659,0.5036,0.5197,0.5449,0.5845,0.5983,0.6192,0.6591,0.6627,0.6736,0.699,0.699,0.699,0.699,0.699,0.699,0.699,0.7167,0.7135,0.699,0.7167,0.7135,0.6994,0.6791,0.6684,0.6681,0.6324,0.6091,0.5899,0.5545,0.5198,0.4868,0.4515,0.4044,0.3532,0.0,0.0,0.0,0.0,0.0,0.0,0.0,0.0,0.0,0.0,0.0,0.0,0.0,0.0,0.0,0.0,0.0,0.0,1.1259,1.1279,1.1302,1.1417,1.0799,1.0429,1.0346,1.0278,1.056,1.113,1.1249,1.1226,1.1076,1.0806,1.0617,1.0474,0.9388,0.8988,0.9085,0.8038,0.7651,0.7666,0.702,0.6654,0.0,0.0,0.0,0.0,0.0,0.0,0.0,0.0,0.6484,0.6627,0.662,0.7393,0.8107,0.7224,0.768,0.8311,0.7488,0.7733,0.7986,0.7061,0.6776,0.6735,0.6857,0.6733,0.6508,0.6168,0.6452,0.6883,0.7332,0.7228,0.6832,0.6006,0.4978,0.4308,0.4308,0.4308,0.4308,0.4308,0.4308,0.4431,0.4698,0.4831,0.5072,0.5496,0.5568,0.5792,0.6192,0.6192,0.6337,0.6627,0.6627,0.6627,0.6627,0.6627,0.6627,0.6627,0.6736,0.6881,0.699,0.699,0.693,0.6816,0.6614,0.6448,0.635,0.5991,0.5634,0.5313,0.4967,0.463,0.4358,0.4084,0.3619,0.3078,0.0,0.0,0.0,0.0,0.0,0.0,0.0,0.0,0.0,0.0,0.0,0.0,0.0,0.0,0.0,0.0,0.0,0.0,1.0969,1.0305,1.0154,1.076,0.9132,0.8413,0.8877,0.8031,0.8216,0.9473,0.9807,0.9892,0.9721,0.9426,0.9786,1.062,0.7912,0.7321,0.8302,0.7174,0.6702,0.6709,0.6843,0.6742,0.6505,0.0,0.0,0.0,0.0,0.0,0.0,0.0,0.6491,0.6546,0.6809,0.6904,0.6938,0.7051,0.7337,0.7604,0.7597,0.7797,0.7985,0.7989,0.7137,0.6195,0.587,0.4962,0.4203,0.4206,0.4943,0.6001,0.7349,0.6607,0.5847,0.5964,0.5044,0.4308,0.4308,0.4308,0.4308,0.4308,0.4308,0.4333,0.4392,0.445,0.4685,0.5143,0.521,0.5356,0.5789,0.5789,0.5789,0.5789,0.5789,0.5789,0.5789,0.5789,0.5789,0.5789,0.6192,0.6595,0.699,0.699,0.682,0.6492,0.6492,0.6326,0.605,0.5666,0.5277,0.4944,0.4554,0.4397,0.428,0.3415,0.3125,0.3077,0.0,0.0,0.0,0.0,0.0,0.0,0.0,0.0,0.0,0.0,0.0,0.0,0.0,0.0,0.0,0.0,0.0,0.0,1.0969,1.0229,0.9656,0.9403,0.8455,0.77,0.7217,0.7139,0.7099,0.7026,0.7133,0.6626,0.5609,0.6442,0.6777,0.6659,0.688,0.7006,0.7049,0.6701,0.6559,0.6566,0.6607,0.6512,0.6381,0.0,0.0,0.0,0.0,0.0,0.0,0.0,0.0,0.0,0.66,0.692,0.7204,0.7019,0.733,0.7706,0.7519,0.7668,0.7657,0.6811,0.6274,0.5698,0.4747,0.437,0.4174,0.4029,0.497,0.5878,0.6152,0.6048,0.5929,0.5862,0.4978,0.4308,0.4308,0.4308,0.4308,0.4308,0.4308,0.4346,0.4447,0.4471,0.4597,0.4846,0.4836,0.4992,0.5356,0.5392,0.5501,0.5789,0.5789,0.5789,0.5789,0.5789,0.5789,0.5789,0.5938,0.6047,0.6155,0.6502,0.6433,0.6055,0.5861,0.574,0.5669,0.5289,0.4927,0.4554,0.4437,0.4044,0.3458,0.3248,0.2788,0.2241,0.0,0.0,0.0,0.0,0.0,0.0,0.0,0.0,0.0,0.0,1.3398,1.3332,0.0,0.0,0.0,1.1377,1.0886,0.0,1.0341,0.9612,0.8873,0.8159,0.753,0.7016,0.66,0.6837,0.6529,0.564,0.5781,0.5385,0.4528,0.5387,0.5868,0.6005,0.6902,0.7143,0.6845,0.6722,0.662,0.6586,0.6586,0.6498,0.6402,0.0,0.0,0.0,0.0,0.0,0.0,0.0,0.0,0.0,0.6477,0.6743,0.7049,0.7088,0.724,0.7415,0.7439,0.7427,0.7252,0.6556,0.5969,0.5248,0.4173,0.3975,0.4009,0.3924,0.4536,0.5091,0.4979,0.511,0.5218,0.5168,0.4666,0.4308,0.4308,0.4308,0.4308,0.4308,0.4308,0.4354,0.4471,0.4517,0.4567,0.469,0.4701,0.4774,0.4992,0.4992,0.5101,0.5353,0.5353,0.5353,0.5353,0.5353,0.5353,0.5356,0.5527,0.554,0.5433,0.5991,0.6083,0.5735,0.5426,0.5316,0.528,0.493,0.463,0.4361,0.4064,0.3597,0.3126,0.3005,0.2542,0.1907,0.0,0.0,1.2915,1.2915,0.0,0.0,0.0,0.0,0.0,1.2915,1.3216,1.298,0.0,0.0,0.0,1.066,1.051,1.0158,0.9348,0.865,0.7909,0.7131,0.661,0.6443,0.6695,0.6938,0.6412,0.5091,0.5403,0.5493,0.5415,0.5659,0.6351,0.7393,0.7429,0.7406,0.7314,0.6885,0.6678,0.6661,0.6661,0.66,0.6491,0.6607,0.0,0.0,0.0,0.0,0.0,0.0,0.0,0.0,0.647,0.6512,0.662,0.7059,0.7023,0.6888,0.719,0.6998,0.6744,0.6812,0.5889,0.4772,0.3992,0.3803,0.3839,0.3896,0.3889,0.3905,0.3993,0.4053,0.4112,0.4174,0.4267,0.4308,0.4308,0.4308,0.4308,0.4308,0.4308,0.4354,0.4471,0.4517,0.4567,0.469,0.4701,0.4701,0.4701,0.4701,0.4701,0.4701,0.4701,0.4701,0.4701,0.4701,0.4704,0.471,0.5093,0.5092,0.4846,0.5552,0.5697,0.5444,0.5114,0.4983,0.4983,0.4554,0.4361,0.4252,0.3501,0.3158,0.3085,0.2716,0.2336,0.1862,0.0,0.0,1.2915,1.2915,0.0,0.0,0.0,0.0,1.2915,1.2915,1.2981,1.2607,1.1507,1.1665,0.0,1.0302,0.9825,0.9492,0.93,0.7992,0.7181,0.7105,0.6783,0.6634,0.6702,0.6763,0.6175,0.4951,0.5121,0.4751,0.3903,0.51,0.5723,0.5885,0.6093,0.6433,0.6782,0.5644,0.5639,0.6395,0.6395,0.6375,0.6347,0.6381,0.6354,0.0,0.0,0.0,0.0,0.0,0.0,0.0,0.647,0.6634,0.666,0.5843,0.6242,0.6744,0.5807,0.5805,0.5996,0.5553,0.4716,0.3973,0.3837,0.3836,0.3891,0.3904,0.3889,0.3905,0.3993,0.4053,0.4112,0.4174,0.4267,0.4308,0.4308,0.4308,0.4308,0.4308,0.4308,0.4354,0.4471,0.4517,0.4567,0.469,0.4701,0.4701,0.4701,0.4701,0.4701,0.4701,0.4701,0.4701,0.4701,0.4701,0.4723,0.4773,0.4861,0.4879,0.4897,0.5352,0.5396,0.512,0.5016,0.4983,0.4983,0.4554,0.4224,0.3863,0.3392,0.3013,0.2717,0.2626,0.2105,0.145,0.0,0.0,0.0,0.0,0.0,0.0,0.0,0.0,1.3536,1.272,1.2664,1.227,1.114,1.1022,0.0,0.0,0.9847,0.9407,0.8726,0.7953,0.7233,0.6604,0.6597,0.658,0.6512,0.658,0.6289,0.5663,0.5669,0.5224,0.4372,0.527,0.5997,0.6554,0.6629,0.671,0.6748,0.5916,0.5846,0.63,0.63,0.63,0.63,0.63,0.6204,0.6049,0.5949,0.0,0.0,0.0,0.0,0.0,0.0,0.0,0.6442,0.5507,0.5461,0.5584,0.5041,0.4841,0.4725,0.4564,0.4142,0.3759,0.3792,0.3839,0.3913,0.3915,0.3889,0.3945,0.4031,0.4072,0.4123,0.4245,0.4286,0.4308,0.4308,0.4308,0.4308,0.4308,0.4308,0.4354,0.4471,0.4517,0.4567,0.469,0.4847,0.4956,0.4956,0.5138,0.5208,0.5208,0.5208,0.5208,0.5208,0.5278,0.5348,0.5385,0.5453,0.5384,0.525,0.5247,0.5148,0.4983,0.4983,0.4983,0.4985,0.4581,0.4174,0.3759,0.3397,0.2976,0.2586,0.2615,0.2211,0.1587,0.0,0.0,0.0,0.0,0.0,0.0,0.0,0.0,0.0,1.2496,1.2465,1.2071,1.0773,1.0468,1.0249,0.0,0.0,0.0,0.8008,0.7839,0.7258,0.6114,0.6348,0.6457,0.634,0.6429,0.6477,0.6477,0.6361,0.6121,0.5785,0.5941,0.6653,0.7776,0.7442,0.7138,0.6862,0.6363,0.6172,0.6218,0.619,0.6197,0.6218,0.619,0.6022,0.58,0.5772,0.5842,0.5978,0.5986,0.0,0.0,0.0,0.0,0.6159,0.5486,0.4814,0.4363,0.4618,0.4181,0.3695,0.3965,0.3917,0.3801,0.3812,0.3872,0.3889,0.3889,0.3889,0.3955,0.4072,0.4093,0.4134,0.4289,0.4308,0.4308,0.4308,0.4308,0.4308,0.4308,0.4308,0.4354,0.4471,0.4517,0.457,0.4766,0.5029,0.5214,0.5283,0.561,0.5789,0.5789,0.5789,0.5789,0.5789,0.594,0.6022,0.6036,0.6153,0.6023,0.5612,0.5257,0.5061,0.4983,0.4983,0.4988,0.5002,0.4656,0.4286,0.3906,0.3449,0.3064,0.2741,0.2725,0.2398,0.1934,0.0,0.0,0.0,0.0,0.0,0.0,0.0,0.0,0.0,0.0,1.2632,1.2219,1.0541,1.0528,1.0292,0.9394,0.91,0.8577,0.7627,0.0,0.0,0.6259,0.6403,0.6484,0.6484,0.6381,0.6327,0.6327,0.6306,0.6647,0.7293,0.7046,0.724,0.7752,0.6578,0.6361,0.6806,0.5375,0.5191,0.5854,0.5749,0.577,0.5847,0.5743,0.5732,0.5786,0.5664,0.5711,0.5854,0.5964,0.6025,0.0,0.0,0.0,0.61,0.508,0.4566,0.4278,0.4219,0.4194,0.4176,0.4092,0.3951,0.3812,0.3867,0.3902,0.3889,0.3889,0.3889,0.3955,0.4072,0.4093,0.4134,0.4289,0.4308,0.4308,0.4308,0.4308,0.4308,0.4308,0.4308,0.4354,0.4471,0.4517,0.4676,0.5093,0.5177,0.5356,0.572,0.5752,0.5789,0.5789,0.5789,0.5789,0.5789,0.594,0.6012,0.6081,0.6228,0.6069,0.5691,0.5612,0.5374,0.4983,0.4983,0.5052,0.5061,0.4673,0.4488,0.4406,0.3595,0.3288,0.3232,0.2859,0.2398,0.1976,0.0,0.0,0.0,0.0,0.0,0.0,0.0,0.0,0.0,0.0,0.0,1.131,1.0094,0.9911,0.9674,0.9231,0.9089,0.88,0.8266,0.709,0.6513,0.6748,0.6411,0.6227,0.6227,0.6166,0.6192,0.63,0.6103,0.6573,0.7597,0.7373,0.7645,0.8219,0.6403,0.6104,0.6935,0.582,0.5513,0.5786,0.5644,0.5845,0.6151,0.5756,0.5804,0.6022,0.562,0.5573,0.5705,0.5854,0.5944,0.6039,0.6233,0.0,0.0,0.0,0.4614,0.4411,0.3857,0.4047,0.4321,0.397,0.3841,0.3814,0.3878,0.3907,0.3889,0.3889,0.3945,0.3993,0.4077,0.412,0.4172,0.4294,0.4308,0.4308,0.4308,0.4308,0.4308,0.4308,0.4308,0.4354,0.4471,0.4692,0.4923,0.5165,0.5614,0.5941,0.6119,0.6337,0.6478,0.6478,0.6478,0.6505,0.6514,0.6675,0.6781,0.6872,0.6944,0.6744,0.6356,0.6157,0.5648,0.4983,0.5057,0.5087,0.5077,0.4986,0.4795,0.4551,0.4205,0.3812,0.3367,0.3155,0.2777,0.2357,0.0,0.0,0.0,0.0,0.0,0.0,0.0,0.0,0.0,0.0,0.0,1.0711,0.9896,0.0,0.0,0.0,0.9204,0.9088,0.8821,0.7808,0.7276,0.7372,0.6708,0.6304,0.6226,0.6041,0.601,0.6129,0.5935,0.6458,0.7597,0.7159,0.762,0.8743,0.6967,0.6554,0.7134,0.6505,0.6126,0.5944,0.5437,0.5751,0.6424,0.5727,0.5893,0.6437,0.5906,0.577,0.5838,0.5847,0.5917,0.6032,0.6185,0.6219,0.0,0.0,0.0,0.476,0.3505,0.3736,0.4155,0.3418,0.3422,0.3597,0.3668,0.3776,0.3892,0.3908,0.3985,0.4045,0.4104,0.4153,0.4237,0.4297,0.4308,0.4308,0.4308,0.4308,0.4308,0.4308,0.4308,0.4388,0.4646,0.494,0.5209,0.5492,0.605,0.645,0.6559,0.6845,0.699,0.699,0.699,0.7035,0.7088,0.7239,0.7374,0.7486,0.7486,0.7291,0.6904,0.6609,0.5987,0.5165,0.5132,0.5128,0.5164,0.5256,0.5096,0.4779,0.4737,0.4248,0.3535,0.3419,0.3085,0.2666,0.0,0.0,0.0,0.0,0.0,0.0,0.0,0.0,0.0,0.0,0.0,1.0974,1.0162,0.9833,0.9552,0.923,0.9204,0.9088,0.8821,0.8391,0.0,0.0,0.7565,0.0,0.6855,0.6164,0.5752,0.5641,0.587,0.6539,0.758,0.6295,0.6934,0.9138,0.8595,0.7988,0.7362,0.6999,0.6709,0.6338,0.4858,0.5174,0.6411,0.5478,0.5936,0.7011,0.6742,0.6559,0.6403,0.6093,0.5986,0.5993,0.6018,0.6025,0.6006,0.0,0.0,0.0,0.3161,0.3176,0.3546,0.2311,0.2473,0.2953,0.3045,0.3489,0.3903,0.3988,0.4047,0.4107,0.4169,0.4215,0.4237,0.4297,0.4308,0.4308,0.4308,0.4308,0.4308,0.4308,0.4308,0.449,0.5032,0.508,0.5456,0.629,0.6377,0.6555,0.6954,0.699,0.699,0.699,0.699,0.7035,0.7088,0.7297,0.7431,0.7486,0.7486,0.7291,0.6908,0.6947,0.6503,0.5627,0.5271,0.5177,0.5283,0.5292,0.5327,0.5295,0.4878,0.4414,0.3916,0.3534,0.3121,0.2697,0.0,0.0,0.0,0.0,0.0,0.0,0.0,0.0,0.0,0.0,0.0,0.0,0.0,1.0005,0.9846,0.9552,0.9164,0.8908,0.8814,0.7826,0.0,0.0,0.6708,0.6295,0.6195,0.5933,0.5779,0.5725,0.5739,0.6234,0.7154,0.6884,0.7313,0.8263,0.7234,0.7144,0.7681,0.623,0.5567,0.5336,0.3844,0.3805,0.4591,0.4264,0.4775,0.5669,0.5578,0.5818,0.6158,0.6038,0.6151,0.6295,0.6226,0.6112,0.5993,0.5993,0.5991,0.5777,0.4766,0.4207,0.3767,0.3034,0.2561,0.2379,0.2876,0.3169,0.3438,0.3859,0.4026,0.4101,0.4123,0.4221,0.4283,0.4305,0.4308,0.4308,0.4308,0.4308,0.4308,0.4308,0.4473,0.4759,0.5067,0.5534,0.5986,0.6362,0.6627,0.6845,0.699,0.699,0.699,0.699,0.699,0.7064,0.7211,0.739,0.7493,0.7486,0.7486,0.7408,0.7295,0.7069,0.6698,0.618,0.5819,0.5537,0.5297,0.5335,0.5365,0.5384,0.5216,0.49,0.4465,0.4014,0.3566,0.3161,0.0,0.0,0.0,1.2804,0.0,1.1286,1.0726,1.009,0.9741,0.982,0.0,0.0,0.0,0.0,0.9994,0.9321,0.8716,0.8365,0.8365,0.7586,0.0,0.0,0.6596,0.6218,0.6167,0.5971,0.5827,0.5732,0.5739,0.6091,0.6783,0.7082,0.7434,0.7766,0.6664,0.6611,0.7248,0.5808,0.4945,0.4395,0.2933,0.2857,0.3648,0.3349,0.3991,0.5055,0.5057,0.5289,0.5568,0.5505,0.5436,0.5394,0.5626,0.581,0.5937,0.5937,0.6015,0.5981,0.5451,0.4845,0.4121,0.3067,0.2492,0.2288,0.2609,0.2846,0.318,0.3821,0.4009,0.4074,0.4118,0.4221,0.4283,0.4305,0.4308,0.4308,0.4308,0.4406,0.4473,0.4473,0.4775,0.5122,0.5414,0.5904,0.6289,0.6537,0.6829,0.699,0.699,0.699,0.699,0.699,0.7047,0.7178,0.7302,0.7435,0.7486,0.7486,0.7486,0.7542,0.7574,0.735,0.7073,0.6744,0.6412,0.5903,0.5327,0.5368,0.5384,0.5387,0.5406,0.5184,0.4751,0.4484,0.3997,0.3459,1.3347,1.3607,1.3474,1.2366,1.1956,1.1397,1.0257,0.9869,0.9789,1.0009,0.0,0.0,0.0,0.0,0.0,0.853,0.7838,0.7482,0.7488,0.7766,0.7924,0.7924,0.7362,0.6995,0.6864,0.631,0.587,0.562,0.587,0.6154,0.6484,0.677,0.7195,0.7753,0.7161,0.6531,0.5927,0.5781,0.4966,0.361,0.2136,0.243,0.3619,0.2786,0.3667,0.5318,0.5369,0.5091,0.4684,0.4574,0.3932,0.331,0.4226,0.5118,0.582,0.5813,0.6056,0.6094,0.0,0.0,0.0,0.2264,0.2252,0.264,0.2146,0.2517,0.316,0.3836,0.3999,0.4071,0.4188,0.4213,0.4234,0.4325,0.4305,0.4308,0.4342,0.4607,0.4806,0.4806,0.5178,0.5612,0.6066,0.6179,0.6403,0.6843,0.6969,0.6986,0.6986,0.699,0.699,0.699,0.7203,0.7302,0.7302,0.7435,0.7486,0.7486,0.7486,0.7574,0.7704,0.7758,0.7603,0.7275,0.686,0.6224,0.5426,0.5426,0.5387,0.5392,0.5495,0.5221,0.4848,0.4866,0.433,0.3539,1.1921,1.2034,1.1995,1.1674,1.1558,1.1079,0.986,0.9773,0.9533,0.0,0.0,0.0,0.9122,0.9139,0.8992,0.8572,0.7725,0.7171,0.7073,0.6465,0.6112,0.6112,0.6142,0.6136,0.6111,0.6038,0.5971,0.589,0.5863,0.5944,0.614,0.6356,0.6668,0.7007,0.6931,0.5923,0.4257,0.3958,0.333,0.2388,0.0987,0.0986,0.1782,0.1978,0.252,0.3316,0.4415,0.4757,0.479,0.526,0.4989,0.4433,0.4586,0.5402,0.6287,0.6185,0.6424,0.6619,0.6135,0.0,0.0,0.0,0.0,0.0,0.2512,0.2599,0.2836,0.3502,0.422,0.4737,0.4776,0.4827,0.4868,0.4887,0.4745,0.4775,0.5044,0.5178,0.5245,0.5245,0.5547,0.5844,0.6066,0.6336,0.656,0.6754,0.6879,0.6928,0.6928,0.699,0.699,0.699,0.7203,0.7302,0.7302,0.7435,0.7486,0.7486,0.7486,0.7574,0.7704,0.7758,0.7603,0.7275,0.686,0.6392,0.5885,0.5552,0.5412,0.5495,0.5511,0.5483,0.5386,0.5024,0.4748,0.451,1.1739,1.1979,1.2113,1.1997,1.1611,1.1022,1.0182,0.9764,0.9298,0.0,0.0,0.0,0.8871,0.8645,0.845,0.8287,0.727,0.6582,0.6441,0.5843,0.5487,0.5487,0.5695,0.5861,0.6008,0.6078,0.6125,0.6125,0.5969,0.5924,0.5993,0.6125,0.6307,0.6519,0.609,0.4971,0.3351,0.2656,0.1897,0.1103,0.0308,0.0404,0.1032,0.1386,0.1949,0.2686,0.3866,0.4212,0.4251,0.4946,0.4698,0.4119,0.414,0.455,0.5104,0.558,0.5912,0.6108,0.596,0.6166,0.6247,0.5497,0.0,0.0,0.3737,0.3522,0.348,0.4254,0.4943,0.5313,0.5032,0.5266,0.5436,0.534,0.5193,0.5162,0.5295,0.5468,0.5578,0.561,0.5915,0.6169,0.6254,0.6463,0.6611,0.6664,0.6749,0.685,0.6887,0.694,0.6986,0.699,0.7129,0.7261,0.7302,0.7399,0.7488,0.7486,0.7486,0.7595,0.7761,0.7774,0.7746,0.7614,0.6958,0.656,0.6308,0.5707,0.5487,0.5522,0.5572,0.5635,0.5654,0.5371,0.5132,0.4933,0.0,1.2743,1.2943,1.2725,1.1781,1.0946,1.0618,0.9706,0.9011,0.0,0.899,0.9143,0.9324,0.873,0.8172,0.7817,0.6757,0.6039,0.5888,0.5725,0.563,0.5616,0.5752,0.5956,0.6265,0.6306,0.6313,0.63,0.6125,0.6025,0.5993,0.5991,0.6078,0.62,0.5029,0.3974,0.3001,0.1824,0.0866,0.0121,0.0136,0.0562,0.1237,0.124,0.1928,0.3013,0.3697,0.3727,0.3525,0.4112,0.3819,0.3233,0.334,0.3215,0.3225,0.4382,0.4953,0.0,0.5152,0.6403,0.0,0.6169,0.5792,0.0,0.533,0.4879,0.4727,0.5522,0.5868,0.5872,0.5335,0.5737,0.6085,0.5811,0.5751,0.5644,0.5341,0.5617,0.5873,0.5911,0.6264,0.6473,0.6473,0.6555,0.6574,0.6574,0.666,0.6749,0.6871,0.6883,0.6928,0.697,0.7072,0.717,0.7302,0.7346,0.7435,0.7486,0.7486,0.7619,0.7799,0.7799,0.7893,0.8064,0.7143,0.6731,0.666,0.5886,0.5571,0.5539,0.5651,0.5698,0.5712,0.5719,0.5425,0.5067,1.2986,1.2377,1.1838,1.1904,1.0977,0.9979,0.9234,0.8931,0.8459,0.7606,0.7658,0.7906,0.8251,0.7966,0.7717,0.7654,0.708,0.6613,0.6375,0.6091,0.587,0.5766,0.5883,0.5998,0.6052,0.6328,0.6416,0.63,0.6272,0.6152,0.5986,0.5883,0.5861,0.5851,0.4912,0.3921,0.2883,0.1944,0.1294,0.088,0.0879,0.1569,0.2614,0.2667,0.2855,0.3196,0.4283,0.4275,0.3788,0.4157,0.4373,0.4316,0.3572,0.3471,0.3613,0.3622,0.4658,0.5773,0.5572,0.6889,0.8165,0.752,0.702,0.0,0.5824,0.5753,0.5762,0.5569,0.619,0.6757,0.6635,0.6905,0.7064,0.6905,0.6754,0.6487,0.6054,0.6078,0.6118,0.6134,0.6268,0.6341,0.6341,0.646,0.6514,0.6514,0.6566,0.6656,0.6745,0.685,0.6895,0.6916,0.7039,0.717,0.7302,0.7346,0.7435,0.7486,0.7486,0.7619,0.7799,0.7799,0.7893,0.806,0.752,0.7095,0.6734,0.6252,0.5891,0.5594,0.5665,0.5681,0.568,0.5691,0.5652,0.5515,1.2536,1.1804,1.1165,1.1241,1.0423,0.9597,0.9169,0.8612,0.8133,0.7828,0.8011,0.8153,0.8153,0.8024,0.7902,0.7804,0.7407,0.7021,0.6722,0.6417,0.6186,0.6056,0.6012,0.6113,0.6343,0.6382,0.6423,0.6498,0.6375,0.5969,0.5346,0.529,0.4934,0.4311,0.3449,0.2692,0.2054,0.1179,0.0909,0.1051,0.1084,0.1894,0.3062,0.3076,0.3299,0.3734,0.469,0.4987,0.4857,0.4539,0.4519,0.4447,0.3643,0.3045,0.2664,0.2648,0.3302,0.398,0.3853,0.5554,0.7378,0.7287,0.7353,0.0,0.0,0.7033,0.6754,0.6844,0.7194,0.7444,0.7227,0.7531,0.7685,0.7369,0.7148,0.6991,0.6808,0.6404,0.6133,0.6206,0.6223,0.6247,0.6247,0.6333,0.6436,0.6485,0.653,0.6596,0.6656,0.6741,0.6846,0.6887,0.6986,0.7125,0.7302,0.7343,0.7395,0.7486,0.7486,0.7619,0.7799,0.7799,0.7893,0.806,0.7604,0.7186,0.6754,0.6357,0.5972,0.5654,0.5673,0.5714,0.5696,0.5696,0.5696,0.5652,1.16,1.1013,1.049,1.0506,0.9775,0.918,0.922,0.843,0.8024,0.8506,0.8811,0.8811,0.8401,0.8341,0.8262,0.8117,0.768,0.7366,0.7222,0.6865,0.66,0.6457,0.6227,0.6275,0.6695,0.6457,0.6324,0.6327,0.6126,0.547,0.4391,0.4385,0.385,0.2859,0.1996,0.1486,0.1253,0.0528,0.0518,0.1025,0.124,0.1956,0.294,0.3089,0.347,0.4029,0.4888,0.5436,0.561,0.4859,0.4401,0.4077,0.3615,0.2573,0.1579,0.1904,0.2016,0.2028,0.2052,0.4218,0.6466,0.6264,0.7302,0.834,0.0,0.0,0.0,0.809,0.8078,0.7913,0.7618,0.7934,0.8114,0.7675,0.7484,0.7412,0.7515,0.6773,0.6243,0.6339,0.6305,0.6249,0.6249,0.6271,0.6329,0.6452,0.646,0.6501,0.6592,0.6651,0.6741,0.6862,0.6953,0.7088,0.7273,0.7293,0.7341,0.7501,0.7478,0.7619,0.7799,0.7799,0.7893,0.806,0.7687,0.7324,0.6903,0.6493,0.6127,0.585,0.5722,0.5696,0.5696,0.5696,0.5696,0.5696,1.0554,0.9954,0.932,0.9445,0.8642,0.8025,0.8163,0.806,0.8196,0.8784,0.9028,0.9012,0.8605,0.846,0.8429,0.8534,0.7901,0.7723,0.8284,0.7682,0.7204,0.7026,0.6641,0.6532,0.6695,0.6552,0.5961,0.4922,0.5022,0.4457,0.3283,0.3284,0.3145,0.2862,0.1981,0.149,0.129,0.1061,0.1017,0.1136,0.181,0.2126,0.2281,0.302,0.3238,0.3391,0.4725,0.5019,0.4744,0.4627,0.4002,0.3265,0.3375,0.2566,0.1646,0.1916,0.2074,0.2172,0.2163,0.4672,0.6828,0.4942,0.707,0.9035,0.6822,0.0,0.8435,0.8107,0.0,0.8042,0.8182,0.0,0.0,0.8395,0.8214,0.8057,0.7955,0.7425,0.7013,0.6837,0.6612,0.6472,0.6472,0.6305,0.6235,0.6325,0.6333,0.6374,0.6497,0.6592,0.6647,0.6702,0.6858,0.6994,0.7104,0.7261,0.7347,0.7407,0.7484,0.7619,0.7799,0.7799,0.7893,0.8102,0.8064,0.7823,0.7457,0.7032,0.668,0.6353,0.5873,0.5696,0.5696,0.5696,0.5696,0.5705,0.9388,0.8853,0.8251,0.8302,0.81,0.7939,0.7982,0.8534,0.8953,0.9055,0.9601,0.9384,0.7893,0.7972,0.7702,0.6712,0.6621,0.6726,0.6931,0.6946,0.6888,0.6804,0.6833,0.687,0.6931,0.6112,0.5407,0.4827,0.417,0.3293,0.2228,0.2238,0.1865,0.1211,0.0839,0.0854,0.1179,0.1161,0.1394,0.1765,0.2124,0.2239,0.2297,0.3028,0.3806,0.4627,0.5178,0.5082,0.4796,0.5404,0.4982,0.4289,0.4409,0.3677,0.2681,0.2183,0.1517,0.0922,0.0931,0.2627,0.4392,0.4477,0.6141,0.7749,0.7599,0.7956,0.829,0.8303,0.0,0.0,0.0,0.0,0.0,0.0,0.8397,0.8217,0.8235,0.7895,0.7539,0.7218,0.6277,0.5331,0.4615,0.5934,0.6444,0.5457,0.5956,0.6333,0.6374,0.6513,0.6631,0.669,0.6846,0.6977,0.7088,0.7215,0.7343,0.739,0.7537,0.7672,0.7799,0.7852,0.7946,0.8106,0.8159,0.7959,0.7606,0.7472,0.7207,0.686,0.6365,0.5965,0.5699,0.5734,0.5748,0.5756,0.8378,0.8039,0.7611,0.7651,0.7844,0.7879,0.7509,0.782,0.8072,0.7991,0.8561,0.828,0.6495,0.6811,0.6665,0.5407,0.5714,0.6025,0.6156,0.6359,0.6391,0.6203,0.6308,0.6282,0.6143,0.5097,0.4361,0.4002,0.312,0.2174,0.1169,0.117,0.0736,0.0,0.0,0.0306,0.0828,0.1071,0.1476,0.1962,0.219,0.2448,0.2743,0.3159,0.4277,0.5628,0.5553,0.5247,0.4981,0.5712,0.5605,0.5208,0.5312,0.4827,0.4086,0.3444,0.2274,0.1168,0.1139,0.2014,0.3091,0.3774,0.4922,0.6047,0.6722,0.7269,0.7699,0.7916,0.8144,0.0,0.0,0.0,0.8513,0.8682,0.0,0.8345,0.8365,0.7904,0.7392,0.7022,0.5565,0.4174,0.3171,0.4932,0.5733,0.4743,0.5397,0.5976,0.628,0.6443,0.657,0.6684,0.6774,0.6892,0.7047,0.7232,0.733,0.7358,0.7601,0.7749,0.7803,0.7852,0.7983,0.811,0.8158,0.8038,0.7779,0.7815,0.7633,0.7352,0.6857,0.6467,0.6131,0.5906,0.5797,0.5821,0.763,0.7614,0.7645,0.778,0.7912,0.7572,0.6273,0.5098,0.4487,0.4791,0.4991,0.4864,0.4354,0.4899,0.5328,0.548,0.5754,0.6244,0.7005,0.6538,0.5901,0.5166,0.472,0.4248,0.3731,0.3357,0.2693,0.1708,0.1671,0.111,0.0042,0.0042,0.0043,0.0,0.0,0.0026,0.0084,0.0792,0.1161,0.1311,0.2003,0.2857,0.3626,0.3467,0.4365,0.5699,0.5631,0.5391,0.5084,0.5051,0.5251,0.5508,0.5646,0.574,0.5882,0.6099,0.5202,0.4142,0.4018,0.4336,0.4278,0.2539,0.3422,0.4312,0.2609,0.456,0.67,0.6595,0.7938,0.918,0.9193,0.9015,0.8845,0.0,0.8683,0.0,0.0,0.7167,0.6241,0.5973,0.4477,0.3323,0.3038,0.3099,0.3557,0.4524,0.4626,0.5126,0.6239,0.6321,0.6406,0.659,0.6684,0.6774,0.6895,0.7166,0.7302,0.731,0.7572,0.7749,0.7803,0.7852,0.7983,0.811,0.8158,0.8252,0.8255,0.7946,0.781,0.784,0.7352,0.7221,0.7149,0.615,0.5824,0.5929,0.7844,0.7864,0.7851,0.7821,0.7168,0.6241,0.499,0.4722,0.4693,0.4829,0.513,0.4799,0.3358,0.4196,0.4442,0.3333,0.4155,0.4836,0.5087,0.5397,0.5479,0.5322,0.5503,0.5242,0.4473,0.3558,0.2616,0.1605,0.0887,0.0812,0.1315,0.1228,0.1234,0.1311,0.1223,0.1022,0.0757,0.1038,0.173,0.2668,0.2991,0.3316,0.3662,0.3859,0.4729,0.5846,0.6012,0.5674,0.5295,0.6202,0.6268,0.6128,0.7053,0.6892,0.6377,0.6356,0.5545,0.462,0.4567,0.4003,0.3479,0.373,0.3347,0.298,0.3269,0.4148,0.5217,0.6293,0.6989,0.7784,0.8966,0.9035,0.0,0.0,0.0,0.8492,0.0,0.7027,0.5733,0.4752,0.529,0.4481,0.1312,0.2696,0.3462,0.2614,0.3202,0.4094,0.5188,0.5278,0.5688,0.6586,0.668,0.6766,0.6887,0.7162,0.7302,0.7306,0.7634,0.777,0.7803,0.795,0.8077,0.811,0.8223,0.8262,0.8303,0.8321,0.8356,0.8343,0.7903,0.7751,0.7773,0.7082,0.6897,0.6967,0.8088,0.7661,0.7428,0.7892,0.6495,0.487,0.361,0.3384,0.3325,0.335,0.3723,0.3523,0.2252,0.3128,0.3373,0.2239,0.3162,0.3822,0.3822,0.4408,0.4671,0.4485,0.4954,0.4694,0.3601,0.2824,0.1981,0.1023,0.0335,0.0681,0.1987,0.1424,0.1468,0.1975,0.1413,0.0988,0.0705,0.0765,0.1659,0.3115,0.3926,0.4111,0.3984,0.4808,0.5262,0.5559,0.6148,0.6242,0.6203,0.7031,0.7195,0.7177,0.7996,0.7878,0.7387,0.742,0.6899,0.6356,0.6461,0.5476,0.4587,0.5373,0.4404,0.3482,0.4321,0.5078,0.5936,0.6936,0.7555,0.8076,0.8648,0.8961,0.8911,0.0,0.0,0.0,0.0,0.7034,0.5854,0.3553,0.4387,0.4006,0.1055,0.2385,0.3097,0.2327,0.2875,0.3506,0.4107,0.4535,0.5138,0.5926,0.6452,0.6754,0.6842,0.7146,0.7302,0.7306,0.7627,0.7799,0.7807,0.8024,0.8102,0.8114,0.8256,0.829,0.8307,0.8534,0.8607,0.8571,0.834,0.8289,0.8324,0.7657,0.748,0.7555,0.8239,0.6958,0.6355,0.7755,0.5732,0.3473,0.214,0.1142,0.0524,0.0539,0.088,0.1094,0.109,0.1776,0.2197,0.2215,0.2862,0.3295,0.3295,0.3645,0.3575,0.2873,0.3213,0.2761,0.1325,0.1302,0.0904,0.0054,0.0053,0.0715,0.1961,0.0698,0.077,0.1942,0.0662,0.0056,0.0,0.0,0.0918,0.2515,0.464,0.5001,0.4501,0.612,0.5917,0.4898,0.6098,0.6991,0.7593,0.7464,0.7931,0.851,0.8468,0.8636,0.8922,0.9211,0.9221,0.9232,0.9469,0.8563,0.7454,0.7225,0.6393,0.5595,0.5455,0.7022,0.8444,0.8335,0.9402,0.9897,0.8293,0.8878,0.8951,0.0,0.0,0.0,0.6365,0.7222,0.6548,0.2572,0.2158,0.219,0.2089,0.204,0.2436,0.3442,0.3464,0.3324,0.3053,0.3984,0.464,0.4809,0.5981,0.6663,0.6698,0.7084,0.7302,0.7306,0.7627,0.7799,0.7807,0.8024,0.8102,0.8114,0.8256,0.829,0.8307,0.8534,0.8607,0.8615,0.866,0.8799,0.8801,0.7906,0.7605,0.7667,0.6867,0.5648,0.4432,0.3734,0.3212,0.2437,0.1141,0.0957,0.0963,0.1009,0.1124,0.1176,0.118,0.1783,0.2192,0.2206,0.2857,0.3295,0.3295,0.34,0.3505,0.361,0.3725,0.3493,0.2863,0.2835,0.2206,0.0891,0.0893,0.1261,0.1989,0.1555,0.1572,0.1977,0.1526,0.0849,0.0,0.0,0.0605,0.1707,0.312,0.3581,0.3613,0.5293,0.567,0.5428,0.6544,0.7256,0.77,0.7856,0.8256,0.8663,0.8874,0.9168,0.9457,0.9337,0.9657,1.0074,1.0041,0.8951,0.7934,0.8166,0.7001,0.5839,0.5914,0.6393,0.7109,0.8108,0.8535,0.8892,0.9425,0.965,0.9483,0.8641,0.8624,0.8461,0.7795,0.809,0.7159,0.3871,0.4505,0.3962,0.0876,0.1515,0.1822,0.1008,0.1926,0.2367,0.1991,0.2235,0.3164,0.4879,0.5324,0.593,0.6854,0.7154,0.7302,0.7306,0.7627,0.7799,0.7807,0.8024,0.8102,0.8114,0.8256,0.829,0.8307,0.8534,0.8607,0.8624,0.8775,0.8934,0.903,0.8767,0.8696,0.8715,0.6379,0.4781,0.2853,0.1371,0.1401,0.1383,0.0698,0.0885,0.1192,0.1408,0.1558,0.1645,0.1643,0.1993,0.223,0.223,0.2628,0.2852,0.2852,0.303,0.321,0.346,0.3816,0.3742,0.318,0.336,0.2691,0.1202,0.1203,0.1479,0.1991,0.1333,0.1372,0.1965,0.1306,0.0633,0.0029,0.0416,0.0963,0.1717,0.331,0.4074,0.0,0.5903,0.66,0.6754,0.7314,0.7739,0.8095,0.8365,0.8732,0.9112,0.935,0.9563,0.9742,0.9903,1.0188,1.0407,1.0504,0.9948,0.9448,0.9608,0.9098,0.8582,0.8602,0.866,0.8952,0.976,0.9685,0.95,0.9525,0.9868,0.9963,0.9384,0.8913,0.8554,0.841,0.8512,0.7701,0.53,0.5867,0.524,0.2044,0.3027,0.3297,0.193,0.2551,0.2385,0.0981,0.1949,0.3094,0.425,0.5444,0.6335,0.6949,0.7183,0.7318,0.7359,0.7644,0.7799,0.7807,0.8024,0.8102,0.8114,0.8256,0.829,0.8307,0.8534,0.8607,0.8628,0.8803,0.8983,0.9095,0.9095,0.9095,0.9095,0.5627,0.3696,0.1524,0.0208,0.0256,0.0485,0.0598,0.088,0.1243,0.1595,0.195,0.2162,0.2162,0.2256,0.2308,0.2308,0.2331,0.2308,0.2308,0.2638,0.2857,0.2894,0.359,0.368,0.3099,0.3423,0.2853,0.1365,0.1345,0.1498,0.1707,0.0534,0.0631,0.1691,0.0533,0.0,0.0059,0.1001,0.1568,0.2128,0.4388,0.542,0.5774,0.7165,0.7931,0.8202,0.8143,0.8307,0.8615,0.8847,0.9208,0.9612,0.987,0.9893,1.0007,1.0619,1.0679,1.0615,1.0887,1.1121,1.124,1.1181,1.1625,1.2032,1.1932,1.1995,1.2054,1.2005,1.1647,1.0898,0.9384,0.9891,1.0324,0.9643,0.8858,0.8435,0.8673,0.838,0.7723,0.6584,0.6594,0.0,0.4534,0.5238,0.5351,0.4246,0.4108,0.3032,0.0668,0.2653,0.3845,0.3785,0.5923,0.7075,0.7079,0.7215,0.7343,0.739,0.7668,0.7799,0.7807,0.8024,0.8102,0.8114,0.8256,0.829,0.8307,0.8534,0.8615,0.864,0.8807,0.8975,0.9078,0.9091,0.9095,0.9095,0.1379,0.0735,0.0292,0.0036,0.0038,0.0193,0.0561,0.0866,0.1134,0.1272,0.1644,0.1869,0.1869,0.2172,0.2401,0.2401,0.2367,0.237,0.237,0.2445,0.2633,0.2971,0.3122,0.3419,0.3972,0.4047,0.346,0.2176,0.2175,0.1561,0.0337,0.0102,0.0126,0.0329,0.0105,0.0,0.0094,0.1289,0.1862,0.2192,0.4709,0.5748,0.599,0.7211,0.793,0.83,0.8554,0.8837,0.9069,0.9071,0.9488,0.9996,1.0046,1.039,1.0765,1.0793,1.1004,1.126,1.1356,1.14,1.1545,1.1975,1.2167,1.2285,1.2435,1.2491,1.2385,1.2062,1.1845,1.1495,1.0823,1.0501,1.0316,1.0176,0.8706,0.8121,0.9614,0.718,0.5738,0.7039,0.6917,0.6614,0.6422,0.5408,0.4566,0.4076,0.4221,0.405,0.3424,0.3896,0.4678,0.5688,0.5821,0.645,0.7575,0.7394,0.7343,0.739,0.7668,0.7799,0.7807,0.8024,0.8102,0.8114,0.8256,0.829,0.8307,0.8534,0.8648,0.8676,0.8828,0.8938,0.904,0.9066,0.9095,0.9095,0.0327,0.0,0.0,0.0,0.0,0.008,0.0273,0.0433,0.0706,0.114,0.1363,0.1476,0.1476,0.1855,0.2082,0.2082,0.2272,0.2386,0.2386,0.2386,0.25,0.2689,0.2878,0.3294,0.386,0.4086,0.3624,0.2405,0.2401,0.1583,0.0,0.0,0.0,0.0,0.0,0.0387,0.1081,0.1696,0.2736,0.4137,0.5406,0.6291,0.6971,0.7823,0.8375,0.8758,0.9095,0.9414,0.9726,0.9813,1.0054,1.0355,1.0632,1.0913,1.1158,1.1194,1.145,1.1713,1.1739,1.1949,1.2214,1.2417,1.2604,1.2756,1.298,1.292,1.2836,1.2819,1.2714,1.2472,1.1963,1.1231,1.0369,0.9341,0.8166,0.7343,0.7225,0.5696,0.5267,0.7089,0.706,0.7203,0.7931,0.6569,0.5565,0.5362,0.5329,0.5006,0.423,0.5014,0.5718,0.6187,0.6778,0.7431,0.8123,0.7765,0.7633,0.7817,0.7812,0.7799,0.7807,0.8024,0.8102,0.8114,0.8256,0.829,0.8307,0.8534,0.8656,0.8697,0.8836,0.8926,0.902,0.9062,0.9095,0.9095,0.0,-0.0274,-0.0277,-0.0282,-0.0284,-0.0285,-0.0281,-0.0203,0.0121,0.0845,0.1033,0.1073,0.1073,0.1459,0.1693,0.1693,0.2077,0.2308,0.2308,0.2385,0.2461,0.2461,0.2764,0.3142,0.3638,0.3973,0.3643,0.2692,0.2516,0.168,0.0278,0.0079,0.0131,0.0406,0.0409,0.1172,0.2435,0.2715,0.4017,0.5974,0.6264,0.7022,0.8023,0.8447,0.8866,0.9309,0.9567,0.9948,1.0369,1.0601,1.0644,1.0682,1.1225,1.1406,1.1444,1.1701,1.1916,1.2073,1.2213,1.2529,1.2869,1.2791,1.299,1.326,1.3427,1.3339,1.3324,1.3538,1.3476,1.326,1.2862,1.2076,1.0988,0.9396,0.8395,0.741,0.6302,0.5449,0.5698,0.7731,0.7587,0.778,0.9001,0.797,0.7077,0.666,0.6384,0.5953,0.5319,0.6427,0.6986,0.6774,0.7888,0.8538,0.861,0.8159,0.8049,0.8229,0.8042,0.7888,0.7831,0.8032,0.8114,0.8143,0.8264,0.8315,0.8359,0.8546,0.8648,0.8672,0.8828,0.8913,0.8991,0.9054,0.9095,0.9095,-0.1141,-0.1171,-0.1195,-0.1184,-0.1174,-0.1194,-0.118,-0.0869,-0.0454,0.0039,0.0434,0.0636,0.0636,0.1084,0.1334,0.1334,0.1698,0.1941,0.1941,0.2344,0.2585,0.2585,0.26,0.2984,0.3777,0.3815,0.3795,0.3663,0.2866,0.2048,0.1169,0.0367,0.0603,0.1735,0.1787,0.2509,0.3805,0.5005,0.5747,0.6159,0.7267,0.8094,0.8619,0.8623,0.9117,0.983,0.9794,1.0211,1.0792,1.1197,1.1152,1.1028,1.1498,1.1681,1.183,1.2218,1.2258,1.2287,1.2841,1.3033,1.3118,1.3289,1.3459,1.3562,1.3579,1.3692,1.3772,1.3629,1.3436,1.3326,1.3309,1.304,1.2755,1.2588,1.0605,0.9678,1.126,0.8192,0.696,1.0086,0.9001,0.8414,0.9449,0.9208,0.8347,0.6899,0.6468,0.6925,0.8393,0.8544,0.8602,0.8649,0.8565,0.8652,0.8953,0.8615,0.8382,0.8282,0.8308,0.8165,0.7884,0.8019,0.8147,0.8191,0.825,0.8384,0.8583,0.8599,0.8611,0.8636,0.8803,0.8923,0.8905,0.9034,0.9095,0.9095,-0.1292,-0.1293,-0.1299,-0.1321,-0.131,-0.1305,-0.1284,-0.1158,-0.0902,-0.0483,-0.004,0.0242,0.0242,0.0608,0.0895,0.0895,0.1506,0.1912,0.1912,0.2359,0.2601,0.2601,0.259,0.2988,0.3836,0.386,0.3869,0.3849,0.3001,0.2132,0.1275,0.0418,0.07,0.1987,0.2844,0.3941,0.5188,0.5731,0.6464,0.7338,0.7829,0.8286,0.8733,0.8985,0.9465,1.003,1.0198,1.0572,1.0981,1.1296,1.1459,1.1593,1.1937,1.2241,1.2433,1.2398,1.2707,1.3053,1.3207,1.3409,1.3644,1.3815,1.3923,1.4011,1.4193,1.4312,1.437,1.44,1.4061,1.3798,1.383,1.351,1.2807,1.1471,1.0418,0.9546,0.8814,0.7345,0.7067,0.9063,0.8516,0.8406,0.9483,0.9174,0.8345,0.6958,0.6479,0.62,0.6147,0.6202,0.6664,0.7607,0.768,0.8275,0.9403,0.9094,0.8992,0.9094,0.8639,0.8373,0.8308,0.8148,0.8142,0.8285,0.8379,0.8489,0.8607,0.8607,0.8607,0.8628,0.8803,0.8919,0.8893,0.903,0.9095,0.9095,-0.1913,-0.1891,-0.1846,-0.1686,-0.1692,-0.1672,-0.1717,-0.1578,-0.1397,-0.111,-0.0575,-0.0164,0.0,0.0246,0.0411,0.0411,0.111,0.1604,0.1726,0.2177,0.2505,0.2628,0.262,0.3023,0.3884,0.3911,0.4041,0.4292,0.3397,0.2684,0.2065,0.1335,0.1753,0.3196,0.415,0.5328,0.6575,0.6612,0.7274,0.8273,0.8273,0.8608,0.9156,0.949,0.9903,1.031,1.068,1.1026,1.1264,1.1574,1.1945,1.2348,1.2476,1.2699,1.2917,1.2918,1.3228,1.3603,1.3586,1.3837,1.4121,1.4235,1.4404,1.4579,1.4819,1.4913,1.498,1.4965,1.4628,1.4327,1.4327,1.4002,1.3256,1.1671,1.1277,1.057,0.8816,0.8499,0.8692,0.9399,0.9249,0.9348,0.9975,0.9092,0.7913,0.6559,0.5528,0.4804,0.4462,0.4919,0.5675,0.6753,0.7487,0.8462,0.9703,0.9476,0.9477,0.9621,0.9054,0.8793,0.8843,0.8634,0.8637,0.8727,0.8855,0.8989,0.9009,0.9009,0.892,0.8847,0.9002,0.8986,0.8935,0.9044,0.9074,0.9095,-0.3336,-0.3295,-0.3142,-0.2685,-0.2565,-0.2615,-0.2687,-0.2271,-0.1976,-0.1976,-0.122,-0.0503,-0.0041,0.0,0.0,0.0,0.0421,0.0884,0.1261,0.1765,0.2229,0.2691,0.2621,0.3018,0.389,0.3886,0.4309,0.5199,0.4312,0.3863,0.3851,0.3531,0.4265,0.5848,0.5955,0.6667,0.7896,0.8019,0.8311,0.8696,0.8696,0.924,1.007,1.007,1.032,1.0737,1.1237,1.1564,1.1836,1.2198,1.2735,1.3248,1.3131,1.3006,1.3074,1.3869,1.3854,1.3699,1.4063,1.433,1.4474,1.451,1.4903,1.5285,1.5276,1.5465,1.5498,1.5238,1.504,1.4898,1.4898,1.4729,1.4565,1.4565,1.4101,1.3743,1.3712,1.3138,1.2603,1.228,1.2059,1.1708,1.1123,0.9173,0.7211,0.5552,0.3325,0.284,0.4704,0.6058,0.6796,0.6801,0.8533,0.9546,0.9703,0.9742,0.9747,0.9698,0.9693,0.9565,0.9412,0.9574,0.9668,0.9683,0.9891,0.9986,0.9986,0.9986,0.9718,0.9286,0.9432,0.9251,0.8927,0.8975,0.9065,0.9095,-0.3947,-0.3917,-0.375,-0.3295,-0.3211,-0.3128,-0.2795,-0.2625,-0.241,-0.2109,-0.1807,-0.1376,-0.0557,-0.0212,0.0,0.0,0.0421,0.0884,0.1262,0.1724,0.223,0.2692,0.2683,0.3096,0.3932,0.3959,0.4392,0.5264,0.4406,0.3832,0.3563,0.4403,0.5212,0.5995,0.6996,0.7677,0.8065,0.8386,0.8571,0.8738,0.9031,0.9532,1.0112,1.0112,1.0529,1.1195,1.1362,1.1771,1.2304,1.2388,1.2815,1.3354,1.3618,1.3796,1.3946,1.4059,1.4214,1.4369,1.4521,1.4594,1.4734,1.5141,1.538,1.5545,1.5686,1.5637,1.5532,1.5247,1.5153,1.5059,1.4927,1.4851,1.4757,1.4625,1.4444,1.4224,1.3856,1.3545,1.3103,1.2367,1.2091,1.1696,1.1154,1.0058,0.8824,0.7489,0.5186,0.3174,0.1608,0.3201,0.4523,0.5332,0.7339,0.8832,0.9703,0.9862,1.0028,1.0182,0.9859,0.9611,0.9412,0.9621,0.9711,0.9726,0.9896,0.9986,0.9986,0.9986,0.9897,0.9772,0.9563,0.944,0.9306,0.909,0.9028,0.906,-0.4507,-0.4476,-0.4303,-0.3827,-0.3784,-0.361,-0.3132,-0.3045,-0.2914,-0.2435,-0.2217,-0.1826,-0.1043,-0.0559,-0.0213,0.0,0.0256,0.0682,0.1278,0.1618,0.2045,0.2727,0.2727,0.3061,0.3766,0.3935,0.4376,0.5078,0.4718,0.4571,0.4663,0.5497,0.6211,0.6831,0.772,0.8102,0.8148,0.8563,0.8875,0.909,0.9591,1.0045,1.043,1.0598,1.0984,1.1445,1.1778,1.2179,1.2632,1.2901,1.3333,1.3797,1.4145,1.4431,1.4655,1.4473,1.4567,1.4735,1.4868,1.4979,1.514,1.5587,1.5828,1.5951,1.5992,1.5854,1.5665,1.5498,1.5404,1.5319,1.5196,1.5068,1.4974,1.4842,1.4766,1.4598,1.4276,1.4047,1.3655,1.2988,1.2627,1.2299,1.1891,1.0751,0.9696,0.8841,0.666,0.4421,0.2296,0.319,0.4463,0.6042,0.7815,0.9159,0.9996,0.9998,1.0144,1.0389,1.0191,1.002,0.9913,1.0134,1.0234,1.0244,1.047,1.0565,1.0565,1.0565,1.0431,1.0258,1.0017,0.9753,0.9481,0.9283,0.909,0.9016,-0.5184,-0.501,-0.4836,-0.4355,-0.4268,-0.4096,-0.3619,-0.3531,-0.3355,-0.292,-0.2441,-0.1961,-0.1525,-0.1046,-0.0566,-0.0087,0.0,0.0391,0.1304,0.1391,0.1783,0.2697,0.2784,0.2986,0.3385,0.3853,0.4344,0.4761,0.5227,0.5903,0.6699,0.6744,0.7245,0.8122,0.8122,0.8122,0.821,0.8721,0.9229,0.9711,1.0232,1.064,1.0975,1.143,1.1519,1.154,1.2407,1.2733,1.2921,1.3609,1.4123,1.4551,1.4631,1.49,1.5164,1.5055,1.4892,1.4838,1.5228,1.5512,1.5708,1.5913,1.6247,1.647,1.6261,1.6062,1.5911,1.5901,1.574,1.5608,1.5598,1.5394,1.5219,1.5219,1.5049,1.4927,1.4946,1.4632,1.4304,1.3985,1.3631,1.3336,1.3134,1.1306,1.0028,0.9837,0.781,0.65,0.6256,0.5732,0.636,0.8333,0.961,1.0361,1.0483,1.0197,1.0195,1.04,1.0628,1.0695,1.0701,1.0992,1.1101,1.1118,1.1395,1.1499,1.1499,1.1499,1.1188,1.0743,1.0698,1.0227,0.9594,0.9513,0.9307,0.9038,-0.6219,-0.6139,-0.5828,-0.4984,-0.4806,-0.4675,-0.4188,-0.3785,-0.3518,-0.3429,-0.2986,-0.254,-0.205,-0.1559,-0.1025,-0.0579,-0.0219,0.0261,0.0826,0.1218,0.1652,0.2261,0.2609,0.2997,0.3467,0.394,0.4582,0.5389,0.5865,0.6338,0.6851,0.7284,0.7757,0.8268,0.8268,0.844,0.8826,0.932,0.9764,1.0237,1.0741,1.0999,1.109,1.1464,1.1788,1.2083,1.2522,1.3148,1.3811,1.3982,1.4423,1.4962,1.4998,1.5066,1.5164,1.5055,1.5165,1.5451,1.5685,1.6028,1.6321,1.6526,1.6531,1.647,1.6261,1.6141,1.6091,1.593,1.5854,1.5778,1.5627,1.5551,1.5513,1.5513,1.53,1.5191,1.5418,1.497,1.4557,1.4373,1.4027,1.3671,1.3371,1.2573,1.2155,1.2258,0.9898,0.9119,1.0624,0.8995,0.8128,0.8379,1.0158,1.0926,1.0483,1.0559,1.0599,1.056,1.0666,1.0695,1.0701,1.0992,1.1101,1.1118,1.1395,1.1499,1.1499,1.1499,1.141,1.1277,1.0876,1.058,1.0347,0.9712,0.9453,0.9327,-0.6993,-0.6728,-0.641,-0.5866,-0.5593,-0.5232,-0.4778,-0.4278,-0.3869,-0.3687,-0.3232,-0.2777,-0.2276,-0.173,-0.1275,-0.0774,-0.0268,0.0221,0.0662,0.1147,0.1632,0.2118,0.2604,0.295,0.3155,0.3853,0.4673,0.5602,0.6082,0.6515,0.6902,0.7472,0.7905,0.829,0.8507,0.8766,0.9068,0.9807,1.0261,1.0526,1.1063,1.1362,1.1562,1.1968,1.2295,1.2602,1.2988,1.3548,1.4149,1.4315,1.4751,1.5274,1.5399,1.5562,1.5708,1.5482,1.5496,1.5718,1.6186,1.6453,1.6672,1.688,1.6783,1.6612,1.6618,1.6463,1.6325,1.6292,1.6139,1.6006,1.5901,1.5797,1.5731,1.5731,1.5551,1.5422,1.5579,1.5325,1.5027,1.4753,1.4395,1.4087,1.3793,1.3386,1.318,1.3177,1.1853,1.1376,1.2144,1.1119,1.0378,1.0114,1.1027,1.1403,1.1146,1.0949,1.0896,1.0885,1.076,1.0695,1.0701,1.0992,1.1101,1.1118,1.1395,1.1499,1.1499,1.1499,1.1499,1.1455,1.1188,1.0921,1.0614,0.9962,0.9653,0.944,-0.7625,-0.721,-0.6891,-0.6706,-0.6337,-0.5875,-0.5367,-0.4858,-0.435,-0.3888,-0.3379,-0.2915,-0.236,-0.1852,-0.1343,-0.0926,-0.0365,0.018,0.0585,0.1078,0.1616,0.2066,0.2604,0.2861,0.2836,0.3719,0.467,0.563,0.6155,0.6591,0.6936,0.7552,0.8031,0.8375,0.8852,0.907,0.9204,1.0204,1.0644,1.0781,1.1367,1.1793,1.2086,1.2592,1.2909,1.3063,1.355,1.3909,1.4232,1.4679,1.5092,1.5522,1.5861,1.6161,1.636,1.6205,1.6013,1.6005,1.6633,1.6844,1.6913,1.7039,1.7009,1.6976,1.7092,1.6935,1.6724,1.6751,1.6545,1.6323,1.6223,1.6072,1.5949,1.5949,1.5431,1.5199,1.564,1.532,1.5028,1.5092,1.4783,1.4509,1.4256,1.3887,1.3565,1.3389,1.3325,1.3054,1.2446,1.2408,1.2381,1.2237,1.1958,1.1843,1.1947,1.1396,1.1138,1.1242,1.0937,1.0779,1.0701,1.0992,1.1101,1.1118,1.1395,1.1499,1.1499,1.1499,1.1499,1.1499,1.1499,1.1232,1.0743,1.0298,0.9863,0.9491,-0.8228,-0.7997,-0.7721,-0.6844,-0.6614,-0.6383,-0.5875,-0.5367,-0.4905,-0.435,-0.3888,-0.3425,-0.2915,-0.2037,-0.1482,-0.1389,-0.0554,0.0046,0.0091,0.0902,0.1436,0.1526,0.2425,0.2917,0.2867,0.3805,0.474,0.5669,0.6605,0.7095,0.7184,0.8033,0.8478,0.8566,0.9051,0.9495,0.9894,1.0441,1.0939,1.1383,1.1893,1.2109,1.2258,1.2979,1.3225,1.3193,1.3915,1.4354,1.4679,1.5133,1.5587,1.5999,1.6418,1.6505,1.654,1.7244,1.7273,1.7078,1.6859,1.7035,1.7255,1.7124,1.7347,1.7531,1.738,1.756,1.7646,1.7139,1.6982,1.679,1.6287,1.615,1.6131,1.6131,1.4033,1.3261,1.5747,1.3973,1.3157,1.5255,1.5168,1.4796,1.4468,1.4077,1.3836,1.3789,1.3503,1.3323,1.3398,1.2868,1.2618,1.2766,1.2422,1.2211,1.2243,1.1814,1.1509,1.1374,1.1309,1.107,1.0701,1.0992,1.1101,1.1118,1.1395,1.1499,1.1499,1.1499,1.1499,1.1499,1.1499,1.1455,1.1321,1.0787,1.0307,0.989,-0.884,-0.8411,-0.7942,-0.7283,-0.672,-0.6298,-0.6063,-0.5594,-0.5078,-0.4561,-0.4046,-0.3576,-0.3104,-0.2117,-0.1505,-0.1505,-0.0562,0.0,0.0,0.0918,0.1461,0.1461,0.2361,0.3114,0.3637,0.4307,0.5022,0.5696,0.6726,0.7218,0.7218,0.816,0.8607,0.8652,0.9362,0.9808,1.003,1.0832,1.141,1.1899,1.2121,1.252,1.3002,1.3381,1.3703,1.4032,1.4309,1.4779,1.5256,1.5371,1.5669,1.6089,1.6534,1.6802,1.7043,1.7544,1.7649,1.752,1.7325,1.7348,1.7445,1.7558,1.7728,1.7943,1.8171,1.8195,1.8124,1.7937,1.7752,1.7431,1.6926,1.6747,1.6599,1.642,1.5115,1.464,1.6009,1.5043,1.4605,1.5797,1.5576,1.5221,1.4969,1.4582,1.4299,1.418,1.4006,1.3856,1.3759,1.355,1.3266,1.2915,1.2633,1.2586,1.2675,1.2304,1.2118,1.211,1.1861,1.1653,1.1451,1.16,1.1598,1.15,1.1631,1.1616,1.1499,1.1499,1.1499,1.1499,1.1499,1.1499,1.1455,1.0921,1.0387,0.9951,-0.921,-0.862,-0.805,-0.7667,-0.6859,-0.6241,-0.6098,-0.5625,-0.5149,-0.4671,-0.4149,-0.3624,-0.3148,-0.2145,-0.1478,-0.1478,-0.0568,0.0047,0.0189,0.103,0.1489,0.1482,0.2526,0.3459,0.4324,0.4772,0.5259,0.5696,0.6726,0.7218,0.7218,0.816,0.8652,0.8786,0.9629,1.0075,1.0209,1.1099,1.1766,1.221,1.2299,1.2875,1.3591,1.3723,1.4204,1.48,1.4715,1.5145,1.5706,1.5614,1.5866,1.6246,1.6698,1.715,1.7574,1.7877,1.7885,1.7851,1.7718,1.7653,1.7674,1.7921,1.8139,1.8403,1.888,1.8829,1.8692,1.8675,1.8414,1.8073,1.761,1.7325,1.7073,1.6774,1.5973,1.5613,1.6249,1.581,1.5649,1.6285,1.5963,1.5624,1.5386,1.5031,1.4689,1.4424,1.4395,1.43,1.4087,1.4101,1.3756,1.303,1.2805,1.2807,1.3003,1.2774,1.2673,1.2692,1.2401,1.2193,1.2116,1.2167,1.2095,1.1968,1.2048,1.2,1.181,1.181,1.1766,1.1677,1.1677,1.1588,1.1455,1.1054,1.0565,1.0119,-0.921,-0.8711,-0.8237,-0.7667,-0.7195,-0.6672,-0.6193,-0.5625,-0.5149,-0.4671,-0.4149,-0.3624,-0.3148,-0.2145,-0.1478,-0.1478,-0.0572,0.0191,0.0714,0.1237,0.151,0.1483,0.2867,0.3864,0.4371,0.4869,0.5298,0.5696,0.6726,0.7218,0.7218,0.816,0.8831,0.9273,0.9763,1.0253,1.0698,1.1277,1.1766,1.2254,1.2654,1.3141,1.3635,1.4078,1.4467,1.4858,1.5227,1.5491,1.5771,1.6125,1.6419,1.6739,1.7199,1.7641,1.8051,1.8491,1.8484,1.826,1.7832,1.7951,1.8203,1.8036,1.8557,1.9125,1.918,1.9483,1.9596,1.899,1.8863,1.8653,1.8053,1.7626,1.736,1.736,1.4913,1.3901,1.6397,1.4614,1.3982,1.647,1.6388,1.5984,1.5606,1.5274,1.4868,1.4432,1.4395,1.4468,1.4638,1.4285,1.3862,1.328,1.2915,1.2807,1.3003,1.3098,1.3001,1.2692,1.265,1.2443,1.2116,1.2167,1.2301,1.2472,1.2569,1.2703,1.2787,1.2787,1.252,1.2165,1.2165,1.1899,1.1499,1.1455,1.1099,1.0565,-0.9218,-0.862,-0.8098,-0.7667,-0.6954,-0.6336,-0.6146,-0.5625,-0.5149,-0.4671,-0.4149,-0.3481,-0.2671,-0.1955,-0.1383,-0.1097,-0.0429,0.0239,0.0763,0.124,0.18,0.2385,0.355,0.4263,0.4377,0.5149,0.5756,0.6186,0.686,0.7352,0.7665,0.8295,0.8831,0.9322,0.9808,1.0253,1.0743,1.1588,1.221,1.2698,1.3141,1.3635,1.4078,1.4557,1.5007,1.5381,1.5713,1.6074,1.6361,1.6339,1.6551,1.6933,1.7275,1.7682,1.8092,1.8551,1.8657,1.8534,1.8231,1.8336,1.8534,1.8549,1.8988,1.9493,1.9611,1.9768,1.9822,1.9575,1.9516,1.9345,1.8849,1.8529,1.8168,1.7659,1.6499,1.5912,1.6683,1.5902,1.5665,1.6683,1.6655,1.6444,1.6201,1.5799,1.5477,1.5173,1.4916,1.4789,1.4862,1.4489,1.4214,1.4093,1.3566,1.3215,1.3132,1.3282,1.326,1.3106,1.3106,1.3065,1.2906,1.2916,1.2939,1.2852,1.2909,1.2935,1.292,1.292,1.2787,1.2609,1.2299,1.2077,1.1899,1.1632,1.1143,1.0609,-0.9068,-0.8401,-0.7813,-0.7433,-0.6669,-0.6051,-0.586,-0.5432,-0.4911,-0.4434,-0.391,-0.3243,-0.2384,-0.1812,-0.1335,-0.0858,-0.0143,0.0477,0.1001,0.1621,0.2376,0.3211,0.4046,0.4566,0.4626,0.5386,0.6027,0.6499,0.695,0.7442,0.7929,0.8514,0.9054,0.9545,1.003,1.0476,1.101,1.1855,1.2476,1.292,1.3413,1.3901,1.4343,1.4822,1.5308,1.5734,1.6094,1.6459,1.676,1.6622,1.6852,1.7235,1.7498,1.7887,1.8296,1.8592,1.8714,1.8686,1.8696,1.8904,1.9085,1.9022,1.9404,1.9811,1.9967,1.9946,1.9881,1.9881,1.9881,1.9806,1.9466,1.9178,1.8775,1.8073,1.7758,1.7437,1.7038,1.7001,1.7001,1.7001,1.7001,1.6871,1.6634,1.6228,1.5864,1.5612,1.5237,1.5006,1.5006,1.4793,1.4633,1.4648,1.4301,1.386,1.3493,1.3432,1.3403,1.3403,1.3403,1.3403,1.3403,1.3403,1.335,1.3324,1.3324,1.332,1.3325,1.3325,1.323,1.3097,1.2787,1.2476,1.2165,1.1855,1.141,1.0876,-0.8614,-0.8005,-0.7429,-0.7005,-0.6431,-0.5908,-0.5387,-0.4909,-0.4385,-0.3863,-0.3386,-0.2909,-0.2336,-0.1812,-0.1287,-0.0858,0.0191,0.1001,0.1478,0.2527,0.3338,0.3769,0.4249,0.4719,0.5182,0.5587,0.6027,0.6499,0.6994,0.7442,0.7929,0.8871,0.954,1.003,1.0476,1.101,1.1543,1.1988,1.2476,1.2964,1.3413,1.3901,1.4343,1.4822,1.5308,1.5749,1.6225,1.6562,1.6828,1.7102,1.7382,1.7651,1.7909,1.8337,1.8714,1.8714,1.8714,1.8796,1.9194,1.9642,1.9897,1.9411,1.9761,2.0221,2.0221,2.0065,1.9892,1.9892,1.9881,1.9881,1.9881,1.9504,1.905,1.8681,1.8263,1.7873,1.7464,1.7388,1.7388,1.7388,1.7388,1.7235,1.6844,1.6433,1.605,1.562,1.5237,1.5006,1.5006,1.5139,1.5081,1.4827,1.5006,1.4768,1.4108,1.3652,1.3403,1.3403,1.3403,1.3403,1.3403,1.3403,1.3559,1.3795,1.3795,1.3971,1.4299,1.4299,1.4033,1.3591,1.3591,1.3008,1.221,1.221,1.1899,1.141,-0.8614,-0.8005,-0.7429,-0.7005,-0.6431,-0.5908,-0.5387,-0.4909,-0.4385,-0.3863,-0.3052,-0.2336,-0.1812,-0.1287,-0.0811,-0.0286,0.0381,0.1144,0.2002,0.3005,0.3815,0.4337,0.4438,0.4719,0.5182,0.5907,0.6525,0.6994,0.7442,0.7933,0.8384,0.9009,0.954,1.003,1.0476,1.1188,1.2032,1.2476,1.2964,1.3407,1.3901,1.438,1.4822,1.5308,1.5793,1.6269,1.6709,1.694,1.705,1.7337,1.7579,1.7869,1.8366,1.8592,1.8714,1.8714,1.8714,1.8796,1.9194,1.9642,2.0018,2.0002,2.0353,2.0651,2.049,2.0274,2.0102,2.0102,2.0011,1.9881,1.9881,1.9768,1.9428,1.8719,1.8491,1.8187,1.7502,1.7388,1.7388,1.7388,1.7388,1.735,1.7235,1.6844,1.6471,1.605,1.539,1.5025,1.5147,1.5173,1.5303,1.5481,1.523,1.5054,1.501,1.4273,1.3735,1.3403,1.3403,1.3403,1.3403,1.3403,1.3559,1.3795,1.3795,1.3971,1.4299,1.4299,1.421,1.4078,1.3723,1.323,1.2654,1.2299,1.1899,1.141,-0.8417,-0.7886,-0.7382,-0.6719,-0.6146,-0.5622,-0.5099,-0.4623,-0.4101,-0.3577,-0.2814,-0.2098,-0.1573,-0.1097,-0.0477,0.0239,0.0954,0.1764,0.2574,0.3338,0.4053,0.4575,0.4702,0.4981,0.5459,0.6155,0.6722,0.7218,0.7665,0.8246,0.8875,0.9362,0.9808,1.0298,1.0787,1.1455,1.221,1.2698,1.3186,1.3679,1.4292,1.4734,1.508,1.5749,1.6137,1.6445,1.6928,1.72,1.7438,1.7681,1.8093,1.8515,1.8735,1.8837,1.8818,1.8743,1.8714,1.8837,1.9439,1.9764,2.0099,2.0571,2.0815,2.0867,2.0727,2.0522,2.035,2.035,2.027,2.014,2.0043,2.0032,1.9772,1.8957,1.8681,1.8377,1.7731,1.7502,1.7388,1.7388,1.7388,1.7388,1.7388,1.7035,1.6613,1.6125,1.5623,1.5349,1.5342,1.5375,1.5545,1.5804,1.556,1.5443,1.5381,1.4893,1.4315,1.3652,1.3486,1.3403,1.3403,1.3403,1.3532,1.3714,1.3774,1.398,1.4217,1.4278,1.4299,1.4255,1.3989,1.3591,1.3097,1.2654,1.2165,1.1721,-0.8092,-0.7732,-0.7249,-0.6288,-0.5673,-0.5149,-0.4671,-0.4149,-0.3624,-0.31,-0.2574,-0.205,-0.1478,-0.1001,-0.0334,0.0715,0.1716,0.2527,0.3148,0.3624,0.4099,0.4617,0.5048,0.5457,0.5962,0.6341,0.6812,0.7263,0.7754,0.8425,0.9322,0.9763,1.0253,1.0743,1.1321,1.181,1.2299,1.2742,1.323,1.3723,1.4646,1.5036,1.5168,1.6049,1.6445,1.6533,1.6928,1.7375,1.7841,1.8156,1.8742,1.9288,1.907,1.8995,1.8938,1.8799,1.8733,1.8959,1.9764,2.0049,2.0252,2.1073,2.1103,2.0942,2.0942,2.0798,2.0637,2.0637,2.0615,2.0539,2.0285,2.0242,2.0013,1.9381,1.8932,1.8513,1.8122,1.7702,1.7444,1.7444,1.7444,1.7444,1.7444,1.7091,1.6587,1.6004,1.5934,1.5822,1.5528,1.5691,1.5821,1.5837,1.5959,1.5842,1.5463,1.5422,1.4968,1.4149,1.3694,1.3445,1.3445,1.3403,1.3485,1.3592,1.3734,1.3926,1.4125,1.4238,1.4299,1.4299,1.4299,1.3989,1.3546,1.3053,1.2609,1.2121,-0.8008,-0.7485,-0.6923,-0.6202,-0.5673,-0.5149,-0.4671,-0.4149,-0.3481,-0.2574,-0.2002,-0.1478,-0.1001,-0.0477,0.0095,0.0763,0.1716,0.267,0.3577,0.4149,0.4608,0.5042,0.5494,0.5945,0.6352,0.6813,0.7263,0.7754,0.8201,0.8741,0.9322,0.9763,1.0253,1.0743,1.1632,1.2299,1.2787,1.323,1.3723,1.421,1.4778,1.5219,1.5616,1.6181,1.6621,1.698,1.7068,1.7375,1.7885,1.8511,1.91,1.9495,1.9297,1.9108,1.9008,1.896,1.9043,1.9276,1.9845,2.0211,2.0587,2.1154,2.1284,2.12,2.12,2.1007,2.0834,2.0834,2.0723,2.0583,2.0539,2.0529,2.0351,1.992,1.9431,1.8993,1.8612,1.8143,1.7878,1.7878,1.7878,1.7878,1.7878,1.7516,1.7102,1.6643,1.6327,1.6006,1.5747,1.5796,1.5837,1.5942,1.5983,1.5966,1.5883,1.5546,1.5133,1.4548,1.4149,1.3942,1.3942,1.3569,1.3485,1.3592,1.3734,1.3926,1.4125,1.4238,1.4299,1.4299,1.4299,1.3989,1.3546,1.3053,1.2609,1.2077,-0.8011,-0.7401,-0.6797,-0.6204,-0.548,-0.4861,-0.4623,-0.3958,-0.3195,-0.2384,-0.1812,-0.1335,-0.0858,-0.0334,0.0286,0.1049,0.2098,0.3005,0.3767,0.4291,0.4792,0.5169,0.5629,0.6216,0.6877,0.7079,0.7442,0.7885,0.8603,0.9188,0.9629,1.0119,1.0609,1.1099,1.1855,1.2476,1.292,1.3413,1.3982,1.4646,1.5131,1.5616,1.6093,1.6577,1.6884,1.7112,1.7332,1.7858,1.8541,1.9182,1.9535,1.9713,1.9505,1.9363,1.925,1.9155,1.9308,1.9545,2.0006,2.0385,2.0709,2.1195,2.1316,2.1316,2.1316,2.1179,2.1082,2.1082,2.1025,2.0906,2.0788,2.0727,2.0655,2.0352,1.9732,1.9212,1.9025,1.8444,1.801,1.801,1.801,1.801,1.801,1.7803,1.7573,1.7235,1.6835,1.6472,1.6252,1.6024,1.5951,1.5999,1.6007,1.6007,1.6007,1.5793,1.5546,1.5298,1.4679,1.439,1.439,1.4142,1.3943,1.3867,1.3971,1.3988,1.3973,1.4129,1.4231,1.4299,1.4299,1.4166,1.3901,1.3413,1.2787,1.2077,-0.8011,-0.7359,-0.6716,-0.6207,-0.5289,-0.4623,-0.4623,-0.3766,-0.2862,-0.2241,-0.1764,-0.1287,-0.0715,-0.0095,0.0572,0.143,0.2479,0.3338,0.391,0.4331,0.4781,0.5296,0.566,0.6339,0.7269,0.7207,0.7486,0.8023,0.8871,0.9545,1.003,1.0476,1.101,1.1499,1.2077,1.252,1.292,1.3502,1.4204,1.5036,1.5528,1.5969,1.6445,1.6936,1.7112,1.7156,1.7559,1.8296,1.9161,1.9703,1.9921,1.9892,1.9713,1.9628,1.9562,1.9401,1.9487,1.9761,2.0197,2.0467,2.0761,2.1205,2.1316,2.1316,2.1316,2.1316,2.1316,2.1316,2.1316,2.1211,2.1007,2.0963,2.0899,2.0755,2.0043,1.949,1.9451,1.8739,1.8193,1.8114,1.8114,1.8114,1.8114,1.8114,1.803,1.7755,1.74,1.7016,1.6731,1.6328,1.6089,1.6007,1.6007,1.6007,1.6007,1.6007,1.6007,1.6007,1.5257,1.4878,1.4837,1.4754,1.4514,1.4198,1.4348,1.4196,1.3903,1.4096,1.421,1.4265,1.4265,1.4278,1.4255,1.3742,1.2977,1.2131,-0.7924,-0.7104,-0.6329,-0.6117,-0.5289,-0.4623,-0.4623,-0.3766,-0.2719,-0.1716,-0.1526,-0.1144,-0.0191,0.0716,0.1335,0.1478,0.2479,0.3481,0.4432,0.4491,0.4919,0.5752,0.5832,0.6268,0.719,0.7225,0.7624,0.8518,0.9054,0.9545,1.003,1.0476,1.101,1.1543,1.2387,1.2831,1.2964,1.3812,1.4513,1.5036,1.5528,1.5969,1.6445,1.6936,1.7112,1.7112,1.7156,1.7814,1.8733,1.9616,1.9921,1.9911,1.9883,1.9751,1.959,1.9562,1.9707,1.9916,2.0237,2.057,2.0909,2.1248,2.1316,2.1316,2.1316,2.1316,2.1316,2.1316,2.1316,2.1305,2.1233,2.1262,2.1262,2.123,2.0776,2.0291,1.9957,1.9431,1.8995,1.8629,1.8588,1.8588,1.8588,1.8588,1.8435,1.8005,1.7883,1.7524,1.6731,1.6657,1.641,1.6007,1.6007,1.6007,1.6007,1.6007,1.6007,1.6007,1.5883,1.5628,1.5298,1.4878,1.4672,1.4645,1.4767,1.4596,1.4252,1.4408,1.4312,1.4146,1.4146,1.4183,1.4241,1.3624,1.2829,1.1981,-0.7927,-0.7015,-0.624,-0.6117,-0.5289,-0.4623,-0.4623,-0.3766,-0.2814,-0.205,-0.1669,-0.124,-0.0525,0.0715,0.1478,0.1478,0.2479,0.3378,0.4115,0.4377,0.4801,0.5416,0.5662,0.6257,0.7177,0.7218,0.7669,0.8607,0.9322,0.9808,1.003,1.0787,1.1277,1.1543,1.2476,1.292,1.2964,1.3901,1.4557,1.5036,1.5528,1.5969,1.6445,1.6936,1.7112,1.7156,1.7682,1.8339,1.8995,1.9659,1.9921,1.9921,1.9921,1.9855,1.9779,1.9779,1.9928,2.0161,2.0274,2.05,2.0807,2.1032,2.1061,2.1111,2.1267,2.1316,2.1316,2.1316,2.1316,2.1316,2.1316,2.1316,2.1316,2.1316,2.0709,2.0211,2.0008,1.9398,1.8918,1.8714,1.8714,1.8714,1.8714,1.8714,1.8592,1.8428,1.8133,1.7846,1.7437,1.6936,1.6616,1.641,1.6122,1.6007,1.6007,1.6007,1.6007,1.6007,1.6007,1.5925,1.5719,1.5505,1.5298,1.5092,1.5169,1.4961,1.463,1.4703,1.4579,1.4334,1.4334,1.4203,1.3947,1.3448,1.299,1.2551]},{"header":{"parameterUnit":"m.s-1","parameterCategory":1,"la1":30.6,"la2":28.766,"lo1":-90.7593,"lo2":-88.6598,"dy":0.0162,"dx":0.0183,"nx":116,"ny":114,"refTime":"2024-06-20T12:00:00:Z","depth":0,"parameterNumber":3,"parameterNumberName":"V-component_of_WINDS"},"data":[0.0,0.0,0.0,0.0,0.0,0.0,0.0,0.0,0.0,0.0,0.0,0.0,0.0,0.0,0.0,0.0,0.0,0.0,0.0,0.0,0.0,0.0,0.0,0.0,0.0,0.0,0.0,0.0,0.0,0.0,0.0,0.0,0.0,0.0,0.0,0.0,0.0,0.0,0.0,0.0,0.0,0.0,0.0,0.0,0.0,0.0,0.0,0.0,0.0,0.0,0.0,0.0,0.0,0.0,0.0,0.0,0.0,0.0,0.0,0.0,0.0,0.0,0.0,0.0,0.0,0.0,0.0,0.0,0.0,0.0,0.0,0.0,0.0,0.0,0.0,0.0,0.0,0.0,0.0,0.0,0.0,0.0,0.0,0.0,0.0,0.0,0.0,0.0,0.0,0.0,0.0,0.0,0.0,0.0,0.0,0.0,0.0,0.0,0.0,0.0,0.0,0.0,0.0,0.0,0.0,0.0,0.0,0.0,0.0,0.0,0.0,0.0,0.0,0.0,0.0,0.0,0.0,0.0,0.0,0.0,0.0,0.0,0.0,0.0,0.0,0.0,0.0,0.0,0.0,0.0,0.0,0.0,0.0,0.0,0.0,0.0,0.0,0.0,0.0,0.0,0.0,0.0,0.0,0.0,0.0,0.0,0.0,0.0,0.0,0.0,0.0,0.0,0.0,0.0,0.0,0.0,0.0,0.0,0.0,0.0,0.0,0.0,0.0,0.0,0.0,0.0,0.0,0.0,0.0,0.0,0.0,0.0,0.0,0.0,0.0,0.0,0.0,0.0,0.0,0.0,0.0,0.0,0.0,0.0,0.0,0.0,0.0,0.0,0.0,0.0,0.0,0.0,0.0,0.0,0.0,0.0,0.0,0.0,0.0,0.0,0.0,0.0,0.0,0.0,0.0,0.0,0.0,0.0,0.0,0.0,0.0,0.0,0.0,0.0,0.0,0.0,0.0,0.0,0.0,0.0,0.0,0.0,0.0,0.0,0.0,0.0,0.0,0.0,0.0,0.0,0.0,0.0,0.0,0.0,0.0,0.0,0.0,0.0,0.0,0.0,0.0,0.0,0.0,0.0,0.0,0.0,0.0,0.0,0.0,0.0,0.0,0.0,0.0,0.0,0.0,0.0,0.0,0.0,0.0,0.0,0.0,0.0,0.0,0.0,0.0,0.0,0.0,0.0,0.0,0.0,0.0,0.0,0.0,0.0,0.0,0.0,0.0,0.0,0.0,0.0,0.0,0.0,0.0,0.0,0.0,0.0,0.0,0.0,0.0,0.0,0.0,0.0,0.0,0.0,0.0,0.0,0.0,0.0,0.0,0.0,0.0,0.0,0.0,0.0,0.0,0.0,0.0,0.0,0.0,0.0,0.0,0.0,0.0,0.0,0.0,0.0,0.0,0.0,0.0,0.0,0.0,0.0,0.0,0.0,0.0,0.0,0.0,0.0,0.0,0.0,0.0,0.0,0.0,0.0,0.0,0.0,0.0,0.0,0.0,0.0,0.0,0.0,0.0,0.0,0.0,0.0,0.0,0.0,0.0,0.0,0.0,0.0,0.0,0.0,0.0,0.0,0.0,0.0,0.0,0.0,0.0,0.0,0.0,0.0,0.0,0.0,0.0,0.0,0.0,0.0,0.0,0.0,0.0,0.0,0.0,0.0,0.0,0.0,0.0,0.0,0.0,0.0,0.0,0.0,0.0,0.0,0.0,0.0,0.0,0.0,0.0,0.0,0.0,0.0,0.0,0.0,0.0,0.0,0.0,0.0,0.0,0.0,0.0,0.0,0.0,0.0,0.0,0.0,0.0,0.0,0.0,0.0,0.0,0.0,0.0,0.0,0.0,0.0,0.0,0.0,0.0,0.0,0.0,0.0,0.0,0.0,0.0,0.0,0.0,0.0,0.0,0.0,0.0,0.0,0.0,0.0,0.0,0.0,0.0,0.0,0.0,0.0,0.0,0.0,0.0,0.0,0.0,0.0,0.0,0.0,0.0,0.0,0.0,0.0,0.0,0.0,0.0,0.0,0.0,0.0,0.0,0.0,0.0,0.0,0.0,0.0,0.0,0.0,0.0,0.0,0.0,0.0,0.0,0.0,0.0,0.0,0.0,0.0,0.0,0.0,0.0,0.0,0.0,0.0,0.0,0.0,0.0,0.0,0.0,0.0,0.0,0.0,0.0,0.0,0.0,0.0,0.0,0.0,0.0,0.0,0.0,0.0,0.0,0.0,0.0,0.0,0.0,0.0,0.0,0.0,0.0,0.0,0.0,0.0,0.0,0.0,0.0,0.0,0.0,0.0,0.0,0.0,0.0,0.0,0.0,0.0,0.0,0.0,0.0,0.0,0.0,0.0,0.0,0.0,0.0,0.0,0.0,0.0,0.0,0.0,0.0,0.0,0.0,0.0,0.0,0.0,0.0,0.0,0.0,0.0,0.0,0.0,0.0,0.0,0.0,0.0,0.0,0.0,0.0,0.0,0.0,0.0,0.0,0.0,0.0,0.0,0.0,0.0,0.0,0.0,0.0,0.0,0.0,0.0,0.0,0.0,0.0,0.0,0.0,0.0,0.0,0.0,0.0,0.0,0.0,0.0,0.0,0.0,0.0,0.0,0.0,0.0,0.0,0.0,0.0,0.0,0.0,0.0,0.0,0.0,0.0,0.0,0.0,0.0,0.0,0.0,0.0,0.0,0.0,0.0,0.0,0.0,0.0,0.0,0.0,0.0,0.0,0.0,0.0,0.0,0.0,0.0,0.0,0.0,0.0,0.0,0.0,0.0,0.0,0.0,0.0,0.0,0.0,0.0,0.0,0.0,0.0,0.0,0.0,0.0,0.0,0.0,0.0,0.0,0.0,0.0,0.0,0.0,0.0,0.0,0.0,0.0,0.0,0.0,0.0,0.0,0.0,0.0,0.0,0.0,0.0,0.0,0.0,0.0,0.0,0.0,0.0,0.0,0.0,0.0,0.0,0.0,0.0,0.0,0.0,0.0,0.0,0.0,0.0,0.0,0.0,0.0,0.0,0.0,0.0,0.0,0.0,0.0,0.0,0.0,0.0,0.0,0.0,0.0,0.0,0.0,0.0,0.0,0.0,0.0,0.0,0.0,0.0,0.0,0.0,0.0,0.0,0.0,0.0,0.0,0.0,0.0,0.0,0.0,0.0,0.0,0.0,0.0,0.0,0.0,0.0,0.0,0.0,0.0,0.0,0.0,0.0,0.0,0.0,0.0,0.0,0.0,0.0,0.0,0.0,0.0,0.0,0.0,0.0,0.0,0.0,0.0,0.0,0.0,0.0,0.0,0.0,0.0,0.0,0.0,0.0,0.0,0.0,0.0,0.0,0.0,0.0,0.0,0.0,0.0,0.0,0.0,0.0,0.0,0.0,0.0,0.0,0.0,0.0,0.0,0.0,0.0,0.0,0.0,0.0,0.0,0.0,0.0,0.0,0.0,0.0,0.0,0.0,0.0,0.0,0.0,0.0,0.0,0.0,0.0,0.0,0.0,0.0,0.0,0.0,0.0,0.0,0.0,0.0,0.0,0.0,0.0,0.0,0.0,0.0,0.0,0.0,0.0,0.0,0.0,0.0,0.0,0.0,0.0,0.0,0.0,0.0,0.0,0.0,0.0,0.0,0.0,0.0,0.0,0.0,0.0,0.0,0.0,0.0,0.0,0.0,0.0,0.0,0.0,0.0,0.0,0.0,0.0,0.0,0.0,0.0,0.0,0.0,0.0,0.0,0.0,0.0,0.0,0.0,0.0,0.0,0.0,0.0,0.0,0.0,0.0,0.0,0.0,0.0,0.0,0.0,0.0,0.0,0.0,0.0,0.0,0.0,0.0,0.0,0.0,0.0,0.0,0.0,0.0,0.0,0.0,0.0,0.0,0.0,0.0,0.0,0.0,0.0,0.0,0.0,0.0,0.0,0.0,0.0,0.0,0.0,0.0,0.0,0.0,0.0,0.0,0.0,0.0,0.0,0.0,0.0,0.0,0.0,0.0,0.0,0.0,0.0,0.0,0.0,0.0,0.0,0.0,0.0,0.0,0.0,0.0,0.0,0.0,0.0,0.0,0.0,0.0,0.0,0.0,0.0,0.0,0.0,0.0,0.0,0.0,0.0,0.0,0.0,0.0,0.0,0.0,0.0,0.0,0.0,0.0,0.0,0.0,0.0,0.0,0.0,0.0,0.0,0.0,0.0,0.0,0.0,0.0,0.0,0.0,0.0,0.0,0.0,0.0,0.0,0.0,0.0,0.0,0.0,0.0,0.0,0.0,0.0,0.0,0.0,0.0,0.0,0.0,0.0,0.0,0.0,0.0,0.0,0.0,0.0,0.0,0.0,0.0,0.0,0.0,0.0,0.0,0.0,0.0,0.0,0.0,0.0,0.0,0.0,0.0,0.0,0.0,0.0,0.0,0.0,0.0,0.0,0.0,0.0,0.0,0.0,0.0,0.0,0.0,0.0,0.0,0.0,0.0,0.0,0.0,0.0,0.0,0.0,0.0,0.0,0.0,0.0,0.0,0.0,0.0,0.0,0.0,0.0,0.0,0.0,0.0,0.0,0.0,0.0,0.0,0.0,0.0,0.0,0.0,0.0,0.0,0.0,0.0,0.0,0.0,0.0,0.0,0.0,0.0,0.0,0.0,0.0,0.0,0.0,0.0,0.0,0.0,0.0,0.0,0.0,0.0,0.0,0.0,0.0,0.0,0.0,0.0,0.0,0.0,0.0,0.0,0.0,0.0,0.0,0.0,0.0,0.0,0.0,0.0,0.0,0.0,0.0,0.0,0.0,0.0,0.0,0.0,0.0,0.0,0.0,0.0,0.0,0.0,0.0,0.0,0.0,0.0,0.0,0.0,0.0,0.0,0.0,0.0,0.0,0.0,0.0,0.0,0.0,0.0,0.0,0.0,0.0,0.0,0.0,0.0,0.0,0.0,0.0,0.0,0.0,0.0,0.0,0.0,0.0,0.0,0.0,0.0,0.0,0.0,0.0,0.0,0.0,0.0,0.0,0.0,0.0,0.0,0.0,0.0,0.0,0.0,0.0,0.0,0.0,0.0,0.0,0.0,0.0,0.0,0.0,0.0,0.0,0.0,0.0,0.0,0.0,0.0,0.0,0.0,0.0,0.0,0.0,0.0,0.0,0.0,0.0,0.0,0.0,0.0,0.0,0.0,0.0,0.0,0.0,0.0,0.0,0.0,0.0,0.0,0.0,0.0,0.0,0.0,0.0,0.0,0.0,0.0,0.0,0.0,0.0,0.0,0.0,0.0,0.0,0.0,0.0,0.0,0.0,0.0,0.0,0.0,0.0,0.0,0.0,0.0,0.0,0.0,0.0,0.0,0.0,0.0,0.0,0.0,0.0,0.0,0.0,0.0,0.0,0.0,0.0,0.0,0.0,0.0,0.0,0.0,0.0,0.0,0.0,0.0,0.0,0.0,0.0,0.0,0.0,0.0,0.0,0.0,0.0,0.0,0.0,0.0,0.0,0.0,0.0,0.0,0.0,0.0,0.0,0.0,0.0,0.0,0.0,0.0,0.0,0.0,0.0,0.0,0.0,0.0,0.0,0.0,0.0,0.0,0.0,0.0,0.0,0.0,0.0,0.0,0.0,0.0,0.0,0.0,0.0,0.0,0.0,0.0,0.0,0.0,0.0,0.0,0.0,0.0,0.0,0.0,0.0,0.0,0.0,0.0,0.0,0.0,0.0,0.0,0.0,0.0,0.0,0.0,0.0,0.0,0.0,0.0,0.0,0.0,0.0,0.0,0.0,0.0,0.0,0.0,0.0,0.0,0.0,0.0,0.0,0.0,0.0,0.0,0.0,0.0,0.0,0.0,0.0,0.0,0.0,0.0,0.0,0.0,0.0,0.0,0.0,0.0,0.0,0.0,0.0,0.0,0.0,0.0,0.0,0.0,0.0,0.0,0.0,0.0,0.0,0.0,0.0,0.0,0.0,0.0,0.0,0.0,0.0,0.0,0.0,0.0,0.0,0.0,0.0,0.0,0.0,0.0,0.0,0.0,0.0,0.0,0.0,0.0,0.0,0.0,0.0,0.0,0.0,0.0,0.0,0.0,0.0,0.0,0.0,0.0,0.0,0.0,2.5717,2.5415,0.0,0.0,0.0,0.0,0.0,0.0,0.0,0.0,0.0,0.0,0.0,0.0,0.0,0.0,0.0,0.0,0.0,0.0,0.0,0.0,0.0,0.0,0.0,2.0122,2.0906,2.1651,2.1718,2.1887,2.2286,2.2313,2.2117,2.1752,2.1718,2.1387,2.0595,2.0562,2.0764,2.1096,2.1501,2.244,2.3876,2.3611,2.2141,1.9725,0.0,0.0,0.0,0.0,0.0,0.0,0.0,0.0,0.0,0.0,0.0,0.0,0.0,0.0,0.0,0.0,0.0,0.0,0.0,0.0,0.0,0.0,0.0,0.0,0.0,0.0,0.0,0.0,0.0,0.0,0.0,0.0,0.0,0.0,0.0,0.0,0.0,0.0,0.0,0.0,0.0,0.0,0.0,0.0,0.0,0.0,0.0,0.0,0.0,0.0,0.0,0.0,0.0,0.0,0.0,0.0,0.0,0.0,0.0,0.0,0.0,0.0,0.0,0.0,0.0,0.0,0.0,0.0,0.0,0.0,2.8014,2.7803,0.0,0.0,0.0,0.0,0.0,0.0,0.0,0.0,0.0,0.0,0.0,0.0,0.0,0.0,0.0,0.0,0.0,0.0,0.0,0.0,0.0,1.9378,2.0116,2.0913,2.1691,2.2422,2.2381,2.2347,2.2489,2.2381,2.2313,2.2313,2.2313,2.2016,2.1393,2.1529,2.2133,2.3238,2.4933,2.6993,2.9425,2.9785,2.7435,2.2897,2.2736,0.0,0.0,0.0,0.0,0.0,0.0,0.0,0.0,0.0,0.0,0.0,0.0,0.0,0.0,0.0,0.0,0.0,0.0,0.0,0.0,0.0,0.0,0.0,0.0,0.0,0.0,0.0,0.0,0.0,0.0,0.0,0.0,0.0,0.0,0.0,0.0,0.0,0.0,0.0,0.0,0.0,0.0,0.0,0.0,0.0,0.0,0.0,0.0,0.0,0.0,0.0,0.0,0.0,0.0,0.0,0.0,0.0,0.0,0.0,0.0,0.0,0.0,0.0,3.1554,3.194,3.2788,3.2956,3.3258,3.35,3.0337,3.0394,3.2489,2.9385,0.0,0.0,0.0,0.0,0.0,0.0,0.0,0.0,0.0,0.0,0.0,0.0,0.0,0.0,0.0,0.0,0.0,0.0,0.0,2.0156,2.0947,2.1718,2.2455,2.3207,2.2658,2.2557,2.3207,2.2665,2.2313,2.2313,2.2313,2.2252,2.2151,2.2767,2.4393,2.6999,3.0232,3.2165,3.2781,3.3111,3.2862,3.2017,2.9445,2.7951,2.7249,0.0,0.0,0.0,0.0,0.0,0.0,0.0,0.0,0.0,0.0,0.0,0.0,0.0,0.0,0.0,0.0,0.0,0.0,0.0,0.0,0.0,0.0,0.0,0.0,0.0,0.0,0.0,0.0,0.0,0.0,0.0,0.0,0.0,0.0,0.0,0.0,0.0,0.0,0.0,0.0,0.0,2.8139,3.0152,0.0,0.0,0.0,0.0,0.0,0.0,0.0,0.0,0.0,0.0,0.0,0.0,0.0,3.4059,3.4241,3.5149,3.5621,3.563,3.5297,3.5094,3.5074,3.5086,3.4952,3.4677,3.4169,0.0,3.3155,3.1544,0.0,0.0,0.0,0.0,0.0,0.0,0.0,0.0,0.0,0.0,0.0,0.0,0.0,0.0,0.0,0.0,0.0,0.0,0.0,0.0,0.0,2.3605,2.508,2.5826,2.7153,2.737,2.5959,2.561,2.4691,2.2992,2.2523,2.2482,2.2902,2.4052,2.7029,3.1908,3.5019,3.6938,3.7742,3.7831,3.7817,3.7662,3.6254,3.3569,2.9992,2.8491,0.0,0.0,0.0,0.0,0.0,0.0,0.0,0.0,0.0,0.0,0.0,0.0,0.0,0.0,0.0,0.0,0.0,0.0,0.0,0.0,0.0,0.0,0.0,0.0,0.0,0.0,0.0,0.0,0.0,0.0,0.0,0.0,0.0,0.0,0.0,0.0,0.0,0.0,0.0,2.8296,3.0647,3.2246,3.1899,3.144,0.0,0.0,0.0,0.0,0.0,0.0,0.0,0.0,0.0,3.445,3.56,3.6228,3.6334,3.661,3.6688,3.65,3.6336,3.6101,3.584,3.584,3.5695,3.541,3.541,3.5158,3.4663,3.3508,3.3239,3.339,0.0,0.0,0.0,0.0,3.2139,3.2434,0.0,0.0,0.0,0.0,0.0,0.0,0.0,0.0,0.0,0.0,0.0,0.0,2.3357,2.628,2.8475,2.922,3.1382,3.1594,2.8913,2.8228,2.6627,2.38,2.297,2.2936,2.3661,2.6578,3.0815,3.6339,3.9132,4.0914,4.174,4.1649,4.155,4.1331,4.0989,3.8105,3.343,3.2186,3.0053,2.7323,0.0,0.0,0.0,0.0,0.0,0.0,0.0,0.0,0.0,0.0,0.0,0.0,0.0,0.0,0.0,0.0,0.0,0.0,0.0,0.0,0.0,0.0,0.0,0.0,0.0,0.0,0.0,0.0,0.0,0.0,0.0,0.0,0.0,0.0,0.0,0.0,0.0,3.0762,3.2896,3.4543,3.4973,3.4823,0.0,0.0,0.0,0.0,0.0,0.0,3.5168,3.6304,3.7063,3.7411,3.7893,3.8047,3.7856,3.7687,3.7493,3.7246,3.7246,3.7155,3.7052,3.7052,3.7029,3.7008,3.7008,3.6971,3.6819,3.5287,3.5276,3.6009,3.4405,3.3806,3.3891,3.4739,3.5174,3.5389,0.0,0.0,0.0,0.0,0.0,0.0,0.0,0.0,0.0,0.0,0.0,2.5743,2.6478,2.9941,3.2496,3.3221,3.3511,3.2943,3.1334,2.9155,2.6866,2.4561,2.3729,2.3688,2.4448,3.1331,3.6403,3.9475,4.2279,4.3591,4.3461,4.3422,4.3283,4.3051,4.2196,4.0953,3.9325,3.6969,3.5252,3.3651,2.83,0.0,0.0,0.0,0.0,0.0,0.0,0.0,0.0,0.0,0.0,0.0,0.0,0.0,0.0,0.0,0.0,0.0,0.0,0.0,0.0,0.0,0.0,0.0,0.0,0.0,0.0,0.0,0.0,0.0,0.0,0.0,0.0,0.0,0.0,0.0,0.0,0.0,0.0,3.802,3.8461,0.0,0.0,0.0,0.0,3.721,3.6683,3.6939,3.8299,3.8847,3.9151,3.9161,3.9647,3.9788,3.9588,3.9558,3.9361,3.8964,3.8964,3.918,3.9614,3.9614,3.9843,4.0246,4.0246,4.0159,3.977,3.6895,3.5762,3.5787,3.5495,3.5376,3.5521,3.665,3.749,3.8042,0.0,0.0,0.0,1.8437,1.8713,1.9221,2.0242,2.0608,2.1042,2.182,2.502,2.7494,2.8208,3.3032,3.6521,3.7193,3.9092,3.9438,3.7458,3.4171,3.1982,3.123,2.8019,2.8177,3.2379,3.7355,4.0859,4.2783,4.4675,4.5481,4.5267,4.5217,4.5076,4.4839,4.4454,4.3703,4.2561,3.9911,3.7612,3.5518,3.3424,3.0107,0.0,0.0,0.0,0.0,0.0,0.0,0.0,0.0,0.0,0.0,0.0,0.0,0.0,0.0,0.0,0.0,0.0,0.0,0.0,0.0,0.0,0.0,0.0,0.0,0.0,0.0,0.0,0.0,0.0,0.0,0.0,0.0,0.0,0.0,0.0,0.0,0.0,4.0361,4.0001,0.0,3.9424,3.9383,3.9599,4.0039,3.9406,3.9375,4.0275,4.082,4.1093,4.1093,4.1617,4.1761,4.1563,4.1437,4.1237,4.0992,4.0992,4.0972,4.1025,4.0893,4.0842,4.0877,4.0742,4.0656,4.049,3.9447,3.8522,3.7777,3.7558,3.7234,3.6901,3.7292,3.764,3.7822,1.7783,1.7783,0.0,1.8781,1.9113,1.9722,2.0987,2.1393,2.2221,2.4018,2.7407,3.0277,3.204,3.7049,4.0583,4.1312,4.346,4.3579,4.0775,3.7683,3.5269,3.3715,3.1393,3.288,3.8717,4.1445,4.3623,4.5253,4.6129,4.6434,4.6211,4.6161,4.6019,4.5819,4.5688,4.5282,4.4595,4.2676,4.0386,3.7925,3.6967,3.397,2.9901,0.0,0.0,0.0,0.0,0.0,0.0,0.0,0.0,0.0,0.0,0.0,0.0,0.0,0.0,0.0,0.0,0.0,0.0,0.0,0.0,0.0,0.0,0.0,0.0,0.0,0.0,0.0,0.0,0.0,0.0,0.0,0.0,0.0,0.0,3.7419,3.8732,4.1394,4.1399,4.1072,4.0842,4.1372,4.185,4.212,4.1597,4.1573,4.2269,4.2573,4.2705,4.2636,4.2931,4.2972,4.2806,4.2661,4.2498,4.2297,4.2224,4.2235,4.2213,4.2036,4.1986,4.2051,4.1946,4.1888,4.1869,4.1791,4.1096,4.0032,3.9557,3.9073,3.8678,3.8678,3.8678,3.8678,1.7783,1.7817,1.8059,1.8815,1.9541,2.0318,2.1136,2.1867,2.3681,2.7515,3.0723,3.4102,3.7914,4.1867,4.4576,4.5375,4.6079,4.4864,4.1014,3.9257,3.6289,3.1662,3.3806,3.7528,4.2671,4.3433,4.4766,4.6769,4.6728,4.6599,4.6379,4.6322,4.6182,4.5957,4.5753,4.5646,4.5539,4.5331,4.3798,4.1286,3.8728,3.6885,3.5206,0.0,0.0,0.0,0.0,0.0,0.0,0.0,0.0,0.0,0.0,0.0,0.0,0.0,0.0,0.0,0.0,0.0,0.0,0.0,0.0,0.0,0.0,0.0,0.0,0.0,0.0,0.0,0.0,0.0,0.0,0.0,0.0,0.0,3.7601,3.857,3.9838,4.1342,4.2796,4.3182,4.2015,4.3281,4.3988,4.3509,4.3345,4.3567,4.4289,4.4135,4.3947,4.3758,4.3598,4.3437,4.3292,4.3323,4.3203,4.2993,4.2826,4.2978,4.3417,4.321,4.3479,4.4087,4.4068,4.4068,4.4048,4.3784,4.3226,4.2391,4.128,4.0811,4.0811,4.0811,4.0811,4.0811,1.7783,1.8234,1.8837,1.9575,2.0359,2.1208,2.2147,2.2296,2.315,2.5555,3.0338,3.4378,3.6497,4.1758,4.5477,4.6262,4.6475,4.5864,4.4276,4.1022,3.8536,3.715,4.0311,4.3652,4.6896,4.7623,4.8182,4.8662,4.8528,4.8365,4.8179,4.8021,4.7877,4.7776,4.7587,4.7102,4.6438,4.6345,4.546,4.4005,4.2526,3.9821,3.6562,0.0,0.0,0.0,0.0,0.0,0.0,0.0,0.0,0.0,0.0,0.0,0.0,0.0,0.0,0.0,0.0,0.0,0.0,0.0,0.0,0.0,0.0,0.0,0.0,0.0,0.0,0.0,0.0,0.0,0.0,0.0,3.8239,3.9838,4.083,4.1164,4.2021,4.3929,4.3377,4.3061,4.3692,4.4027,4.4343,4.4755,4.4659,4.4593,4.4672,4.4971,4.5058,4.4869,4.5292,4.544,4.5312,4.5624,4.5712,4.5509,4.5852,4.6062,4.6191,4.5792,4.5708,4.5872,4.5574,4.5434,4.5434,4.5374,4.5223,4.479,4.2594,4.136,4.0811,4.0811,4.0811,4.0849,1.7783,1.8403,1.9147,1.9873,2.067,2.1554,2.2552,2.2733,2.3872,2.7027,3.1507,3.5462,3.8272,4.2766,4.6011,4.7165,4.7207,4.6341,4.4418,4.1123,4.0193,4.2266,4.4381,4.6652,4.9088,4.9469,4.9574,4.9407,4.9281,4.9164,4.8979,4.8794,4.866,4.855,4.8343,4.7904,4.7385,4.7236,4.6648,4.5652,4.4685,4.241,3.9499,3.842,3.6486,3.4227,3.3508,3.2857,3.2251,3.1598,0.0,0.0,0.0,0.0,0.0,0.0,0.0,0.0,0.0,0.0,0.0,0.0,0.0,0.0,0.0,0.0,0.0,0.0,0.0,0.0,0.0,0.0,0.0,0.0,4.0241,4.1588,4.2791,4.2699,4.3158,4.4964,4.4286,4.4057,4.5144,4.509,4.528,4.5926,4.5814,4.5914,4.6335,4.6657,4.6877,4.7027,4.7308,4.7409,4.7247,4.7426,4.745,4.7339,4.7466,4.7553,4.7533,4.7076,4.688,4.686,4.6654,4.6555,4.6555,4.6424,4.6324,4.6061,0.0,0.0,0.0,0.0,4.2553,4.2562,1.7918,1.8572,1.9384,2.0014,2.0805,2.1663,2.2597,2.3144,2.5219,3.0087,3.3333,3.6891,4.1366,4.4145,4.6279,4.7765,4.7837,4.6418,4.3076,4.0618,4.1534,4.651,4.6615,4.7649,5.0006,4.9837,4.9648,4.9446,4.9352,4.9262,4.9135,4.8979,4.8803,4.8642,4.8429,4.8277,4.8197,4.8034,4.7383,4.6446,4.559,4.4365,4.2891,4.0517,3.9024,3.8007,3.6537,3.5174,3.4004,3.377,0.0,0.0,0.0,0.0,0.0,0.0,0.0,0.0,0.0,0.0,0.0,0.0,0.0,0.0,0.0,0.0,0.0,0.0,0.0,0.0,0.0,0.0,0.0,0.0,4.1996,4.3215,4.4097,4.3742,4.39,4.5133,4.5354,4.5708,4.6416,4.6365,4.6529,4.7153,4.7059,4.7457,4.8654,4.8685,0.0,0.0,0.0,4.9066,4.8903,4.8762,4.8666,4.8698,4.837,4.8213,4.8194,4.7772,4.759,4.759,4.7551,4.7532,4.7512,4.7285,4.7077,4.6859,4.6224,4.5981,4.592,4.5343,4.51,4.5009,1.868,1.9796,2.0784,2.0947,2.1583,2.2316,2.3015,2.3545,2.5405,2.9665,3.3349,3.6982,4.0637,4.3837,4.6074,4.7049,4.6825,4.6044,4.4632,4.2772,4.3503,4.7492,4.753,4.8566,5.0984,5.0265,4.9835,4.9736,4.9491,4.9368,4.9329,4.9027,4.8864,4.8829,4.8642,4.8448,4.8267,4.8229,4.7663,4.6673,4.5685,4.452,4.3315,4.2133,4.1505,4.111,4.0554,4.0208,3.9826,3.886,3.757,3.5986,3.4007,3.2242,0.0,0.0,0.0,0.0,0.0,0.0,0.0,0.0,0.0,0.0,0.0,0.0,0.0,0.0,0.0,0.0,0.0,0.0,0.0,4.2511,4.3536,4.4642,4.606,4.6046,4.5905,4.5928,4.6345,4.6908,4.7537,4.742,4.7807,4.9005,4.9024,4.9343,5.0058,4.9972,4.9867,4.9776,4.9617,4.9494,4.9458,4.9685,4.9794,4.9794,4.998,0.0,5.0058,4.9631,4.9383,4.9363,4.9045,4.8905,4.8905,4.8865,4.8825,4.8579,4.6732,4.5981,4.5981,4.586,4.5799,4.5809,1.9965,2.0683,2.1197,2.1197,2.182,2.2501,2.3093,2.3622,2.507,2.8191,3.1853,3.5495,3.8963,4.102,4.2899,4.4682,4.3741,4.3978,4.6172,4.4713,4.5399,4.9049,4.9065,4.9585,5.078,5.0207,4.9866,4.9862,4.9633,4.9491,4.9399,4.9233,4.9086,4.8942,4.8812,4.8447,4.7896,4.7822,4.725,4.6247,4.5301,4.4488,4.3804,4.2746,4.2267,4.2136,4.192,4.1823,4.1701,4.1071,4.0106,3.8926,3.7703,3.5988,3.4039,0.0,0.0,0.0,0.0,0.0,0.0,0.0,0.0,0.0,0.0,0.0,0.0,0.0,0.0,3.9017,4.0572,0.0,4.2612,4.4108,4.502,4.5942,4.7022,4.781,4.806,4.7492,4.7709,4.8157,4.8733,4.9052,4.9409,4.9972,5.0345,5.0754,5.1263,5.1229,5.1244,5.1388,5.1197,5.1039,5.0933,5.1041,5.1004,5.0945,5.1005,5.101,5.0896,5.0538,5.0344,5.0227,5.003,4.9951,4.9931,4.9713,4.9553,4.9318,4.8109,4.766,4.7598,4.727,4.7147,4.7105,2.1217,2.1421,2.1421,2.1421,2.1921,2.2501,2.3093,2.3661,2.4859,2.726,3.043,3.3795,3.719,3.805,3.9363,4.1889,4.0815,4.2046,4.6739,4.5959,4.6735,4.9913,5.0073,5.0077,5.0048,5.0,4.9953,4.9926,4.9814,4.9678,4.9506,4.9461,4.9313,4.9086,4.8853,4.8304,4.7525,4.7239,4.6589,4.568,4.4866,4.4401,4.4042,4.2982,4.2484,4.2379,4.2225,4.2121,4.2062,4.1931,4.1485,4.0929,4.0729,3.9322,3.7515,3.6197,3.5218,0.0,0.0,0.0,0.0,0.0,0.0,0.0,0.0,3.7557,3.8203,3.9379,4.0397,4.1517,4.2845,4.3352,4.4059,4.5522,4.6422,4.7287,4.8138,4.9293,4.9946,4.9638,4.9375,4.9414,5.005,5.0627,5.0959,5.1027,5.156,5.2065,5.2536,5.2503,5.2657,5.3094,5.2887,5.2678,5.2467,5.2272,5.2107,5.1944,5.1721,5.1517,5.1336,5.1124,5.0934,5.0781,5.0814,5.0922,5.1012,5.062,5.0331,5.0171,5.001,4.9949,4.9835,4.8872,4.848,4.8437,2.188,2.2185,2.2185,2.2185,2.2252,2.2501,2.3093,2.3849,2.5535,2.8803,3.0877,3.3187,3.6051,3.7058,3.8082,3.9483,4.0384,4.2033,4.4838,4.5732,4.68,4.8289,4.8964,4.9275,4.9163,4.9866,5.0182,5.0101,4.9933,4.9852,4.9831,4.967,4.9514,4.9323,4.8524,4.8023,4.7719,4.6913,4.6042,4.5164,4.4875,4.4275,4.3555,4.3304,4.3004,4.2697,4.247,4.2343,4.2323,4.2277,4.22,4.2067,4.1413,4.1088,4.0467,3.8249,3.7066,3.6287,3.5368,3.5675,3.6749,3.8772,3.8758,3.9454,0.0,4.2814,4.1342,4.3458,4.3786,4.3714,4.3788,4.4957,4.6161,4.6949,4.7754,4.882,5.0317,5.0593,5.1093,5.2388,5.1357,5.0828,5.1486,5.147,5.1937,5.316,5.3214,5.3485,5.4179,5.3941,5.3796,5.3882,5.3517,5.3247,5.311,5.2903,5.2712,5.2502,5.211,5.1944,5.1893,5.1592,5.1406,5.1401,5.1656,5.2112,5.2724,5.2473,5.2373,5.2353,5.2333,5.2313,5.2073,4.9958,4.9186,4.9247,2.2009,2.2313,2.2313,2.2313,2.2313,2.2426,2.2841,2.3203,2.4218,2.6512,2.7848,2.9906,3.3374,3.4894,3.5747,3.6044,3.8022,4.0626,4.3779,4.5468,4.6917,4.8154,4.8457,4.8533,4.8483,4.8772,4.8869,4.8744,4.8654,4.8574,4.8485,4.8397,4.8249,4.8171,4.7709,4.7185,4.6547,4.6134,4.5392,4.4514,4.4387,4.4104,4.3718,4.3546,4.3391,4.3187,4.2508,4.2226,0.0,4.2205,4.2246,4.2322,4.2361,4.1852,4.0984,3.9761,3.9554,3.987,4.0558,4.0274,4.0217,4.1778,4.2256,4.2776,4.4361,4.4041,4.3688,4.4655,4.5058,4.5379,4.5808,4.6737,4.77,4.8462,4.969,5.0751,5.134,5.2193,5.29,5.3387,5.3325,5.3177,5.2993,5.3246,5.3619,5.4107,5.4435,5.4704,5.4896,5.4714,5.4542,5.4397,5.4157,5.3897,5.3667,5.3584,5.3366,5.306,5.2818,5.2859,5.3152,5.2897,5.2891,5.3077,5.3087,5.3246,5.3487,5.3311,5.3233,5.3213,5.3095,5.2989,5.2733,5.1677,5.0989,5.066,0.0,2.2313,2.2313,2.2313,2.2313,2.2378,2.265,2.2701,2.3234,2.4725,2.5616,2.7391,3.0804,3.2222,3.3076,3.3436,3.603,3.9138,4.2625,4.4865,4.6546,4.7553,4.7722,4.7781,4.7754,4.7899,4.7918,4.7859,4.7788,4.7697,4.7578,4.7511,4.7441,4.735,4.6986,4.6437,4.5752,4.5479,4.4922,4.4229,4.4132,4.3929,4.3642,4.3463,4.3152,4.2686,4.2174,4.191,4.1747,4.1248,4.137,4.1747,4.1808,4.1468,4.0973,4.0961,4.1859,4.3027,4.3689,4.3687,4.366,4.4265,4.4956,4.5343,4.4625,4.4971,4.5465,4.5465,4.6066,4.6802,4.7607,4.8338,4.9121,5.019,5.1359,5.2297,5.2631,5.3655,5.4466,5.4658,5.5197,5.5401,5.5014,5.4995,5.506,5.5141,5.5511,5.5657,5.554,5.5334,5.5169,5.5048,5.4884,5.462,5.4287,5.4271,5.4146,5.3972,5.3822,5.4007,5.4523,5.4276,5.4371,5.4736,5.4548,5.4585,5.473,5.4481,5.4384,5.4345,5.4131,5.3986,5.3848,5.3708,5.2949,5.1987,0.0,2.2313,2.2313,2.2313,2.2313,2.2378,2.265,2.2701,2.3234,2.4725,2.5616,2.6866,2.8871,2.912,3.0105,3.2442,3.52,3.809,4.0982,4.3799,4.5491,4.5867,4.6603,4.7,4.6955,4.7715,4.8049,4.7986,4.7923,4.7881,4.7783,4.7726,4.7621,4.7454,4.6625,4.6139,4.5936,4.5109,4.4652,4.4572,4.444,4.3846,4.3035,4.2954,4.1992,4.0751,4.1259,4.1434,4.1097,3.9008,3.9332,4.0301,3.8907,3.9488,4.0873,4.1801,4.3772,4.5201,4.3069,4.4561,4.659,4.5809,4.6153,4.6635,4.6613,4.6613,4.6651,4.6651,4.7245,4.7984,4.8803,4.9546,5.0608,5.2243,5.254,5.3135,5.4686,5.481,5.533,5.6805,5.6919,5.7118,5.7827,5.6477,5.5887,5.6678,5.6519,5.6355,5.6355,5.6063,5.5858,5.5858,5.5619,5.5309,5.4976,5.4976,5.5076,5.5338,5.5122,5.5349,5.5927,5.5543,5.5644,5.6129,5.5929,5.6254,5.6882,5.6478,5.6336,5.6316,5.61,5.602,5.6001,5.6001,5.471,5.3016,0.0,0.0,2.2313,2.2313,2.2313,2.2321,2.2419,2.244,2.2862,2.4088,2.5766,0.0,0.0,0.0,0.0,0.0,3.4967,3.7463,3.9756,4.1516,4.3092,4.4606,4.5127,4.5635,4.6167,4.6437,4.6531,4.6411,4.638,4.6325,4.6277,4.6227,4.616,4.608,4.5703,4.5504,4.5384,4.5052,4.4846,4.4656,4.3992,4.3529,4.3181,4.3079,4.1793,4.0032,0.0,3.9362,3.8762,3.8092,3.8202,3.8725,3.9151,3.9383,3.9995,4.2427,4.3395,4.4057,4.5852,4.6361,4.6433,4.6651,4.6905,4.7092,4.7092,4.7535,4.7978,4.7978,4.9257,5.0484,5.0746,5.1791,5.2828,5.3386,5.411,5.4768,5.5321,5.6313,5.7117,5.7501,5.8009,5.8353,5.8449,5.7529,5.7035,5.7326,5.7074,5.692,5.692,5.6644,5.6747,5.7284,5.7042,5.6992,5.7178,5.7178,5.7077,5.6858,5.7073,5.7103,5.7073,5.7308,5.7452,5.7509,5.7309,5.7297,5.7383,5.7252,5.712,5.6987,5.693,5.6815,5.6699,5.6834,5.6349,5.5578,0.0,0.0,0.0,2.2313,2.2313,0.0,0.0,0.0,0.0,0.0,0.0,0.0,0.0,0.0,0.0,0.0,0.0,3.6579,3.8321,3.9946,4.1608,4.3388,4.3641,4.417,4.497,4.4802,4.4837,4.503,4.5157,4.5312,4.553,4.5485,4.5472,4.5419,4.5329,4.5256,4.5197,4.4788,4.4589,4.4395,4.3432,4.2677,4.2155,4.2032,4.0607,0.0,3.7917,3.7161,3.6461,3.6236,3.6907,3.8028,3.8951,4.0291,4.1714,4.2646,4.3982,4.5588,4.7497,4.778,4.7657,4.8136,4.8282,4.8435,4.8783,4.9265,4.9733,5.0012,5.1005,5.1935,5.2203,5.3017,5.3846,5.4417,5.5232,5.5998,5.6576,5.7586,5.8307,5.8418,5.8915,5.913,5.8952,5.8698,5.8345,5.7867,5.7619,5.7619,5.7886,5.7674,5.7882,5.8691,5.8394,5.8357,5.8616,5.858,5.8459,5.8257,5.8602,5.859,5.8305,5.86,5.8614,5.8367,5.8243,5.8099,5.7918,5.7845,5.7735,5.7606,5.7458,5.7327,5.7233,5.7271,5.7271,5.711,0.0,0.0,0.0,0.0,0.0,0.0,0.0,0.0,0.0,0.0,0.0,0.0,0.0,0.0,0.0,0.0,0.0,0.0,3.6738,3.8983,4.0834,4.2102,4.2178,4.2569,4.3439,4.2995,4.3158,4.3915,4.4281,4.4816,4.5471,4.5543,4.5489,4.5386,4.5333,4.5278,4.5211,4.4303,4.3868,4.3694,4.2695,4.1379,4.0022,3.9975,3.8522,3.6452,3.5813,3.5101,3.4415,3.3791,3.5684,3.8296,3.8453,4.2034,4.5627,4.2691,4.5566,4.9411,4.8069,4.8914,5.0177,5.0253,5.0352,5.0638,5.1485,5.1682,5.1855,5.2558,5.243,5.237,5.3144,5.3317,5.3857,5.5425,5.6062,5.6891,5.8401,5.8658,5.8927,5.9537,5.9671,5.9592,5.9411,5.9926,5.9787,5.8565,5.83,5.8483,5.9266,5.9066,5.9261,6.0077,5.9706,5.9452,5.9353,5.9197,5.9266,5.9507,5.9717,5.9746,5.9531,5.9401,5.9132,5.8754,5.8737,5.8667,5.8525,5.8314,5.8225,5.8171,5.779,5.7643,5.7625,5.7439,5.7476,5.7625,0.0,0.0,0.0,0.0,0.0,0.0,0.0,0.0,0.0,0.0,0.0,0.0,0.0,0.0,0.0,0.0,0.0,0.0,3.542,3.6348,3.7798,3.9974,4.0349,4.1155,4.2569,4.2503,4.2519,4.2732,4.3411,4.3825,4.3988,4.4568,4.4618,4.4144,4.4106,4.3833,4.3457,4.3169,4.2662,4.2015,4.1144,4.017,3.9279,3.9203,3.7807,3.5916,3.6328,3.5607,3.4646,3.5655,3.8186,4.108,4.231,4.3648,4.4994,4.5927,4.7194,4.8656,5.022,5.0937,5.1465,5.2085,5.2273,5.2372,5.2602,5.2646,5.2717,5.2891,5.2897,5.3178,5.4276,5.4697,5.5358,5.6707,5.7755,5.8477,5.8856,5.9405,5.9832,5.9896,6.0487,6.08,6.0612,6.1213,6.146,6.1091,6.0598,6.0392,6.0615,6.0402,6.0681,6.1479,6.1091,6.1118,6.1594,6.1107,6.0848,6.0816,6.0636,6.0461,6.0325,6.0024,5.9748,5.95,5.9401,5.9268,5.9098,5.8875,5.8719,5.8562,5.8332,5.8277,5.8243,5.8189,5.8241,5.8243,0.0,0.0,0.0,0.0,0.0,0.0,0.0,0.0,0.0,0.0,0.0,0.0,0.0,0.0,0.0,0.0,0.0,0.0,0.0,3.5005,3.6142,3.7916,3.8215,3.89,4.0178,4.0663,4.0771,4.0472,4.1768,4.2198,4.1823,4.2276,4.219,4.1672,4.1633,4.1519,4.1311,4.0903,4.0653,0.0,0.0,3.8743,3.8043,3.7986,3.7003,3.5673,3.6117,3.6652,3.7392,3.8977,4.1302,4.3625,4.4473,4.5776,4.7118,4.7676,4.8421,4.9442,5.126,5.1793,5.2033,5.2915,5.3133,5.3035,5.2477,5.2328,5.2162,5.1599,5.1366,5.1904,5.3785,5.4351,5.5317,5.7635,5.87,5.9344,5.966,6.0099,6.047,6.0706,6.1149,6.1537,6.1752,6.2425,6.2822,6.2807,6.1927,6.1558,6.1879,6.172,6.2008,6.2784,6.2386,6.2278,6.25,6.2082,6.1818,6.1594,6.1292,6.1013,6.0788,6.0527,6.0278,6.004,5.9927,5.9748,5.9501,5.9401,5.925,5.9064,5.8892,5.8858,5.8858,5.8771,5.8788,5.8858,0.0,0.0,0.0,0.0,0.0,0.0,0.0,0.0,0.0,2.4846,2.6502,2.7988,2.8975,3.0383,0.0,0.0,0.0,0.0,0.0,0.0,3.5224,3.6083,3.6119,3.6494,3.7309,3.8316,3.8489,3.7847,3.965,4.0187,3.9505,3.9596,3.9379,3.8944,3.887,3.8942,3.9014,3.8198,3.8211,3.8721,3.7935,3.7226,3.6656,0.0,3.6197,3.5633,3.5836,3.7857,4.0687,4.2351,4.4251,4.5912,4.5905,4.8031,5.0221,4.8707,4.9366,5.0796,5.1613,5.1991,5.2372,5.3268,5.3605,5.3374,5.1995,5.1653,5.1266,4.9807,4.9151,4.9728,5.2605,5.3256,5.4488,5.813,5.9224,5.9828,6.0527,6.0597,6.084,6.147,6.1701,6.2051,6.2742,6.354,6.4013,6.3989,6.2914,6.2503,6.3098,6.2977,6.3179,6.3775,6.3465,6.3063,6.2692,6.2565,6.2357,6.2064,6.179,6.1494,6.1211,6.0998,6.0707,6.045,6.0419,6.0246,5.9924,5.9892,5.9814,5.9652,5.9486,5.9419,5.9403,5.92,5.925,5.9419,0.0,0.0,0.0,0.0,0.0,0.0,0.0,0.0,0.0,0.0,2.651,2.678,2.8881,2.9932,0.0,0.0,0.0,0.0,0.0,0.0,0.0,3.5188,3.5224,3.5635,3.6494,3.6697,3.674,3.6592,3.7613,3.8025,3.7914,3.8588,3.8565,3.8003,3.7665,3.7268,3.6831,3.6264,3.6109,3.6225,3.6067,3.5911,3.5821,3.5813,0.0,0.0,3.7031,3.8639,4.0434,4.2212,4.4991,4.778,4.8416,4.9578,5.0596,5.0297,5.0457,5.0875,5.1799,5.2559,5.3272,5.4154,5.4931,5.4944,5.3041,5.2583,5.2016,5.0003,4.8746,4.9008,5.2266,5.3152,5.4482,5.7831,5.961,6.0592,6.0685,6.0673,6.0725,6.0763,6.2009,6.2867,6.2884,6.4222,6.5069,6.4971,6.4744,6.4553,6.4407,6.4199,6.4046,6.3905,6.3632,6.3396,6.3087,6.2966,6.2768,6.25,6.2308,6.2118,6.1818,6.1501,6.1292,6.1102,6.1019,6.0833,6.06,6.0512,6.0356,6.0167,6.0043,5.9978,5.9978,5.9911,5.9911,5.9978,0.0,0.0,0.0,0.0,0.0,0.0,0.0,2.5606,2.7035,2.8764,2.8721,2.9031,3.0362,3.0921,3.1657,0.0,0.0,0.0,0.0,0.0,0.0,3.4351,3.4387,3.4571,3.4981,3.5862,3.5862,3.4981,0.0,3.642,3.5576,3.5973,3.5863,3.5391,3.4966,3.4688,3.455,3.4085,3.4336,3.5036,3.5036,3.5273,3.56,3.56,0.0,0.0,3.7335,3.8856,4.0338,4.1987,4.5027,4.8342,4.9354,4.9831,5.0293,5.1381,5.1269,5.0975,5.1842,5.2408,5.2936,5.3816,5.4666,5.4487,5.1294,5.0906,5.0322,4.7079,4.5972,4.6491,4.9629,5.0357,5.1767,5.5724,5.6714,5.7639,5.9543,5.9454,5.9734,6.1227,6.2048,6.2829,6.365,6.4412,6.4991,6.5337,6.5329,6.5169,6.4797,6.4596,6.4366,6.4104,6.4027,6.3823,6.3522,6.3396,6.3171,6.2904,6.278,6.2552,6.2212,6.2028,6.1873,6.165,6.1615,6.1451,6.1257,6.111,6.0962,6.0833,6.0666,6.0625,6.0625,6.0625,6.0625,6.064,0.0,0.0,0.0,0.0,0.0,0.0,0.0,2.6849,2.8372,3.0583,3.1523,3.212,3.2411,3.2173,3.236,0.0,0.0,0.0,0.0,0.0,0.0,0.0,3.3655,3.3655,3.3655,0.0,0.0,3.4057,3.5569,0.0,0.0,0.0,0.0,0.0,3.2723,3.2581,3.2696,3.2275,3.2936,0.0,0.0,3.481,3.56,0.0,0.0,0.0,0.0,3.8885,4.0437,4.1818,4.4541,4.757,4.9023,4.9876,5.0528,5.1932,5.1831,5.1334,5.1722,5.2003,5.2341,5.3037,5.4,5.3681,4.9477,4.915,4.8614,4.4366,4.3506,4.4319,4.7042,4.7682,4.9171,5.3392,5.3982,5.5048,5.8275,5.852,5.9179,6.1587,6.1961,6.2551,6.3854,6.4263,6.4663,6.5224,6.5374,6.5305,6.4967,6.4763,6.4587,6.4433,6.4364,6.4193,6.3899,6.3769,6.359,6.3338,6.3183,6.2941,6.259,6.2552,6.241,6.2158,6.2158,6.2078,6.1878,6.1782,6.1628,6.1494,6.1401,6.1328,6.1299,6.1328,6.1343,6.1336,0.0,0.0,0.0,0.0,0.0,0.0,0.0,2.7975,2.9998,3.299,3.404,3.4553,3.4535,3.2958,3.2406,0.0,0.0,0.0,0.0,0.0,0.0,0.0,0.0,0.0,0.0,0.0,0.0,3.4894,3.5826,0.0,0.0,0.0,0.0,0.0,0.0,3.2265,3.1892,3.1472,0.0,0.0,0.0,0.0,0.0,0.0,0.0,0.0,0.0,3.9063,4.0821,4.1945,4.3234,4.4796,4.7154,5.0142,5.2605,5.1764,5.1941,5.2242,5.1271,5.1598,5.2225,5.2302,5.3579,5.3681,4.9477,4.915,4.8614,4.4366,4.3506,4.4143,4.6299,4.731,4.882,5.1923,5.4186,5.6118,5.7677,5.9105,6.0265,6.1021,6.1747,6.2199,6.2237,6.3648,6.4558,6.4503,6.5109,6.5383,6.5199,6.4967,6.4853,6.4835,6.4568,6.4364,6.4254,6.4131,6.3963,6.3736,6.3602,6.3407,6.3111,6.3002,6.2867,6.2717,6.2717,6.2641,6.2526,6.2513,6.2357,6.2105,6.2091,6.201,6.1914,6.2037,6.2091,6.2105,0.0,0.0,0.0,0.0,0.0,0.0,2.6957,2.8052,2.9945,3.3801,3.4571,3.5084,3.5852,3.4356,3.3203,3.3039,0.0,0.0,0.0,0.0,0.0,0.0,0.0,0.0,0.0,0.0,3.4997,3.4997,3.5855,0.0,0.0,0.0,0.0,0.0,0.0,3.2677,3.1753,3.138,0.0,0.0,0.0,0.0,0.0,0.0,0.0,0.0,0.0,0.0,4.0654,4.2059,4.3378,4.4674,4.615,4.8279,5.0348,5.0906,5.1134,5.1168,5.0975,5.1134,5.1409,5.1409,5.2337,5.2253,4.8544,4.8378,4.7957,4.4247,4.3506,4.3739,4.458,4.5004,4.6154,4.9007,4.9699,5.1531,5.6351,5.6947,5.7895,6.0683,6.1276,6.1669,6.2083,6.2733,6.3528,6.4443,6.5168,6.5523,6.5466,6.5258,6.5086,6.4976,6.4824,6.4689,6.4539,6.4424,6.4297,6.4145,6.3958,6.3797,6.3632,6.3519,6.3419,6.3291,6.3291,6.323,6.3183,6.3111,6.3026,6.2917,6.2806,6.2707,6.2669,6.2719,6.2744,6.2757,0.0,0.0,0.0,0.0,0.0,2.4241,2.7312,2.8148,2.9886,3.3911,3.4415,3.4985,3.6435,3.4966,3.3609,3.2908,3.2388,0.0,0.0,0.0,0.0,0.0,0.0,0.0,0.0,0.0,3.5177,3.5177,3.6399,3.689,0.0,0.0,3.576,3.4183,0.0,0.0,0.0,0.0,0.0,0.0,0.0,0.0,0.0,0.0,0.0,0.0,0.0,0.0,0.0,0.0,0.0,4.3746,4.4296,4.559,4.737,4.9792,5.0495,5.055,5.0808,5.0898,5.0898,5.0898,5.1468,5.1183,4.7937,4.7775,4.736,4.4169,4.3506,4.3506,4.3506,4.3506,4.4249,4.6578,4.7316,4.9442,5.4804,5.5912,5.726,6.0248,6.074,6.1054,6.1564,6.1985,6.2882,6.4535,6.509,6.5441,6.5631,6.5516,6.5337,6.5115,6.5082,6.4981,6.4797,6.4687,6.4595,6.4568,6.4326,6.4186,6.4077,6.3968,6.3851,6.3764,6.3764,6.3764,6.3764,6.3687,6.3632,6.3587,6.3434,6.3377,6.3354,6.3388,6.3422,6.3431,0.0,0.0,0.0,0.0,0.0,0.0,2.7337,2.8467,3.0155,3.339,3.3793,3.4461,3.6112,3.4433,3.3337,3.3674,3.2163,0.0,0.0,0.0,0.0,0.0,0.0,0.0,0.0,0.0,3.5604,3.5604,3.7669,3.8285,3.7492,3.7492,3.6139,3.3719,0.0,0.0,0.0,0.0,0.0,0.0,0.0,0.0,3.6457,0.0,0.0,0.0,0.0,0.0,0.0,0.0,0.0,0.0,0.0,4.2249,4.4361,4.8419,5.0207,5.0881,5.0905,5.0898,5.0898,5.0898,5.1245,5.0829,4.7877,4.7523,4.6975,4.4084,4.3506,4.3506,4.3506,4.3506,4.388,4.5037,4.88,5.1973,5.3142,5.6922,5.9572,5.9598,6.006,6.0374,6.0333,6.1473,6.2921,6.4657,6.4806,6.5101,6.575,6.582,6.569,6.5383,6.5329,6.5202,6.4989,6.4989,6.4976,6.488,6.4605,6.4511,6.4502,6.4299,6.4209,6.4209,6.4209,6.4209,6.4209,6.4199,6.4138,6.4073,6.4111,6.4011,6.3899,6.4031,6.4145,6.4219,0.0,0.0,0.0,0.0,0.0,0.0,0.0,2.6833,2.8332,3.0974,3.1831,3.2786,3.4394,3.3262,3.2645,3.3294,3.2275,0.0,0.0,0.0,0.0,0.0,0.0,0.0,0.0,3.4469,3.5849,3.6427,3.8509,3.9215,3.8601,3.8601,3.7228,3.4781,3.4266,3.3272,0.0,0.0,0.0,0.0,3.6489,3.7442,3.7488,0.0,0.0,0.0,0.0,0.0,0.0,0.0,0.0,0.0,0.0,0.0,0.0,4.4937,4.7266,4.8738,4.8448,4.8771,4.9071,4.8515,4.8468,4.813,4.6379,4.6082,4.5639,4.3855,4.3506,4.3506,4.3506,4.3506,4.4543,4.7808,4.9242,5.145,5.5769,5.9055,6.1632,6.329,6.3995,6.3455,6.12,6.1795,6.2573,6.3114,6.4161,6.4871,6.5101,6.5641,6.5788,6.5537,6.5509,6.5443,6.5345,6.5345,6.5275,6.5161,6.4968,6.4882,6.485,6.4725,6.4661,6.4661,6.4661,6.4661,6.4661,6.4661,6.468,6.4652,6.4652,6.4634,6.4587,6.4689,6.4743,6.4741,0.0,0.0,0.0,0.0,0.0,0.0,0.0,2.5815,2.6906,2.9035,2.9738,3.0766,3.2675,3.1953,3.1827,3.3087,3.2398,0.0,0.0,0.0,0.0,0.0,0.0,0.0,3.2003,3.3883,3.5432,3.6526,3.8474,3.9589,3.9833,3.9606,3.8274,3.6011,3.5064,3.3736,0.0,0.0,0.0,0.0,3.7059,3.7704,3.7494,0.0,0.0,0.0,0.0,0.0,0.0,0.0,0.0,0.0,0.0,0.0,0.0,0.0,4.4084,4.5937,4.6939,4.7587,4.7846,4.7327,4.7092,4.6701,4.5619,4.5242,4.4819,4.373,4.3506,4.3506,4.3506,4.3605,4.4565,4.7184,4.9304,5.1847,5.5289,5.9744,6.3175,6.4653,6.5474,6.4684,6.1591,6.1712,6.2102,6.2407,6.3666,6.4539,6.4839,6.5611,6.5984,6.5769,6.5743,6.5697,6.5629,6.5594,6.553,6.5466,6.5322,6.5244,6.5188,6.5136,6.5095,6.5095,6.5095,6.5095,0.0,6.5095,6.5111,6.5144,6.5144,6.5131,6.5164,6.522,6.5259,6.526,0.0,0.0,0.0,0.0,0.0,0.0,0.0,2.5379,2.593,2.7425,2.7719,2.8637,3.0913,3.054,3.0922,3.2886,3.2372,0.0,0.0,0.0,0.0,0.0,0.0,0.0,3.1274,3.294,3.4604,3.6257,3.8004,3.9656,4.1119,4.0528,3.9199,3.7328,3.5918,3.4223,0.0,0.0,0.0,0.0,3.7423,3.7458,0.0,0.0,0.0,0.0,0.0,0.0,0.0,0.0,0.0,0.0,0.0,0.0,0.0,0.0,0.0,0.0,0.0,4.6828,4.6859,4.6859,4.6579,4.6126,4.5417,4.4918,0.0,4.3653,4.3506,4.3543,4.3726,4.3939,4.4221,4.4646,4.9422,5.305,5.2997,5.9574,6.4314,6.4186,6.4915,6.4375,6.1587,6.1306,6.165,6.2465,6.3318,6.4127,6.4875,6.5731,6.6149,6.6036,6.5984,6.5919,6.5833,6.5769,6.573,6.573,6.5594,6.553,6.5523,6.5443,6.5444,6.5444,6.5444,6.5444,6.5444,6.5444,6.5457,6.5523,6.553,6.558,6.5604,6.5611,6.5658,6.5756,0.0,0.0,0.0,0.0,0.0,0.0,0.0,0.0,0.0,0.0,2.7027,2.8013,2.8563,2.9029,2.9984,0.0,0.0,0.0,0.0,0.0,0.0,0.0,0.0,0.0,3.2205,3.4151,3.5927,3.7536,3.9556,4.0828,4.1379,4.0838,3.9714,3.8051,3.6093,3.4542,0.0,0.0,0.0,0.0,3.798,3.8029,0.0,0.0,0.0,0.0,3.6567,3.6971,0.0,0.0,0.0,0.0,0.0,0.0,0.0,0.0,4.0165,4.0772,4.2146,0.0,4.3431,4.3431,4.3372,4.3414,0.0,4.3866,4.3726,4.3543,4.3506,4.4057,4.5911,4.5576,4.6477,5.0921,5.2926,5.4865,5.7548,6.2605,6.573,6.4897,6.5556,6.4851,6.1686,6.1326,6.1656,6.2513,6.3334,6.4158,6.5023,6.588,6.6336,6.6312,6.6303,6.617,6.5967,6.5949,6.5919,6.5838,6.5807,6.5763,6.575,6.5691,6.5723,6.5723,6.5723,6.5723,6.5723,6.5723,6.5736,6.5718,6.5769,6.5801,6.5832,6.5922,6.6001,6.6107,0.0,0.0,0.0,0.0,0.0,0.0,0.0,0.0,0.0,0.0,2.625,2.7236,2.7236,2.829,2.9647,0.0,0.0,0.0,0.0,0.0,0.0,0.0,0.0,3.2154,3.2483,3.4167,3.6037,3.8015,3.9715,4.1179,4.2414,4.1873,4.077,3.9142,3.6286,3.4843,0.0,0.0,0.0,3.7195,3.8274,0.0,0.0,0.0,0.0,0.0,3.5708,3.6229,0.0,3.7382,3.8036,3.8681,0.0,0.0,0.0,0.0,3.935,3.946,3.9892,4.1654,4.3379,4.3379,4.3681,4.4085,4.4497,4.402,4.3506,4.3506,4.3506,4.402,4.5691,4.6234,4.7564,5.112,5.4013,5.7379,6.1966,6.5566,6.7095,6.528,6.5777,6.4989,6.1716,6.1359,6.1698,6.2594,6.3429,6.4259,6.5092,6.5946,6.6403,6.6385,6.6381,6.6317,6.6134,6.6107,6.6063,6.6007,6.5978,6.5943,6.5907,6.5907,6.5907,6.5907,6.5905,6.5955,6.5955,6.5984,6.6013,6.6047,6.608,6.6107,6.6183,6.6651,6.6835,6.6966,0.0,0.0,0.0,0.0,0.0,0.0,0.0,0.0,0.0,0.0,0.0,0.0,0.0,0.0,0.0,0.0,0.0,0.0,0.0,0.0,0.0,0.0,3.2322,3.2165,3.3059,3.4142,3.5864,3.8288,3.9492,4.1185,4.3314,4.2894,4.1683,3.977,3.6612,3.5399,3.5727,3.5727,3.6466,3.7749,3.8463,0.0,0.0,0.0,0.0,0.0,0.0,0.0,0.0,3.6919,3.7742,3.8505,3.8505,0.0,0.0,0.0,0.0,0.0,3.9229,4.219,4.4998,4.4322,4.4929,4.5663,4.5553,4.4497,4.3495,4.3555,4.3691,4.4158,4.5397,4.7186,4.8867,5.0046,5.47,5.9861,6.4774,6.6996,6.7224,6.4838,6.5123,6.4472,6.1681,6.1532,6.196,6.2818,6.3711,6.4551,6.5336,6.6026,6.6437,6.6403,6.6403,6.6381,6.6331,6.6279,6.6185,6.6139,6.608,6.6052,6.6063,6.6052,6.6052,6.6069,6.6118,6.6139,6.6144,6.619,6.6279,6.6317,6.6443,6.6552,6.6722,6.7579,6.791,6.8043,0.0,0.0,0.0,0.0,0.0,0.0,0.0,0.0,0.0,0.0,0.0,0.0,0.0,0.0,0.0,0.0,0.0,0.0,0.0,0.0,0.0,3.3689,3.3531,3.4161,3.5696,3.5901,3.7175,3.9601,4.0492,4.1434,4.2498,4.2631,4.1077,3.8166,3.741,3.6757,3.6186,3.6186,3.7095,3.8536,3.891,0.0,0.0,0.0,0.0,0.0,0.0,0.0,0.0,3.5446,3.6413,3.7669,3.7669,0.0,0.0,0.0,0.0,0.0,4.1623,4.4736,4.6413,4.2586,4.3269,4.47,4.402,4.369,4.358,4.3865,4.4524,4.599,4.9182,5.0974,5.2796,5.5443,5.8266,6.0634,6.202,6.3006,6.32,6.2101,6.2069,6.1942,6.1455,6.2076,6.2857,6.3715,6.4566,6.5378,6.6264,6.6419,6.6493,6.6489,6.6489,6.6469,6.6385,6.6381,6.6354,6.6349,6.6293,6.6293,6.6336,6.6288,6.6293,6.6336,6.6345,6.6349,6.6349,6.6358,6.6363,6.6454,6.7187,6.754,6.7701,6.8559,6.8907,6.9101,0.0,0.0,0.0,0.0,0.0,0.0,0.0,0.0,0.0,0.0,0.0,0.0,0.0,0.0,0.0,0.0,0.0,0.0,0.0,0.0,3.4211,3.5092,3.4718,3.5011,3.6273,3.7147,3.8579,4.0561,4.136,4.2176,4.2947,4.2173,4.0557,3.8227,3.7278,3.6384,3.5649,3.6232,3.7202,3.834,0.0,0.0,0.0,0.0,0.0,0.0,0.0,0.0,0.0,0.0,3.6565,3.7914,3.7914,0.0,0.0,0.0,0.0,0.0,4.0701,4.352,4.5429,4.2997,4.624,4.9836,4.8976,4.8469,4.8128,4.7792,4.8408,4.9521,5.1156,5.2724,5.4898,5.8381,6.0839,6.2241,6.2167,6.2804,6.2836,6.1598,6.1433,6.1447,6.1411,6.2185,6.3072,6.3948,6.4757,6.5572,6.647,6.6508,6.6508,6.6508,6.6508,6.6497,6.6439,6.6461,6.6428,6.6381,6.6358,6.6358,6.6381,6.6358,6.6363,6.6385,6.6407,6.6416,6.6416,6.6441,6.6741,6.7192,6.7596,6.8097,6.8642,6.9536,7.0203,7.0715,0.0,0.0,0.0,0.0,0.0,0.0,0.0,0.0,0.0,0.0,0.0,0.0,0.0,0.0,0.0,0.0,0.0,0.0,0.0,3.3176,3.4247,3.5936,3.5807,3.6255,3.7404,3.8354,3.9688,4.1485,4.2179,4.2918,4.3585,4.194,4.0302,3.866,3.7137,3.5984,3.5192,3.6311,3.7274,3.8078,0.0,0.0,0.0,0.0,0.0,0.0,0.0,0.0,0.0,0.0,0.0,0.0,0.0,0.0,0.0,3.951,3.9414,3.9401,4.0344,4.2747,4.4984,4.5174,4.9213,5.2923,5.2096,5.163,5.1199,5.0613,5.1487,5.2451,5.265,5.446,5.7083,6.0685,6.2348,6.3033,6.2504,6.2954,6.2886,6.164,6.1509,6.1481,6.1411,6.2416,6.3294,6.3963,6.4966,6.5817,6.647,6.6508,6.6508,6.6508,6.6508,6.6508,6.6508,6.6508,6.6477,6.6411,6.6403,6.6403,6.6411,6.6403,6.6403,6.6416,6.6406,6.6535,6.6733,6.6777,6.7319,6.8126,6.837,6.9016,6.987,7.0575,7.1279,7.1899,0.0,0.0,0.0,0.0,0.0,0.0,0.0,0.0,0.0,0.0,0.0,0.0,0.0,0.0,0.0,0.0,0.0,0.0,0.0,3.2656,3.3426,3.5041,3.6838,3.8737,4.07,3.9717,4.0323,4.2679,4.3069,4.3499,4.3944,4.2255,4.0474,3.8638,3.753,3.6454,3.5522,3.6601,3.7542,3.8377,3.9594,0.0,0.0,0.0,0.0,0.0,0.0,0.0,0.0,0.0,0.0,0.0,0.0,0.0,3.9551,3.9574,3.9569,4.0155,4.284,4.4908,4.6909,4.9586,4.9531,4.8642,4.7919,4.838,4.9013,4.9284,5.1209,5.3168,5.4231,5.7207,6.0395,6.3033,6.2513,6.1749,6.1676,6.1715,6.1707,6.1534,6.1489,6.1515,6.1481,6.2998,6.3994,6.3997,6.5553,6.651,6.6508,6.6508,6.6508,6.6508,6.6508,6.6508,6.6508,6.6508,6.6505,6.6497,6.6418,6.6422,6.6497,6.6418,6.6422,6.6501,6.6501,6.6932,6.7713,6.7715,6.82,6.9102,6.9957,7.0843,7.1614,7.1755,7.1855,7.1904,0.0,0.0,0.0,0.0,0.0,0.0,0.0,0.0,0.0,0.0,0.0,0.0,0.0,0.0,0.0,0.0,0.0,0.0,3.1788,3.2332,3.3642,3.5943,3.6794,3.8113,4.0046,4.1177,4.2446,4.3929,4.4063,4.393,4.3543,4.2411,4.065,3.8402,3.7489,3.661,3.5797,3.6371,3.7086,3.7904,3.8529,3.8076,0.0,0.0,0.0,0.0,0.0,0.0,0.0,0.0,3.6544,3.7615,3.7415,3.8533,3.9848,3.9518,3.9643,4.0183,4.1444,4.4196,4.6868,4.753,4.9247,5.0957,5.178,5.3051,5.3955,5.3558,5.5058,5.6566,5.7022,5.952,6.1516,6.1468,6.1528,6.1607,6.1607,6.1607,6.1605,6.1556,6.1556,6.1778,6.2257,6.3381,6.4301,6.4776,6.5901,6.6588,6.6549,6.6546,6.6535,6.6508,6.6508,6.6508,6.6508,6.6508,6.6508,6.6508,6.645,6.6493,6.6508,6.645,6.6493,6.6547,6.7079,6.7482,6.7836,6.8419,6.9185,7.0064,7.0955,7.153,7.1866,7.1889,7.1917,7.1905,0.0,0.0,0.0,0.0,0.0,0.0,0.0,0.0,0.0,0.0,0.0,0.0,0.0,0.0,0.0,0.0,0.0,0.0,3.0987,3.1851,3.3414,3.5802,3.6604,3.7847,3.9649,4.2003,4.3462,4.3924,4.4498,4.4303,4.3414,4.2354,4.087,3.909,3.7917,3.7171,3.6866,3.6828,3.719,3.7785,3.8228,3.7738,0.0,0.0,0.0,0.0,0.0,0.0,0.0,0.0,3.6657,3.7584,3.7546,3.8595,3.9848,3.97,4.033,4.1082,4.1279,4.3855,4.6626,4.7249,4.9184,5.1593,5.3901,5.5334,5.6029,5.5478,5.6901,5.8424,5.892,6.0507,6.1457,6.0641,6.1126,6.1607,6.1607,6.1607,6.1607,6.1607,6.1607,6.1912,6.2754,6.3606,6.4449,6.5277,6.6133,6.6624,6.6588,6.6588,6.6574,6.6546,6.6546,6.6546,6.6546,6.6546,6.6546,6.6546,6.6535,6.652,6.6508,6.6508,6.6633,6.6958,6.7528,6.8133,6.8691,6.9351,7.0125,7.0973,7.1586,7.1843,7.1899,7.1915,7.2057,7.2317,0.0,0.0,0.0,0.0,0.0,0.0,0.0,0.0,0.0,0.0,0.0,0.0,0.0,0.0,0.0,0.0,0.0,0.0,3.0136,3.1193,3.2514,3.4125,3.6371,3.8346,4.0043,4.2052,4.2892,4.2512,4.4238,4.462,4.3737,4.2082,4.1157,4.0788,3.8891,3.8331,3.8849,3.8239,3.8007,3.8046,3.8934,3.8238,3.6773,0.0,0.0,0.0,0.0,0.0,0.0,0.0,3.6696,3.7004,3.8742,3.9281,3.9473,4.0246,4.1743,4.3124,4.3085,4.4359,4.6467,4.9911,4.9606,4.9339,5.28,5.3677,5.3781,5.382,5.5797,5.8011,5.9587,6.0028,6.0381,6.1234,6.1512,6.1607,6.1607,6.1607,6.1607,6.1607,6.1607,6.1958,6.2815,6.3634,6.4478,6.5345,6.6201,6.666,6.6585,6.6585,6.6585,6.6585,6.6585,6.6585,6.6585,6.6585,6.6585,6.6585,6.6588,6.6588,6.6508,6.6508,6.6997,6.7815,6.7815,6.885,7.0483,7.0515,7.1015,7.1822,7.1887,7.1897,7.1904,7.1911,7.2472,7.3216,0.0,0.0,0.0,0.0,0.0,0.0,0.0,0.0,0.0,0.0,0.0,0.0,0.0,0.0,0.0,0.0,0.0,0.0,3.0136,3.0683,3.1768,3.3551,3.5049,3.6421,3.7674,3.9477,4.1586,4.3894,4.3798,4.3364,4.2601,4.2009,4.0769,3.9006,3.9523,3.8866,3.7348,3.7174,3.7081,3.7119,3.735,3.6811,3.5962,0.0,0.0,0.0,0.0,0.0,0.0,0.0,0.0,0.0,3.7311,3.9119,4.0854,3.9935,4.1704,4.3701,4.2504,4.5214,4.8343,4.8272,5.0195,5.2033,5.1971,5.2945,5.4175,5.544,5.7167,5.8377,5.823,5.9734,6.0884,6.0537,6.1126,6.1607,6.1607,6.1607,6.1607,6.1607,6.1607,6.2153,6.3595,6.3945,6.472,6.619,6.6543,6.6688,6.666,6.6657,6.6648,6.6585,6.6585,6.6585,6.6585,6.6585,6.6585,6.6585,6.6611,6.6601,6.6591,6.7147,6.7585,6.7934,6.9166,6.9999,7.0554,7.1171,7.1588,7.1887,7.1894,7.1917,7.1987,7.2583,7.2993,7.3364,0.0,0.0,0.0,0.0,0.0,0.0,0.0,0.0,0.0,0.0,2.3207,2.4052,0.0,0.0,0.0,2.8517,2.8875,0.0,2.982,3.0719,3.1793,3.3031,3.45,3.5883,3.7192,3.8896,4.0651,4.2479,4.2302,4.1961,4.1551,4.1803,4.1264,4.0179,4.1104,4.0508,3.8696,3.8004,3.7546,3.7234,3.7234,3.6734,3.6077,0.0,0.0,0.0,0.0,0.0,0.0,0.0,0.0,0.0,3.6619,3.8119,3.985,4.02,4.1998,4.387,4.3866,4.6401,4.9076,4.9174,5.0665,5.2119,5.2295,5.3093,5.4344,5.6113,5.7242,5.7823,5.7637,5.9155,6.04,6.0208,6.0993,6.1607,6.1607,6.1607,6.1607,6.1607,6.1607,6.227,6.3945,6.4099,6.48,6.6554,6.6709,6.6704,6.6688,6.6688,6.668,6.6621,6.6621,6.6621,6.6621,6.6621,6.6621,6.666,6.696,6.7115,6.7163,6.7626,6.8245,6.902,7.0416,7.1012,7.1054,7.1627,7.1843,7.1938,7.2268,7.2411,7.2511,7.3415,7.3941,7.4389,0.0,0.0,2.2313,2.2313,0.0,0.0,0.0,0.0,0.0,2.2313,2.2861,2.3844,0.0,0.0,0.0,2.8751,2.8973,2.9139,2.9368,3.1125,3.2247,3.2588,3.4609,3.6427,3.7969,3.9473,3.9918,3.9163,4.0028,4.0528,4.0617,4.1412,4.2181,4.2883,4.2956,4.2405,4.135,3.968,3.8487,3.7777,3.7777,3.7311,3.6696,3.7469,0.0,0.0,0.0,0.0,0.0,0.0,0.0,0.0,3.6462,3.6811,3.7546,4.0681,4.2391,4.3798,4.6044,4.7534,4.8952,5.1307,5.095,5.0713,5.3327,5.3968,5.4474,5.6154,5.6507,5.6741,5.7557,5.8414,5.9271,6.0168,6.1023,6.1607,6.1607,6.1607,6.1607,6.1607,6.1607,6.227,6.3945,6.4099,6.48,6.6554,6.6709,6.6709,6.6709,6.6709,6.6709,6.6709,6.6709,6.6709,6.6709,6.6709,6.6748,6.6826,6.7542,6.8013,6.8226,6.8173,6.9023,7.065,7.1458,7.1819,7.1819,7.1887,7.1938,7.2101,7.2885,7.3252,7.3412,7.4286,7.512,7.5836,0.0,0.0,2.2313,2.2313,0.0,0.0,0.0,0.0,2.2313,2.2313,2.2455,2.3069,2.4503,2.5377,0.0,2.7926,2.8841,2.9322,2.9384,3.0695,3.1817,3.2554,3.5729,3.7623,3.8007,3.8354,3.8176,3.7447,3.8252,3.9048,3.9848,4.0619,4.1048,4.1223,4.1863,4.0903,3.8707,3.7073,3.6244,3.6038,3.6038,3.5923,3.5769,3.5962,3.5808,0.0,0.0,0.0,0.0,0.0,0.0,0.0,3.6462,3.7623,3.8887,3.9689,4.1921,4.4136,4.4111,4.6238,4.8616,4.9219,5.0719,5.231,5.3613,5.4435,5.5214,5.6271,5.6507,5.6741,5.7557,5.8414,5.9271,6.0168,6.1023,6.1607,6.1607,6.1607,6.1607,6.1607,6.1607,6.227,6.3945,6.4099,6.48,6.6554,6.6709,6.6709,6.6709,6.6709,6.6709,6.6709,6.6709,6.6709,6.6709,6.6709,6.7021,6.7722,6.7912,6.8694,7.0024,6.9952,7.0536,7.1536,7.1739,7.1819,7.1819,7.1887,7.2298,7.2944,7.3124,7.361,7.4325,7.5188,7.5674,7.5963,0.0,0.0,0.0,0.0,0.0,0.0,0.0,0.0,2.3713,2.3185,2.3083,2.3603,2.5057,2.5237,0.0,0.0,2.8296,2.8898,2.9518,3.0544,3.1805,3.3297,3.5923,3.7196,3.6811,3.7196,3.7207,3.6793,3.6832,3.7765,3.9524,4.0715,4.168,4.2426,4.2454,4.1057,3.8515,3.6832,3.5894,3.55,3.55,3.55,3.55,3.55,3.4962,3.4196,3.3737,0.0,0.0,0.0,0.0,0.0,0.0,0.0,3.7735,3.9027,4.0966,4.2959,4.4245,4.6546,4.8795,4.9673,5.1552,5.3344,5.3812,5.4905,5.5957,5.6427,5.6507,5.6855,5.8102,5.8687,5.9427,6.0711,6.1295,6.1607,6.1607,6.1607,6.1607,6.1607,6.1607,6.227,6.3945,6.4099,6.48,6.6554,6.6699,6.6691,6.6691,6.6677,6.6633,6.6633,6.6633,6.6633,6.6633,6.7058,6.7484,6.7951,6.8808,6.9871,7.1174,7.1135,7.1377,7.1819,7.1819,7.1819,7.1858,7.2316,7.281,7.3263,7.4102,7.4706,7.5229,7.6088,7.6452,7.6546,0.0,0.0,0.0,0.0,0.0,0.0,0.0,0.0,0.0,2.4101,2.4074,2.4579,2.5768,2.543,2.5729,0.0,0.0,0.0,2.9438,3.0654,3.224,3.4343,3.5888,3.6385,3.5731,3.6231,3.65,3.65,3.5846,3.7076,4.0053,4.1136,4.2609,4.4244,4.331,4.154,3.9169,3.7154,3.58,3.5038,3.4885,3.4923,3.5038,3.4885,3.4042,3.2891,3.2737,3.324,3.401,3.4167,0.0,0.0,0.0,0.0,3.5961,3.8281,3.9748,4.1294,4.4644,4.7198,4.9354,5.1096,5.2706,5.3929,5.4084,5.5372,5.6507,5.6507,5.6507,5.7011,5.8687,5.8999,5.9583,6.1334,6.1607,6.1607,6.1607,6.1607,6.1607,6.1607,6.1607,6.227,6.3945,6.4099,6.4839,6.6587,6.6686,6.671,6.6666,6.6639,6.6585,6.6585,6.6585,6.6585,6.6585,6.7473,6.7976,6.8131,6.9886,7.1073,7.1812,7.18,7.1814,7.1819,7.1819,7.1897,7.2092,7.2859,7.3351,7.3764,7.5233,7.5875,7.6122,7.6827,7.7111,7.7085,0.0,0.0,0.0,0.0,0.0,0.0,0.0,0.0,0.0,0.0,2.4559,2.4984,2.5061,2.5574,2.588,2.5721,2.7148,2.8218,2.8651,0.0,0.0,3.5269,3.6196,3.6657,3.6538,3.5962,3.5654,3.5654,3.5538,3.7938,4.2583,4.1278,4.1998,4.4248,4.2739,4.1033,3.9099,3.5968,3.4099,3.3199,3.2503,3.2619,3.316,3.2465,3.2506,3.2814,3.2122,3.2391,3.3199,3.3933,3.4279,0.0,0.0,0.0,3.5733,3.6878,3.8401,4.0281,4.3075,4.6765,5.0256,5.1988,5.3174,5.4084,5.4864,5.5801,5.6507,5.6507,5.6507,5.7011,5.8687,5.8999,5.9583,6.1334,6.1607,6.1607,6.1607,6.1607,6.1607,6.1607,6.1607,6.227,6.3945,6.4099,6.4831,6.6563,6.6713,6.666,6.663,6.6588,6.6585,6.6585,6.6585,6.6585,6.6585,6.7473,6.829,6.9069,7.0742,7.1618,7.1806,7.1812,7.1791,7.1819,7.1819,7.2245,7.2949,7.3132,7.4044,7.5418,7.5696,7.6257,7.6924,7.7056,7.7111,7.7084,0.0,0.0,0.0,0.0,0.0,0.0,0.0,0.0,0.0,0.0,0.0,2.5665,2.5832,2.5777,2.5617,2.5406,2.612,2.7083,2.8188,3.0635,3.2558,3.3826,3.4805,3.5315,3.5315,3.4968,3.5003,3.55,3.4503,3.7157,4.3085,4.1816,4.3355,4.7061,4.4503,4.2099,3.9711,3.5859,3.3732,3.2814,3.2006,3.3042,3.4773,3.2542,3.2811,3.4042,3.1772,3.1503,3.2352,3.3199,3.3817,3.4356,3.5234,0.0,0.0,0.0,3.7412,3.9677,4.3815,4.7758,5.0989,5.2271,5.326,5.4123,5.502,5.5879,5.6507,5.6507,5.6855,5.7557,5.8765,5.9388,6.0129,6.1412,6.1607,6.1607,6.1607,6.1607,6.1607,6.1607,6.1607,6.227,6.3945,6.4086,6.4813,6.6558,6.6678,6.665,6.6594,6.6574,6.6521,6.6521,6.6521,6.6793,6.7263,6.815,6.9239,7.0564,7.1303,7.1675,7.175,7.1728,7.177,7.1819,7.2323,7.2752,7.3183,7.4208,7.5042,7.5762,7.6251,7.6741,7.7114,7.7084,7.7098,7.7151,0.0,0.0,0.0,0.0,0.0,0.0,0.0,0.0,0.0,0.0,0.0,2.647,2.6868,0.0,0.0,0.0,2.5416,2.6162,2.7978,3.0057,3.1515,3.2174,3.3435,3.3911,3.3489,3.3721,3.4083,3.4538,3.366,3.6622,4.3085,4.2923,4.538,4.9904,4.6789,4.3691,4.0589,3.7011,3.4856,3.3817,3.327,3.4485,3.6549,3.4924,3.5332,3.6388,3.3388,3.2619,3.3003,3.316,3.3664,3.4318,3.4965,3.5157,0.0,0.0,0.0,3.948,4.3923,4.747,5.0336,5.2154,5.3093,5.3982,5.5504,5.6201,5.6546,5.678,5.744,5.8297,5.9155,5.9856,6.0594,6.1451,6.1607,6.1607,6.1607,6.1607,6.1607,6.1607,6.1607,6.2267,6.3933,6.4107,6.483,6.6531,6.664,6.6602,6.6592,6.6524,6.6508,6.6508,6.6508,6.6936,6.7794,6.8878,7.016,7.1602,7.1602,7.1622,7.1699,7.1923,7.2056,7.2159,7.2827,7.3336,7.3843,7.5168,7.5844,7.61,7.6768,7.7031,7.7106,7.7346,7.7438,7.7571,0.0,0.0,0.0,0.0,0.0,0.0,0.0,0.0,0.0,0.0,0.0,2.729,2.7686,2.7016,2.6245,2.549,2.5416,2.6162,2.7978,2.994,0.0,0.0,3.2851,0.0,3.1489,3.2467,3.2622,3.1888,3.3394,3.7203,4.3128,4.4794,4.782,5.1659,4.9057,4.5594,4.1619,3.9819,3.8046,3.6524,3.6593,3.6668,3.7067,4.0254,4.0939,4.0015,3.8238,3.7081,3.6196,3.4664,3.4167,3.4205,3.4241,3.4279,3.4282,0.0,0.0,0.0,4.1912,4.4379,4.7367,5.1628,5.2676,5.3551,5.6911,5.7042,5.6702,5.7479,5.8336,5.9194,6.009,6.0282,6.0594,6.1451,6.1607,6.1607,6.1607,6.1607,6.1607,6.1607,6.1607,6.226,6.3943,6.4096,6.481,6.6461,6.6609,6.6553,6.6512,6.6508,6.6508,6.6508,6.6508,6.6936,6.7794,6.9422,7.0704,7.1602,7.1602,7.1622,7.1738,7.2559,7.2953,7.3026,7.3091,7.4038,7.5558,7.5674,7.6181,7.6927,7.6994,7.6983,7.7127,7.8006,7.8336,7.8469,0.0,0.0,0.0,0.0,0.0,0.0,0.0,0.0,0.0,0.0,0.0,0.0,0.0,2.7535,2.7053,2.6245,2.6755,2.7417,2.8062,2.9527,0.0,0.0,3.2518,3.2959,3.2342,3.2708,3.2776,3.2468,3.2545,3.5353,4.0704,4.2414,4.46,4.7014,4.7341,4.6248,4.3983,4.0184,3.8545,3.842,3.797,3.974,4.2566,4.1657,4.2742,4.4366,4.0989,3.9219,3.8337,3.7723,3.6754,3.5699,3.5196,3.4661,3.4205,3.4205,3.6662,3.9541,4.0266,4.3194,4.6567,4.8734,5.099,5.315,5.4885,5.6356,5.724,5.6979,5.8024,5.9116,5.9427,6.036,6.1257,6.1568,6.1607,6.1607,6.1607,6.1607,6.1607,6.1607,6.1556,6.2201,6.394,6.4058,6.4763,6.6454,6.6546,6.6524,6.6508,6.6508,6.6508,6.6508,6.6508,6.7208,6.8606,7.0316,7.1287,7.1602,7.1602,7.161,7.1661,7.2586,7.3327,7.3882,7.446,7.5069,7.5752,7.6298,7.6727,7.6999,7.7011,7.7345,7.788,7.8217,7.8708,7.9351,0.0,0.0,0.0,2.8506,0.0,2.7374,2.6716,2.6587,2.6717,2.6979,0.0,0.0,0.0,0.0,2.7789,2.6784,2.7643,2.824,2.824,2.9267,0.0,0.0,3.2063,3.2655,3.2387,3.3019,3.3045,3.2506,3.2545,3.4545,3.8469,4.0162,4.2162,4.4325,4.4425,4.4906,4.5441,4.1825,4.0638,4.1172,4.1302,4.3226,4.6027,4.6089,4.7097,4.8094,4.5265,4.3468,4.2291,4.1117,3.9944,3.8688,3.6957,3.5188,3.3779,3.3779,3.5827,3.8167,3.8483,4.1318,4.485,4.7596,4.9625,5.1746,5.4938,5.606,5.6551,5.6864,5.7791,5.8726,5.9349,6.036,6.1257,6.1568,6.1607,6.1607,6.1607,6.1561,6.1556,6.1556,6.1534,6.2054,6.348,6.3868,6.4577,6.6005,6.6368,6.6508,6.6508,6.6508,6.6508,6.6508,6.7052,6.7942,6.9107,7.0743,7.1602,7.1602,7.1602,7.1753,7.2064,7.299,7.3881,7.4735,7.5666,7.606,7.6181,7.6765,7.6999,7.7038,7.7311,7.7796,7.8372,7.8974,7.9587,8.0238,2.9161,2.9815,3.0175,2.9717,2.8999,2.8341,2.7943,2.7253,2.7032,2.7783,0.0,0.0,0.0,0.0,0.0,2.721,2.8026,2.8608,2.8566,2.9301,2.9703,2.9703,3.1575,3.2218,3.1367,3.3234,3.3394,3.1772,3.3394,3.501,3.6657,3.8392,4.0935,4.397,4.0743,4.1679,4.5593,4.4666,4.445,4.4933,4.6592,4.6851,4.697,5.3717,5.4134,5.113,5.1086,5.0015,4.8093,4.4688,4.3573,4.2958,3.9383,3.5847,3.3006,3.2968,3.4234,3.5813,0.0,0.0,0.0,4.8228,4.8541,4.9343,5.6991,5.6233,5.4596,5.7098,5.7635,5.8217,5.9893,6.0243,6.0555,6.1371,6.1568,6.1607,6.1605,6.1546,6.1492,6.1492,6.1501,6.1816,6.2637,6.345,6.4291,6.511,6.5961,6.647,6.647,6.6508,6.6508,6.6508,6.8175,6.9107,6.9107,7.0743,7.1602,7.1602,7.1602,7.2064,7.2914,7.3812,7.4692,7.5549,7.649,7.6936,7.6996,7.6996,7.7038,7.7116,7.797,7.8342,7.8561,8.0282,8.0939,8.1055,3.0654,3.0946,3.1045,3.0916,3.0709,3.0387,2.9901,3.0134,3.0293,0.0,0.0,0.0,3.1682,3.2002,3.2084,3.1713,3.1569,3.1218,3.0559,3.0334,3.0208,3.0208,3.1875,3.2711,3.2477,3.3602,3.3971,3.351,3.3356,3.3817,3.4933,3.6045,3.7696,3.9738,3.9434,4.0388,4.2051,3.9961,4.2017,4.654,4.5224,4.7568,5.1844,5.2541,5.3691,5.4704,5.2784,5.1774,5.0908,4.8033,4.6255,4.4506,4.0444,3.7543,3.5542,3.4965,3.643,3.8022,3.7034,0.0,0.0,0.0,0.0,0.0,5.0015,5.2318,5.4105,5.481,5.6366,5.7775,5.8242,5.8865,5.9371,5.9605,6.0713,6.1534,6.1512,6.1501,6.1495,6.1495,6.1469,6.1755,6.2637,6.2924,6.3411,6.4255,6.5106,6.5572,6.5572,6.6155,6.6508,6.6508,6.8175,6.9107,6.9107,7.0743,7.1602,7.1602,7.1602,7.2064,7.2914,7.3812,7.4692,7.5549,7.649,7.6922,7.6923,7.6987,7.7389,7.797,7.8204,7.9029,8.0171,8.0703,8.1267,8.179,3.2308,3.2969,3.3336,3.2963,3.3308,3.3425,3.2791,3.3163,3.3458,0.0,0.0,0.0,3.4301,3.5164,3.5452,3.4768,3.3837,3.2903,3.2015,3.1335,3.0923,3.0923,3.2195,3.3237,3.3965,3.4468,3.4737,3.4737,3.3853,3.3702,3.4205,3.4737,3.5657,3.6969,3.6764,3.7602,3.9036,3.6544,3.9486,4.5963,4.703,4.9412,5.2529,5.4045,5.4965,5.5286,5.4433,5.3898,5.3268,5.1364,4.9072,4.6497,4.324,4.0723,3.8767,3.7477,3.8691,4.0124,3.8724,4.0352,4.2591,4.3206,0.0,0.0,4.9194,5.1168,5.2658,5.4051,5.5797,5.7136,5.7515,5.8004,5.8459,5.882,5.9735,6.0522,6.0903,6.0966,6.1074,6.1424,6.1434,6.1606,6.2108,6.2479,6.2896,6.3401,6.4216,6.4834,6.5184,6.5689,6.6116,6.6508,6.7829,6.8719,6.9107,7.0393,7.1248,7.1602,7.1602,7.2258,7.3458,7.3967,7.4874,7.6026,7.6638,7.6908,7.6929,7.7368,7.7854,7.836,7.9062,7.9958,8.0857,8.1268,8.1714,8.2117,0.0,3.531,3.611,3.5441,3.6259,3.6805,3.6209,3.6303,3.6482,0.0,3.6567,3.7012,3.8014,3.8876,3.8757,3.7275,3.5694,3.4356,3.3391,3.2468,3.1929,3.1852,3.2622,3.3776,3.5308,3.5538,3.5577,3.55,3.4737,3.4279,3.4205,3.4087,3.4468,3.5161,3.365,3.438,3.6596,3.4796,3.7802,4.4297,4.9687,5.1481,5.1548,5.6822,5.6999,5.4643,5.5933,5.5931,5.5161,5.4141,5.1773,4.8917,4.703,4.4924,4.2769,4.0624,4.1266,0.0,4.1399,4.237,0.0,4.627,4.5334,0.0,5.1247,5.1253,5.0835,5.3662,5.4961,5.5864,5.6703,5.6977,5.7295,5.803,5.8389,5.8949,5.9919,6.005,6.03,6.1042,6.1204,6.126,6.126,6.2037,6.2546,6.2546,6.3362,6.4216,6.5029,6.5145,6.5572,6.6314,6.7285,6.8218,6.9107,6.9888,7.0743,7.1602,7.1602,7.2491,7.42,7.42,7.5094,7.6726,7.6817,7.6933,7.7095,7.8059,7.8435,7.8594,8.0192,8.0854,8.1049,8.1792,8.2086,8.2109,3.5679,3.6266,3.6774,3.7327,3.7814,3.8412,3.912,3.9271,3.9375,3.9588,4.0215,4.1519,4.372,4.2979,4.2151,4.1805,3.9646,3.7626,3.6042,3.4545,3.3394,3.2699,3.3471,3.4125,3.4433,3.5773,3.6154,3.55,3.5346,3.4891,3.4167,3.3471,3.3237,3.3397,3.3114,3.3757,3.5155,3.7489,4.0878,4.4835,4.6046,5.0444,5.6346,5.6812,5.7468,5.7959,5.6792,5.6283,5.5926,5.4333,5.3337,5.2283,4.9911,4.9253,4.8616,4.4775,4.5269,4.6597,4.4378,4.5418,4.6753,4.5239,4.6623,0.0,4.659,4.8606,5.0571,4.9846,5.0875,5.1984,5.2158,5.3344,5.4111,5.358,5.5253,5.7211,5.883,5.9063,5.9137,5.9293,5.9947,6.0332,6.0332,6.1144,6.1649,6.1649,6.2468,6.3323,6.4178,6.4834,6.5262,6.5456,6.6975,6.8218,6.9107,6.9888,7.0743,7.1602,7.1602,7.2491,7.42,7.42,7.5094,7.6687,7.6781,7.7214,7.7952,7.8893,7.9273,7.9373,8.0386,8.1247,8.1873,8.2029,8.211,8.208,3.6996,3.8014,3.8939,3.9364,4.0396,4.1362,4.1899,4.2097,4.2709,4.4115,4.5432,4.624,4.624,4.5509,4.4816,4.4397,4.2008,3.9815,3.8123,3.6392,3.5084,3.4234,3.4202,3.4779,3.6087,3.608,3.6311,3.6734,3.5923,3.5082,3.4234,3.4242,3.4295,3.434,3.4437,3.5445,3.7248,3.8576,4.167,4.5886,4.8464,5.2583,5.7223,5.8083,5.8657,5.8944,5.7975,5.7362,5.6942,5.6497,5.548,5.4232,5.3352,5.3116,5.2471,4.8991,4.9147,4.988,4.7304,4.7371,4.8109,4.7689,4.7599,0.0,0.0,4.8319,4.9226,5.0081,5.0585,5.1141,5.204,5.2549,5.2803,5.2848,5.4297,5.5932,5.7253,5.7889,5.835,5.8735,5.9205,5.9438,5.9438,6.0254,6.0911,6.1377,6.1804,6.2426,6.3323,6.4139,6.4795,6.5184,6.647,6.779,6.9107,6.9496,7.0354,7.1602,7.1602,7.2491,7.42,7.42,7.5094,7.6687,7.6773,7.7284,7.8185,7.912,7.9777,8.0231,8.113,8.1714,8.2107,8.2107,8.2107,8.211,3.824,3.9712,4.1024,4.1181,4.2764,4.4014,4.4205,4.4402,4.5509,4.824,4.9971,5.0289,4.8576,4.8229,4.7926,4.7396,4.4696,4.2452,4.1089,3.8931,3.7311,3.6504,3.5315,3.5703,3.7969,3.6504,3.6329,3.7557,3.6363,3.5282,3.4369,3.5236,3.5691,3.5824,3.6195,3.7822,4.0293,4.0309,4.32,4.8192,5.2876,5.5161,5.6095,5.8942,5.9391,5.8533,5.8821,5.8459,5.7932,5.847,5.7527,5.6102,5.6094,5.6113,5.5642,5.2856,5.2774,5.3086,5.0818,5.0096,5.0171,5.0787,4.9227,4.7912,0.0,0.0,0.0,5.037,5.0293,5.0319,5.1944,5.1739,5.1592,5.2331,5.3463,5.4459,5.4997,5.5919,5.7003,5.8171,5.845,5.8534,5.8534,5.9357,6.0215,6.1066,6.1144,6.1532,6.2387,6.3284,6.4139,6.4951,6.5805,6.7087,6.8835,6.903,6.9849,7.1365,7.1524,7.2491,7.42,7.42,7.5094,7.6687,7.6764,7.7388,7.8407,7.9187,8.0078,8.1117,8.1831,8.2107,8.2107,8.2107,8.2107,8.2107,3.9473,4.0393,4.1505,4.2278,4.3446,4.4517,4.5286,4.5423,4.6629,4.9976,5.1202,5.2276,5.3571,5.304,5.2847,5.3503,4.9886,4.7422,4.7129,4.3427,4.0854,3.9973,3.7661,3.6927,3.7969,3.7042,3.635,3.5875,3.6453,3.5975,3.4492,3.5316,3.5721,3.5862,3.7408,3.9581,4.2207,4.5222,4.9052,5.3386,5.6221,5.5662,5.3584,5.7616,5.8152,5.6969,5.8403,5.8849,5.8636,5.798,5.8613,5.9207,5.6188,5.7325,5.9157,5.5748,5.5899,5.6872,5.5817,5.5859,5.5362,5.1914,5.281,5.3104,4.7599,0.0,4.8609,4.6724,0.0,4.6497,4.7464,0.0,0.0,4.8696,5.0785,5.2155,5.1498,5.2209,5.3724,5.6187,5.7197,5.7645,5.7645,5.845,5.9322,6.0176,6.0254,6.0642,6.1494,6.2387,6.3245,6.4104,6.4912,6.6194,6.795,6.8719,6.9535,7.0471,7.1209,7.2491,7.42,7.42,7.5094,7.6682,7.6726,7.7693,7.9259,7.9376,8.0387,8.1863,8.2056,8.2107,8.2107,8.2107,8.2107,8.2224,3.9967,4.1208,4.2448,4.2836,4.4106,4.5167,4.5556,4.8552,5.0938,5.1356,5.4274,5.6452,5.6837,5.4774,5.3945,5.5415,5.2041,4.9624,4.9123,4.5962,4.3956,4.3573,4.0561,3.9088,3.9434,3.8186,3.7148,3.6361,3.6245,3.5629,3.4577,3.5946,3.7141,3.8262,4.0499,4.3468,4.6977,4.9478,5.213,5.4815,5.6405,5.6205,5.5382,5.965,6.1131,6.0918,6.1109,6.1156,6.0944,5.9521,5.9558,5.9925,5.8467,5.9065,5.9901,5.7967,5.7949,5.8274,5.6906,5.6619,5.6196,5.3877,5.3123,5.2043,4.8668,4.7542,4.7167,4.7086,0.0,0.0,0.0,0.0,0.0,0.0,4.9844,5.0626,5.0742,5.1112,5.2193,5.4367,5.4562,5.5369,5.7432,5.8292,5.9142,6.0104,6.0135,6.0254,6.0642,6.1963,6.309,6.3987,6.4795,6.6039,6.7794,6.8645,6.9496,7.0316,7.1714,7.2996,7.42,7.4706,7.5599,7.6721,7.7226,7.8189,7.9441,7.9885,8.0851,8.2018,8.2019,8.2088,8.2146,8.2653,8.2848,8.2964,4.0949,4.2091,4.3162,4.3393,4.4628,4.5851,4.6586,5.0808,5.3812,5.3469,5.6859,5.9386,5.9608,5.7016,5.605,5.8147,5.4938,5.2625,5.2256,4.9554,4.7935,4.792,4.4358,4.2349,4.2369,4.0068,3.8464,3.7679,3.6821,3.6185,3.5723,3.6974,3.8548,4.0391,4.3164,4.6679,5.0618,5.3075,5.5215,5.7076,5.8162,5.9012,5.982,6.1559,6.3136,6.4324,6.3468,6.3142,6.285,6.1061,6.064,6.0675,5.996,6.008,6.033,5.951,5.9527,5.9481,5.7996,5.766,5.7182,5.4831,5.2936,5.1089,4.8994,4.7573,4.6951,4.7945,4.7708,0.0,0.0,0.0,4.8279,4.924,0.0,4.9536,4.9652,4.9727,5.0596,5.2895,5.295,5.3783,5.6395,5.7092,5.7881,5.9028,5.909,5.9348,6.0063,6.1303,6.2507,6.3595,6.445,6.5576,6.7052,6.8447,6.9379,7.0005,7.1943,7.3342,7.4239,7.5098,7.5949,7.676,7.7619,7.8535,7.9424,8.0245,8.1126,8.1975,8.1979,8.2168,8.2507,8.315,8.3549,8.39,4.3,4.3043,4.3355,4.4124,4.5013,4.6497,4.9093,5.1192,5.3641,5.6908,5.8145,5.9724,6.227,6.0975,6.09,6.3435,5.9763,5.7592,5.837,5.5239,5.3346,5.3344,4.9306,4.7074,4.7079,4.2955,4.0418,3.9612,3.8753,3.8382,3.8476,3.8516,3.9492,4.1328,4.4687,4.8125,5.164,5.5854,5.9129,6.1627,6.3288,6.5445,6.7089,6.2247,6.2426,6.5142,6.4363,6.4031,6.3704,6.2021,6.1965,6.2178,5.9655,5.996,6.1085,6.0239,6.0597,6.1149,6.0296,6.0587,5.9769,5.4081,5.3093,5.2244,4.7311,4.7908,4.9234,4.8459,5.0117,5.1731,5.1808,5.1125,5.0322,0.0,4.9399,0.0,0.0,4.7075,4.8427,5.1923,5.3171,5.3843,5.4016,5.4052,5.4728,5.6303,5.6412,5.7506,5.9989,6.0137,6.0953,6.2701,6.3595,6.445,6.5262,6.7825,6.9107,6.9185,7.1671,7.3342,7.4239,7.5098,7.5949,7.676,7.7619,7.8513,7.9376,8.0232,8.1109,8.1891,8.1975,8.2536,8.3287,8.3367,8.3939,8.4793,4.4628,4.4744,4.4667,4.4355,4.5098,4.6812,5.0104,5.3973,5.7622,6.0511,6.2563,6.5057,6.8355,6.5099,6.3517,6.5657,6.1344,5.859,5.8882,5.6697,5.5629,5.6233,5.3193,5.0667,4.8976,4.6505,4.3946,4.1414,4.0654,4.0226,4.0174,4.0176,4.1114,4.291,4.5765,4.9286,5.3393,5.7686,6.0991,6.3499,6.5244,6.6753,6.7753,6.5433,6.5572,6.6815,6.5427,6.5261,6.545,6.3683,6.3637,6.4004,6.1904,6.1686,6.1977,6.1116,6.1077,6.1271,6.1001,6.1589,6.1268,5.6909,5.5211,5.3511,4.9462,4.9592,5.0159,4.8618,5.0732,5.267,5.2006,5.1241,0.0,0.0,0.0,4.8163,0.0,4.7017,4.7546,4.8792,5.1133,5.2543,5.2288,5.3682,5.5126,5.6346,5.6941,5.8098,6.005,6.0708,6.1534,6.2663,6.3556,6.4372,6.5184,6.7787,6.9107,6.9146,7.2254,7.3929,7.4239,7.5638,7.6449,7.676,7.8241,7.9022,7.9411,8.0862,8.1644,8.1959,8.2552,8.3351,8.4094,8.4116,8.468,8.5537,4.6013,4.6086,4.5926,4.5334,4.6581,4.8899,5.2454,5.6344,5.9712,6.198,6.3719,6.5843,6.8791,6.5863,6.4365,6.6173,6.2967,6.0857,6.0857,5.9759,5.9348,5.991,5.7717,5.5387,5.3159,5.1211,4.8397,4.4637,4.3866,4.308,4.2336,4.2085,4.2709,4.4135,4.7088,5.0303,5.3823,5.8432,6.2048,6.4847,6.719,6.8431,6.883,6.8229,6.7804,6.7349,6.6513,6.6347,6.6312,6.4854,6.4718,6.4878,6.3404,6.2749,6.2416,6.1822,6.145,6.1116,6.083,6.1436,6.1274,5.7444,5.596,5.4498,5.0989,5.1272,5.1849,5.0345,5.2506,5.4443,5.3841,5.2839,5.1857,0.0,0.0,0.0,0.0,4.6542,4.6626,4.6779,4.9219,5.0897,5.0887,5.2016,5.3504,5.5381,5.602,5.7315,5.9663,6.0573,6.1426,6.2258,6.3383,6.4255,6.4757,6.7631,6.9107,6.9146,7.2569,7.42,7.4278,7.5944,7.6682,7.6799,7.8552,7.9294,7.945,8.1193,8.1892,8.1975,8.2823,8.3692,8.4513,8.485,8.5494,8.635,4.7176,4.7264,4.7467,4.7456,4.9592,5.2542,5.6014,5.8153,6.0037,6.1794,6.2025,6.2686,6.4483,6.3842,6.3907,6.547,6.4741,6.4212,6.4212,6.4193,6.4197,6.4193,6.2613,6.0953,5.9243,5.6821,5.3469,4.914,4.8242,4.6791,4.4918,4.4135,4.4134,4.5036,4.8511,5.1055,5.3086,5.8125,6.2337,6.585,6.9063,7.0408,7.0442,7.0398,6.8926,6.6891,6.7577,6.7215,6.6324,6.5513,6.5183,6.4913,6.4052,6.3202,6.2491,6.2331,6.1697,6.0866,5.9999,6.0451,6.0165,5.606,5.5571,5.5264,5.1901,5.2895,5.4269,5.3377,5.526,5.7038,5.6978,5.5663,5.4029,0.0,0.0,0.0,4.6204,4.5762,4.5863,4.6178,4.7646,4.8935,4.9722,4.9176,5.0136,5.3405,5.3756,5.533,5.8866,5.9789,6.0643,6.1531,6.3194,6.4068,6.4065,6.7402,6.9107,6.9146,7.2569,7.42,7.4278,7.5944,7.6682,7.6799,7.8552,7.9294,7.945,8.1193,8.1892,8.197,8.283,8.3718,8.4622,8.5534,8.6384,8.7085,4.9053,5.1056,5.3332,5.4677,5.4984,5.5806,5.8114,6.05,6.3078,6.6086,6.6475,6.7372,6.9755,6.8101,6.6956,6.7386,6.5445,6.4212,6.4212,6.4207,6.4201,6.4195,6.3758,6.2715,6.0987,5.9698,5.6949,5.2688,5.1164,4.9163,4.6715,4.5247,4.5012,4.5856,4.7397,5.0188,5.3867,5.7148,6.1598,6.658,6.8053,6.9048,6.9672,7.0191,6.9613,6.8496,6.7967,6.7619,6.7256,6.6373,6.6048,6.5799,6.4943,6.4468,6.3992,6.2707,6.2066,6.1643,6.0817,6.1263,6.1561,5.9757,5.8607,5.736,5.5113,5.5571,5.5878,5.3649,5.627,5.8192,5.5574,5.5257,5.4652,5.2338,5.0519,4.8763,4.6896,4.7083,4.755,4.7851,4.76,4.7374,4.7257,4.8726,5.0592,5.2803,5.3481,5.5614,5.981,6.0232,6.1012,6.2427,6.4076,6.4925,6.4873,6.7709,6.9107,6.9146,7.2569,7.42,7.4278,7.5944,7.6682,7.6799,7.8552,7.9294,7.945,8.1193,8.1892,8.2048,8.3485,8.5,8.6365,8.6588,8.6831,8.7025,5.1953,5.5341,5.872,5.9828,6.1156,6.182,6.0972,6.2415,6.4247,6.6196,6.6427,6.7011,6.8457,6.7666,6.6994,6.6994,6.5963,6.5328,6.5328,6.532,6.5351,6.5338,6.5318,6.4657,6.3318,6.2801,6.0135,5.5104,5.3775,5.115,4.738,4.6113,4.5721,4.6169,4.7873,5.0426,5.375,5.8631,6.3078,6.697,6.8905,6.9725,0.0,7.1044,7.0983,7.0144,6.9224,6.8588,6.8075,6.7216,6.6893,6.6685,6.5745,6.5201,6.47,6.3648,6.2772,6.1984,6.1532,6.1505,6.1386,6.0452,5.9543,5.8515,5.7129,5.6884,5.6522,5.5,5.6361,5.7343,5.5794,5.5259,5.4249,5.1734,4.9913,4.8509,4.7543,4.812,4.8454,4.7911,4.8002,4.7603,4.6244,4.7364,4.9069,5.1253,5.2516,5.4635,5.7999,5.9538,6.0937,6.2238,6.3831,6.5044,6.5767,6.7981,6.9263,6.9651,7.2724,7.42,7.4278,7.5944,7.6682,7.6799,7.8552,7.9294,7.945,8.1193,8.1892,8.2087,8.3757,8.5467,8.6987,8.6987,8.6987,8.6987,5.5575,5.9886,6.3497,6.3515,6.6952,6.8397,6.445,6.4564,6.5105,6.498,6.4971,6.4964,6.4964,6.5625,6.6092,6.6092,6.6756,6.7148,6.7148,6.7136,6.7127,6.7125,6.7091,6.6734,6.6021,6.6005,6.2982,5.6858,5.6038,5.2791,4.7391,4.6637,4.6246,4.6258,4.8864,5.1289,5.3867,6.1164,6.5333,6.7232,7.0488,7.1357,7.0898,7.2341,7.2418,7.1641,7.0783,6.9859,6.8917,6.806,6.7657,6.7325,6.6537,6.5705,6.5016,6.476,6.3602,6.2385,6.2139,6.1502,6.0647,5.9784,5.946,5.914,5.8323,5.7512,5.6861,5.6632,5.6148,5.5901,5.6452,5.5215,5.3425,5.1249,4.9606,4.8609,4.8567,4.9253,4.9281,4.7988,4.9051,0.0,4.7087,4.6424,4.7197,4.978,5.1477,5.339,5.566,5.8573,6.0698,6.1876,6.3317,6.4928,6.6656,6.8292,6.9496,7.0316,7.2957,7.42,7.4278,7.5944,7.6682,7.6799,7.8552,7.9294,7.945,8.1193,8.197,8.2203,8.3796,8.5389,8.6831,8.6948,8.6987,8.6987,6.0179,6.4136,6.703,6.6328,6.918,7.082,6.8591,6.9018,6.9326,6.8582,6.8496,6.8529,6.8529,6.8637,6.8747,6.8747,6.8865,6.8943,6.8943,6.8941,6.8934,6.892,6.8914,6.8821,6.8635,6.8631,6.5338,5.8631,5.7771,5.4001,4.7538,4.6719,4.6289,4.6366,4.8281,5.207,5.7304,6.2174,6.5638,6.809,7.0663,7.2036,7.2566,7.2808,7.2772,7.2495,7.16,7.07,6.9764,6.8898,6.8052,6.7387,6.7222,6.6537,6.5647,6.4929,6.4458,6.3858,6.2413,6.1888,6.1543,6.0546,6.0308,6.0045,5.9136,5.8765,5.8268,5.6899,5.7105,5.6977,5.504,5.3869,5.3069,5.2658,5.1852,5.1275,5.1095,5.1494,5.1871,5.2144,5.1885,5.1767,5.2066,4.9628,4.881,5.0735,5.182,5.4106,5.8063,5.9443,6.1149,6.3417,6.4503,6.5857,6.7467,6.8548,6.9496,7.0316,7.2957,7.42,7.4278,7.5944,7.6682,7.6799,7.8552,7.9294,7.945,8.1193,8.2281,8.2985,8.399,8.5039,8.601,8.6715,8.6987,8.6987,6.6679,6.8711,7.0312,7.082,7.2265,7.289,7.1601,7.2147,7.191,6.9678,6.9401,6.9398,6.9398,6.9389,6.9383,6.9383,6.9416,6.9412,6.9412,6.9412,6.9408,6.9401,6.9393,6.9375,6.9307,6.9294,6.6385,6.0382,5.8662,5.4743,4.8906,4.7148,4.6523,4.7109,5.0195,5.4647,6.0029,6.3454,6.6858,7.0151,7.222,7.3285,7.3655,7.4041,7.3862,7.3307,7.2439,7.1807,7.1174,6.9821,6.9077,6.8519,6.7606,6.7008,6.6452,6.5575,6.4936,6.4373,6.3534,6.2938,6.229,6.1374,6.1096,6.0825,5.9939,5.9352,5.8811,5.7974,5.7798,5.7291,5.5682,5.4439,5.3815,5.4359,5.3837,5.3522,5.3972,5.4194,5.408,5.3399,5.3402,5.2713,5.0791,4.9685,4.9807,5.1558,5.2072,5.383,5.7344,5.9555,6.1492,6.3174,6.4488,6.6186,6.8308,6.8821,6.97,7.1016,7.3178,7.42,7.4278,7.5944,7.6682,7.6799,7.8552,7.9294,7.945,8.1193,8.2359,8.3179,8.4068,8.4923,8.5816,8.6676,8.6987,8.6987,7.1172,7.1874,7.2656,7.3827,7.4491,7.457,7.371,7.4453,7.3906,7.0424,7.0109,7.0226,7.0226,7.0375,7.0526,7.0526,7.0516,7.0509,7.0509,7.0506,7.0465,7.0465,7.0336,7.0203,7.014,6.9965,6.7401,6.2442,5.9869,5.599,5.0937,4.8515,4.8125,4.9647,5.3592,5.8074,6.2843,6.5451,6.875,7.2371,7.3915,7.4631,7.4766,7.523,7.4907,7.4144,7.3284,7.28,7.2346,7.0931,7.0174,6.9654,6.8223,6.748,6.7038,6.6359,6.5487,6.4743,6.4518,6.39,6.3075,6.2174,6.1774,6.1397,6.0721,5.986,5.9183,5.8934,5.8226,5.7434,5.6844,5.5618,5.4927,5.5776,5.5146,5.4893,5.5856,5.5946,5.5372,5.3941,5.4632,5.3658,4.9779,4.9796,5.0759,5.2351,5.2464,5.3812,5.6861,5.989,6.1912,6.28,6.4244,6.6249,6.8878,6.8933,6.9968,7.1874,7.3428,7.427,7.4511,7.6022,7.6799,7.7071,7.8629,7.9527,7.9955,8.131,8.2281,8.2946,8.399,8.4806,8.5544,8.6598,8.6987,8.6987,6.9756,7.1553,7.2998,7.2334,7.4209,7.5498,7.46,7.5893,7.5702,7.2226,7.242,7.2927,7.2927,7.3625,7.4128,7.4128,7.4121,7.4115,7.4115,7.4064,7.4017,7.4017,7.3313,7.2908,7.2832,7.2047,6.9506,6.5131,6.2512,5.8636,5.3581,5.1795,5.2614,5.5793,5.8488,6.2137,6.6375,6.8881,7.1527,7.4119,7.5039,7.5819,7.639,7.5682,7.527,7.4983,7.4082,7.3237,7.2482,7.2223,7.1163,6.9877,6.9643,6.8424,6.709,6.6941,6.6338,6.5498,6.4555,6.4238,6.3942,6.3028,6.2153,6.1491,6.1407,6.0661,5.9802,5.9033,5.8196,5.7579,5.7503,5.6764,5.6228,5.6345,5.5201,5.4538,5.5191,5.5018,5.4951,5.5259,5.6237,5.6091,5.4103,5.2559,5.2149,5.3305,5.3399,5.5153,5.9252,6.1282,6.2694,6.3555,6.4512,6.6273,6.8874,6.8917,7.0165,7.2694,7.3634,7.4554,7.5409,7.6298,7.711,7.793,7.8906,8.0188,8.1659,8.1815,8.1931,8.2164,8.3757,8.4452,8.4728,8.6404,8.6987,8.6987,7.4012,7.4051,7.4442,7.5652,7.5027,7.4754,7.5926,7.585,7.5151,7.3748,7.3867,7.4062,7.4062,7.4372,7.4604,7.4604,7.4594,7.4585,7.4585,7.4533,7.4486,7.4486,7.4173,7.4002,7.3963,7.3649,7.1575,6.7781,6.4696,6.1056,5.7017,5.4764,5.5816,5.9693,6.2787,6.6211,6.9807,7.1332,7.3427,7.5778,7.6082,7.6427,7.6652,7.6269,7.6054,7.5863,7.4934,7.4054,7.3204,7.2603,7.1589,7.0459,6.9926,6.9199,6.8331,6.7305,6.673,6.6186,6.5279,6.4998,6.471,6.3795,6.3291,6.2712,6.1629,6.108,6.0584,5.9694,5.8851,5.8312,5.8304,5.7657,5.7177,5.734,5.6906,5.6662,5.7058,5.6989,5.6788,5.6425,5.6352,5.5421,5.3105,5.1375,5.1239,5.3298,5.2059,5.288,5.6699,5.9011,6.0847,6.2232,6.4584,6.6794,6.8813,6.9367,7.068,7.2754,7.3675,7.457,7.5481,7.6324,7.7464,7.8823,7.9717,8.0766,8.1892,8.1892,8.1892,8.2087,8.3757,8.4413,8.4612,8.6365,8.6987,8.6987,7.6226,7.5367,7.5212,7.7286,7.5645,7.4747,7.6777,7.6116,7.5338,7.5343,7.5349,7.5273,7.5,7.5195,7.535,7.535,7.5343,7.5373,7.5332,7.5281,7.5271,7.5266,7.5032,7.4861,7.4899,7.4624,7.3287,7.0807,6.7649,6.471,6.2036,5.9711,6.0639,6.4335,6.7255,7.0149,7.2868,7.3727,7.5117,7.6703,7.6703,7.6667,7.6642,7.6602,7.651,7.6377,7.5695,7.4896,7.3991,7.3073,7.2103,7.1163,7.0308,6.9791,6.9275,6.8042,6.7266,6.6673,6.6039,6.5627,6.5207,6.4542,6.4145,6.3624,6.2325,6.182,6.1362,6.044,5.9638,5.9109,5.9109,5.8464,5.7996,5.8177,5.8016,5.791,5.8124,5.8171,5.7945,5.732,5.6989,5.5864,5.3492,5.2063,5.1979,5.3663,5.1776,5.228,5.6308,5.8426,6.0319,6.1977,6.5078,6.74,6.8772,6.9631,7.109,7.308,7.3743,7.464,7.5775,7.6899,7.8078,7.9287,8.0451,8.1262,8.1849,8.1849,8.1859,8.2024,8.3461,8.417,8.4568,8.6049,8.6792,8.6987,7.4535,7.4536,7.4778,7.5694,7.5816,7.6088,7.6945,7.7076,7.7084,7.7084,7.7139,7.6834,7.5976,7.664,7.7187,7.7187,7.7186,7.7143,7.706,7.705,7.7077,7.7062,7.6244,7.576,7.5799,7.4938,7.4446,7.435,7.1785,7.005,6.9151,6.7368,6.7913,7.0382,7.2137,7.3879,7.5526,7.6298,7.666,7.6696,7.6696,7.6632,7.6488,7.6488,7.6455,7.6397,7.6326,7.5684,7.4732,7.3882,7.292,7.1915,7.1063,7.0172,6.9484,6.9329,6.8097,6.6773,6.6697,6.6001,6.529,6.5282,6.4552,6.382,6.3782,6.3053,6.2159,6.1258,6.0462,5.9893,5.9893,5.9211,5.8688,5.8688,5.8038,5.7521,5.7529,5.7623,5.7742,5.7772,5.8616,5.8528,5.6891,5.613,5.5471,5.4837,5.3412,5.477,5.9776,6.0832,6.2051,6.37,6.621,6.7926,6.8772,6.9595,7.1329,7.3976,7.3937,7.486,7.6651,7.8323,7.9099,7.9215,8.0921,8.1696,8.1696,8.1696,8.1729,8.1897,8.2785,8.363,8.449,8.5389,8.6243,8.6987,7.7751,7.7987,7.8074,7.8407,7.845,7.8531,7.8817,7.8862,7.8869,7.8878,7.8885,7.8816,7.8513,7.7734,7.7187,7.7187,7.7186,7.7182,7.7099,7.709,7.7116,7.7101,7.6828,7.6656,7.6618,7.6343,7.5888,7.5285,7.3344,7.1616,7.0183,7.0722,7.1725,7.3114,7.4791,7.5823,7.6333,7.6573,7.671,7.6691,7.6657,7.6596,7.6483,7.6483,7.6426,7.6332,7.6307,7.5652,7.4776,7.4524,7.3381,7.2054,7.1726,7.0976,7.0111,6.949,6.8901,6.815,6.6879,6.6343,6.5952,6.5259,6.4841,6.444,6.3803,6.301,6.2151,6.1296,6.0917,6.0538,6.0007,5.9704,5.9325,5.8794,5.8477,5.8129,5.7575,5.809,5.8351,5.7873,5.8131,5.7972,5.6885,5.5621,5.5514,5.7128,5.4794,5.4321,5.6696,5.8623,6.0417,6.2115,6.5685,6.7944,6.8772,7.017,7.1921,7.3911,7.3955,7.4894,7.6651,7.8357,7.9093,7.921,8.096,8.1696,8.1696,8.1696,8.1707,8.1801,8.273,8.3255,8.3703,8.5141,8.5894,8.6205,7.9364,7.9601,7.961,7.9674,7.9676,7.9684,7.9704,7.9707,7.9712,7.9689,7.9696,7.9705,7.968,7.8787,7.8125,7.8125,7.8124,7.8122,7.8075,7.8069,7.8098,7.8077,7.8077,7.7908,7.7526,7.7517,7.7063,7.6198,7.5125,7.4078,7.2976,7.3976,7.4742,7.5237,7.6251,7.6682,7.6717,7.7025,7.7147,7.7162,7.7416,7.7279,7.6952,7.693,7.6639,7.6295,7.6244,7.5825,7.5236,7.4833,7.3964,7.2885,7.2142,7.1527,7.0844,6.9964,6.9465,6.8951,6.7763,6.7218,6.6742,6.5716,6.5457,6.5186,6.4291,6.3439,6.2682,6.2159,6.178,6.1439,6.0947,6.0576,6.0197,5.9666,5.9363,5.8962,5.8478,5.8935,5.9147,5.8737,5.8776,5.8806,5.861,5.748,5.7746,6.0056,5.8175,5.7369,5.8431,5.9015,6.05,6.311,6.6338,6.8413,6.9204,7.0584,7.2181,7.3922,7.458,7.547,7.6588,7.8292,7.9067,7.9144,8.0888,8.1624,8.1624,8.1624,8.1641,8.1702,8.2322,8.2787,8.3211,8.4334,8.5141,8.5777,7.9753,7.9765,7.9775,7.9764,7.9769,7.9817,7.9879,7.9883,7.9851,7.9868,7.9884,7.9898,7.9868,7.9876,7.9881,7.9883,7.9765,7.9686,7.9716,7.9714,7.9706,7.972,7.9717,7.9319,7.8521,7.8421,7.8004,7.7158,7.7167,7.7157,7.7053,7.7088,7.7003,7.6877,7.6877,7.6877,7.6907,7.7676,7.7971,7.8031,7.8713,7.8501,7.7784,7.764,7.7074,7.6359,7.6184,7.609,7.594,7.5026,7.4612,7.4212,7.2523,7.183,7.1535,7.064,6.9876,6.9248,6.9044,6.838,6.7533,6.6602,6.624,6.5903,6.5069,6.4273,6.3667,6.3629,6.2985,6.2454,6.2416,6.1743,6.1182,6.1182,6.05,6.0007,6.0083,6.008,6.0159,6.0274,6.0395,6.0781,6.1624,6.1191,6.1571,6.3224,6.2758,6.2829,6.3874,6.1648,6.2136,6.6078,6.7838,6.9071,6.9882,7.0872,7.2253,7.3999,7.5624,7.6403,7.6442,7.8216,7.8989,7.9105,8.0762,8.1497,8.1497,8.1497,8.1541,8.16,8.1606,8.2178,8.3002,8.309,8.4135,8.5539,8.1286,8.1409,8.1432,8.1488,8.1499,8.1546,8.1611,8.1592,8.1604,8.1607,8.1664,8.1679,8.1693,8.1665,8.1673,8.1677,8.0468,7.9687,7.9683,7.9717,7.9709,7.9694,7.9684,7.9592,7.9416,7.9316,7.9164,7.8918,7.8923,7.8886,7.8804,7.8804,7.8759,7.8668,7.8668,7.865,7.8607,7.8747,7.8811,7.8751,7.8921,7.8885,7.8596,7.7871,7.7428,7.7106,7.6363,7.602,7.5902,7.5672,7.5072,7.4369,7.3923,7.2833,7.1535,7.064,7.0217,6.9874,6.9142,6.8742,6.8311,6.7378,6.6612,6.5903,6.5069,6.4737,6.4387,6.3743,6.3439,6.3136,6.253,6.2227,6.2075,6.2075,6.1363,6.1069,6.1696,6.1324,6.1223,6.1948,6.2147,6.2307,6.2571,6.2498,6.2899,6.3993,6.2937,6.3134,6.5234,6.4256,6.445,6.6151,6.7719,6.8984,6.9882,7.145,7.3103,7.4844,7.5895,7.6403,7.6442,7.8216,7.8989,7.9105,8.0762,8.1497,8.1497,8.1497,8.151,8.1528,8.1583,8.174,8.2045,8.2831,8.3372,8.3897,8.3065,8.3166,8.3191,8.3231,8.325,8.3312,8.334,8.3367,8.3387,8.3395,8.3414,8.343,8.3445,8.3458,8.3506,8.3473,8.1874,8.0898,8.0896,8.089,8.0882,8.0871,8.0895,8.0688,8.0289,8.022,7.9981,7.949,7.9494,7.946,7.9388,7.9415,7.9373,7.9294,7.9271,7.9243,7.9209,7.9514,7.9615,7.962,7.9981,7.9899,7.9436,7.8902,7.818,7.7379,7.684,7.6346,7.5879,7.5848,7.5446,7.4864,7.4439,7.3607,7.2537,7.1307,7.0625,7.0175,6.9588,6.9364,6.9111,6.8176,6.7314,6.6471,6.5583,6.5421,6.5174,6.4296,6.4133,6.4046,6.3629,6.3212,6.2947,6.2947,6.2227,6.1856,6.234,6.2041,6.1994,6.2501,6.2665,6.2895,6.336,6.3487,6.3889,6.4767,6.4148,6.4314,6.5723,6.5785,6.6223,6.7172,6.8414,6.954,7.0373,7.2182,7.373,7.5074,7.596,7.6403,7.6442,7.8216,7.8989,7.9105,8.0762,8.1497,8.1497,8.1497,8.1497,8.1504,8.1541,8.1577,8.1657,8.225,8.272,8.3255,8.45,8.4537,8.4602,8.4617,8.4646,8.4679,8.4713,8.4743,8.4771,8.4794,8.4815,8.4793,8.4811,8.4862,8.4911,8.4917,8.3554,8.2656,8.2498,8.2376,8.2289,8.2318,8.2302,8.1942,8.12,8.1126,8.0685,7.988,7.988,7.9845,7.9777,7.98,7.9753,7.9678,7.9626,7.9602,7.9626,8.0213,8.051,8.0531,8.12,8.1021,8.0267,8.007,7.8991,7.754,7.7337,7.6678,7.5864,7.5739,7.5658,7.5451,7.4622,7.4238,7.3794,7.2348,7.131,7.0551,7.0124,6.9994,6.9776,6.882,6.8063,6.7306,6.639,6.6228,6.6,6.5066,6.4997,6.5013,6.4917,6.4311,6.3818,6.3818,6.3061,6.2555,6.2728,6.2606,6.2596,6.2862,6.2935,6.332,6.4138,6.4299,6.4687,6.5441,6.5494,6.5628,6.5945,6.6747,6.7626,6.8525,6.9367,7.0298,7.139,7.2983,7.4247,7.5219,7.6014,7.6392,7.6442,7.8216,7.8989,7.9105,8.0762,8.1497,8.1497,8.1497,8.1497,8.1497,8.1497,8.1534,8.16,8.1658,8.2183,8.2896,8.4483,8.4505,8.4531,8.4606,8.4625,8.4642,8.4679,8.4713,8.4741,8.4771,8.4794,8.4813,8.4793,8.4858,8.4909,8.491,8.4646,8.4179,8.3437,8.2729,8.2292,8.229,8.2308,8.2253,8.2098,8.2021,8.1894,8.1717,8.1647,8.1606,8.1598,8.1558,8.1513,8.1504,8.1412,8.1362,8.1314,8.1364,8.1377,8.1316,8.1401,8.133,8.111,8.0246,7.9295,7.831,7.7431,7.6517,7.5739,7.5649,7.5557,7.5471,7.5221,7.4642,7.4034,7.3592,7.2823,7.1826,7.0392,6.9948,6.9692,6.884,6.8461,6.8092,6.7203,6.6995,6.6729,6.5974,6.5813,6.5661,6.5022,6.4775,6.4699,6.4699,6.3627,6.3234,6.4351,6.352,6.3255,6.447,6.4731,6.4897,6.5091,6.5177,6.5268,6.5398,6.5457,6.5853,6.6595,6.7575,6.8496,6.9303,6.9563,7.083,7.3162,7.3549,7.4507,7.6108,7.6236,7.635,7.6442,7.8216,7.8989,7.9105,8.0762,8.1497,8.1497,8.1497,8.1497,8.1497,8.1497,8.1504,8.1522,8.1595,8.1735,8.2023,8.5913,8.5878,8.5923,8.5942,8.5988,8.602,8.6036,8.6068,8.61,8.6129,8.6194,8.6215,8.6194,8.6224,8.6237,8.6237,8.5857,8.5429,8.5039,8.4174,8.3698,8.3698,8.3209,8.2715,8.2263,8.2192,8.2112,8.2107,8.2029,8.1987,8.1987,8.1938,8.1892,8.1888,8.177,8.1718,8.1691,8.1589,8.151,8.144,8.1407,8.1347,8.1231,8.0774,8.0007,7.9077,7.8154,7.7152,7.6262,7.5761,7.554,7.5492,7.5356,7.5016,7.4561,7.3963,7.2813,7.1598,7.0802,7.0233,6.9806,6.9294,6.917,6.8913,6.7964,6.7756,6.7492,6.6652,6.654,6.6503,6.619,6.5792,6.5508,6.5553,6.4663,6.4211,6.481,6.4359,6.4219,6.4862,6.5036,6.528,6.5819,6.5946,6.6208,6.6713,6.6789,6.698,6.7439,6.8317,6.905,6.9474,7.0518,7.1835,7.3525,7.4023,7.4925,7.6192,7.6231,7.6263,7.6333,7.7614,7.8483,7.9011,8.0216,8.1047,8.1497,8.1497,8.1497,8.1497,8.1497,8.1497,8.1504,8.1577,8.1646,8.1779,8.7171,8.7035,8.7089,8.7085,8.7152,8.7199,8.7209,8.728,8.7309,8.7297,8.7362,8.7386,8.7404,8.7395,8.7409,8.7409,8.6834,8.6484,8.6484,8.5853,8.5299,8.4909,8.4181,8.3405,8.2504,8.244,8.2293,8.2107,8.2029,8.1987,8.1987,8.1938,8.1888,8.1873,8.1739,8.1686,8.1669,8.1553,8.1459,8.1394,8.138,8.1291,8.1214,8.1192,8.0554,7.9612,7.8913,7.7916,7.6769,7.611,7.5659,7.5418,7.532,7.5218,7.5,7.4285,7.2917,7.1597,7.1228,7.064,7.0071,6.9766,6.9669,6.9438,6.8662,6.8474,6.8268,6.7341,6.7251,6.7303,6.7183,6.6692,6.6314,6.635,6.5743,6.5348,6.5475,6.5381,6.5339,6.5466,6.5545,6.5868,6.6645,6.6766,6.7122,6.7859,6.7905,6.8005,6.8288,6.8924,6.9551,7.0088,7.1479,7.2629,7.3507,7.434,7.5229,7.6097,7.6145,7.6179,7.623,7.7092,7.8013,7.8902,7.972,8.0596,8.1453,8.1453,8.1459,8.1472,8.1472,8.1485,8.1504,8.1559,8.1624,8.168,8.7171,8.6987,8.7033,8.7085,8.7164,8.7206,8.7202,8.728,8.7309,8.7297,8.7362,8.7386,8.7404,8.7395,8.7409,8.7409,8.7381,8.7382,8.7302,8.7257,8.651,8.4987,8.4756,8.4286,8.3401,8.3334,8.2917,8.2107,8.2029,8.1987,8.1987,8.1938,8.1869,8.1781,8.1723,8.1663,8.1606,8.1528,8.1459,8.1387,8.1326,8.1249,8.1207,8.1131,8.0507,7.9681,7.9492,7.8326,7.6875,7.6682,7.602,7.531,7.5247,7.5104,7.5007,7.4859,7.4136,7.3065,7.1521,7.1008,7.0702,6.9898,6.9559,6.9405,6.9309,6.9225,6.8908,6.8186,6.8019,6.7834,6.7228,6.7098,6.7127,6.7127,6.6753,6.6651,6.7168,6.6779,6.6675,6.715,6.7291,6.7388,6.7597,6.7673,6.7763,6.7897,6.7905,6.8249,6.9051,6.9245,7.0088,7.1869,7.2094,7.2629,7.3507,7.4284,7.5173,7.6097,7.6104,7.6138,7.623,7.7092,7.7941,7.8745,7.9639,8.0488,8.1305,8.1305,8.1347,8.14,8.14,8.144,8.1497,8.1504,8.1553,8.1624,8.7249,8.7035,8.7085,8.7085,8.7145,8.7192,8.7205,8.728,8.7309,8.7297,8.7362,8.7391,8.742,8.74,8.7411,8.7415,8.746,8.746,8.7418,8.7413,8.6856,8.5709,8.559,8.4893,8.3518,8.3435,8.2964,8.2033,8.2018,8.1975,8.1947,8.1925,8.1869,8.1814,8.1718,8.1663,8.16,8.1485,8.1394,8.1319,8.1249,8.1207,8.1131,8.1007,8.0726,8.0298,7.9676,7.9006,7.8229,7.7076,7.6431,7.5988,7.539,7.5095,7.4997,7.4925,7.4657,7.4164,7.2952,7.22,7.1504,7.0612,7.0252,6.9992,6.9391,6.9225,6.9128,6.8833,6.8769,6.8736,6.8549,6.811,6.7803,6.7978,6.7425,6.7084,6.7379,6.7207,6.7182,6.7379,6.7426,6.7679,6.83,6.8434,6.8748,6.9336,6.9431,6.9578,6.9922,7.004,7.0654,7.1873,7.2531,7.331,7.4238,7.5084,7.5683,7.6027,7.6027,7.6034,7.6101,7.6416,7.7323,7.8644,7.8991,7.9976,8.1284,8.1284,8.1305,8.1333,8.138,8.1414,8.144,8.1478,8.1547,8.1618,8.7657,8.7253,8.7111,8.7144,8.7167,8.7212,8.7225,8.7253,8.7323,8.7348,8.7373,8.7401,8.7389,8.7403,8.7411,8.7417,8.7422,8.7459,8.7416,8.7407,8.7116,8.6542,8.6194,8.5346,8.3896,8.3576,8.2945,8.2008,8.2011,8.1967,8.1882,8.1863,8.1844,8.1789,8.1691,8.1635,8.1565,8.1446,8.1353,8.1284,8.1244,8.1162,8.1085,8.0959,8.0868,8.0707,7.9999,7.9565,7.9063,7.7575,7.6806,7.636,7.5418,7.5046,7.4947,7.4915,7.4884,7.4771,7.4124,7.3426,7.2652,7.1457,7.0868,7.039,6.9777,6.9418,6.9192,6.9192,6.9192,6.9214,6.931,6.8863,6.857,6.8798,6.8356,6.8035,6.8177,6.8186,6.8186,6.8186,6.8186,6.846,6.912,6.9257,6.9581,7.0239,7.0361,7.0411,7.0411,7.0735,7.1327,7.2201,7.3146,7.4105,7.5086,7.5692,7.6015,7.6015,7.6015,7.6015,7.6015,7.6015,7.6936,7.8566,7.8566,7.9596,8.1258,8.1258,8.1234,8.1256,8.1305,8.1353,8.14,8.1446,8.151,8.1583,8.8449,8.7643,8.7105,8.718,8.7185,8.7222,8.7295,8.7284,8.7312,8.7375,8.7395,8.7412,8.739,8.7403,8.7412,8.7417,8.7382,8.7416,8.7409,8.7385,8.7397,8.7419,8.6497,8.5573,8.4724,8.3837,8.2945,8.2008,8.2007,8.1967,8.1882,8.1825,8.175,8.1691,8.1635,8.1565,8.1491,8.1427,8.1353,8.1277,8.1244,8.1162,8.1085,8.0959,8.0868,8.0784,8.065,8.0063,7.9169,7.815,7.7208,7.6265,7.5322,7.4937,7.4884,7.4884,7.4884,7.4864,7.4722,7.4606,7.4094,7.2444,7.1256,7.0517,7.0517,6.9831,6.923,6.923,6.9192,6.9192,6.9192,6.93,6.9426,6.9567,6.9677,6.9738,6.9882,6.9901,6.9901,6.9901,6.9901,6.9939,6.9994,7.0132,7.022,7.0277,7.0361,7.0411,7.0411,7.1221,7.2112,7.3081,7.3962,7.4886,7.5887,7.597,7.6015,7.6015,7.6015,7.6015,7.6015,7.6015,7.6899,7.8484,7.8484,7.9485,8.1093,8.1093,8.1139,8.1214,8.1214,8.127,8.1394,8.1394,8.144,8.151,8.8449,8.7643,8.7105,8.718,8.7185,8.7222,8.7295,8.7284,8.7312,8.7375,8.7407,8.739,8.7403,8.7412,8.7418,8.746,8.7421,8.7414,8.7399,8.7409,8.7377,8.7314,8.6488,8.5573,8.4724,8.3815,8.2908,8.2007,8.1967,8.1921,8.1916,8.1849,8.175,8.1691,8.1635,8.1541,8.142,8.1353,8.1277,8.1205,8.1162,8.1038,8.0959,8.0868,8.0775,8.0641,8.0551,8.0343,8.0,7.9019,7.8085,7.7017,7.5413,7.4915,7.4884,7.4884,7.4884,7.4864,7.4722,7.4606,7.4223,7.3053,7.2469,7.2019,7.1456,7.0705,7.0104,7.0104,6.9643,6.9192,6.9192,6.9225,6.9321,6.9556,6.9617,6.9697,6.9872,6.9901,6.9901,6.9901,6.9901,6.991,6.9939,6.9994,7.0123,7.022,7.0328,7.0686,7.1259,7.1573,7.2384,7.3824,7.4235,7.4829,7.5674,7.5856,7.5955,7.6015,7.6015,7.6015,7.6015,7.6015,7.6899,7.8484,7.8484,7.9485,8.1093,8.1093,8.1108,8.1131,8.1192,8.1234,8.1326,8.138,8.144,8.151,8.8938,8.7928,8.7109,8.7202,8.7205,8.7241,8.7273,8.7299,8.7365,8.7388,8.7415,8.7397,8.7408,8.7415,8.742,8.746,8.7416,8.7404,8.7384,8.7397,8.7367,8.7302,8.6122,8.5245,8.4707,8.3445,8.2539,8.1987,8.1947,8.189,8.1864,8.177,8.1718,8.1658,8.1595,8.1504,8.1394,8.1319,8.1241,8.1199,8.1054,8.0975,8.0871,8.0784,8.0667,8.0605,8.0505,8.0487,8.0316,7.9343,7.8368,7.7306,7.5845,7.5377,7.5301,7.4998,7.4884,7.4854,7.4659,7.4574,7.4363,7.3707,7.3191,7.277,7.2282,7.1569,7.0968,7.0968,7.0544,7.0093,6.9755,6.9718,6.967,6.9532,6.9567,6.9647,6.9815,6.9872,6.9901,6.9901,6.9901,6.9901,6.9901,6.9948,7.021,7.0724,7.0837,7.1256,7.2176,7.2529,7.3132,7.4155,7.4605,7.5068,7.5599,7.5737,7.5848,7.597,7.6,7.6015,7.6015,7.6015,7.6746,7.8023,7.8369,7.9285,8.0631,8.0977,8.1093,8.11,8.1147,8.1214,8.1256,8.1326,8.14,8.1466,8.9674,8.8373,8.7238,8.7195,8.7277,8.7309,8.7297,8.7362,8.7386,8.7406,8.7384,8.7398,8.7409,8.7416,8.7421,8.7419,8.7405,8.7385,8.7404,8.7386,8.7326,8.7182,8.5593,8.4668,8.4595,8.2883,8.1983,8.1983,8.1938,8.1872,8.1814,8.1723,8.1663,8.16,8.1522,8.1453,8.138,8.1312,8.1234,8.1192,8.0991,8.088,8.0855,8.0685,8.0605,8.0587,8.0505,8.045,8.0268,7.9235,7.8255,7.7358,7.6486,7.6183,7.5956,7.5225,7.496,7.4823,7.4574,7.4498,7.4443,7.4255,7.3596,7.3033,7.3033,7.2384,7.182,7.182,7.1745,7.1482,7.0743,7.0592,7.0373,6.974,6.9741,6.9854,6.9916,7.0023,7.0128,7.0128,7.0128,7.0128,7.0128,7.0175,7.0617,7.1632,7.1688,7.2113,7.3055,7.3819,7.4231,7.4307,7.508,7.5544,7.5583,7.5591,7.5682,7.5879,7.5963,7.6007,7.6007,7.6015,7.6476,7.733,7.8138,7.8977,7.9854,8.0746,8.1093,8.1093,8.1093,8.1147,8.1222,8.1263,8.1333,8.1407,8.9839,8.8904,8.797,8.7319,8.7277,8.7309,8.7297,8.7362,8.7391,8.7384,8.7399,8.7409,8.7416,8.7459,8.7461,8.7418,8.7405,8.7381,8.7388,8.7362,8.7026,8.6298,8.5253,8.4361,8.3626,8.2532,8.1983,8.1938,8.1895,8.1878,8.1814,8.1723,8.1663,8.16,8.1478,8.138,8.1305,8.1234,8.1192,8.1108,8.0967,8.0885,8.0809,8.0658,8.0569,8.0534,8.0515,8.045,8.0258,7.9193,7.8611,7.8192,7.7396,7.6638,7.6059,7.587,7.5325,7.4701,7.4552,7.4454,7.4391,7.4232,7.4073,7.3934,7.3934,7.3258,7.2658,7.2658,7.2121,7.1633,7.1482,7.1445,7.1414,7.1374,7.1427,7.1505,7.1645,7.1765,7.1872,7.1872,7.1872,7.1872,7.1872,7.1921,7.2101,7.2449,7.2521,7.2952,7.3887,7.4116,7.4507,7.5204,7.5395,7.5518,7.5535,7.5566,7.5649,7.5724,7.5879,7.5918,7.5918,7.5985,7.6476,7.733,7.8138,7.8977,7.9854,8.0746,8.1093,8.1093,8.1093,8.1147,8.1222,8.1263,8.1333,8.1414,8.9878,8.9068,8.8215,8.7358,8.725,8.7286,8.7299,8.7371,8.7402,8.7389,8.7403,8.7411,8.7417,8.746,8.746,8.7415,8.7397,8.7409,8.738,8.7355,8.6899,8.6056,8.5166,8.4263,8.331,8.247,8.1967,8.1887,8.1854,8.1829,8.1739,8.168,8.1618,8.1553,8.1446,8.1353,8.1284,8.1244,8.1108,8.0991,8.0902,8.0809,8.0676,8.0578,8.0514,8.0506,8.0459,8.0344,8.0109,7.9516,7.9269,7.9064,7.823,7.7661,7.7207,7.6828,7.6024,7.5237,7.5156,7.4771,7.4358,7.422,7.4186,7.4186,7.4186,7.3859,7.3521,7.3521,7.3172,7.2759,7.2346,7.2282,7.2181,7.1861,7.1912,7.2012,7.2102,7.2293,7.2403,7.2403,7.2403,7.2403,7.2403,7.2414,7.2671,7.3193,7.3286,7.3729,7.4658,7.4787,7.5042,7.5471,7.5509,7.5509,7.5509,7.5514,7.5566,7.5616,7.5739,7.5794,7.5794,7.5841,7.6156,7.6686,7.7501,7.8331,7.9246,8.0131,8.0708,8.1093,8.1093,8.1116,8.1162,8.1244,8.1305,8.1414,8.9878,8.915,8.8417,8.7397,8.7262,8.7299,8.7299,8.7341,8.7414,8.7393,8.7404,8.7412,8.7419,8.7461,8.7459,8.741,8.7387,8.7397,8.7373,8.7197,8.6704,8.5813,8.4929,8.4058,8.3081,8.238,8.1963,8.1913,8.1825,8.1789,8.1691,8.1635,8.1565,8.1497,8.1414,8.1347,8.1284,8.1229,8.107,8.088,8.0826,8.0741,8.0605,8.0543,8.0506,8.0497,8.045,8.0245,8.0003,7.9952,7.9898,7.9784,7.9064,7.8723,7.8457,7.7813,7.6905,7.6069,7.5873,7.5234,7.4546,7.4258,7.4186,7.4186,7.4186,7.4186,7.4186,7.4186,7.4186,7.3972,7.3258,7.3108,7.2883,7.2233,7.2272,7.2423,7.2434,7.2621,7.28,7.282,7.282,7.282,7.282,7.282,7.3163,7.3953,7.4077,7.4447,7.5272,7.5401,7.5492,7.5509,7.5509,7.5509,7.5509,7.5509,7.5509,7.5509,7.5625,7.566,7.5668,7.5684,7.5771,7.591,7.6716,7.7539,7.8346,7.9185,8.0077,8.09,8.09,8.0977,8.11,8.103,8.1077,8.1169,9.0003,8.9641,8.9111,8.7481,8.7262,8.7299,8.7299,8.7341,8.7418,8.7405,8.7408,8.7414,8.7461,8.7458,8.7411,8.7409,8.7387,8.7391,8.7309,8.6602,8.5796,8.4922,8.4056,8.3123,8.2186,8.2065,8.199,8.1902,8.1844,8.1789,8.1691,8.1635,8.1565,8.1491,8.1367,8.1298,8.1277,8.1177,8.1015,8.088,8.0826,8.0741,8.0605,8.0543,8.0506,8.0506,8.0497,8.0354,8.0144,7.9973,7.9898,7.986,7.9746,7.9215,7.8571,7.8457,7.7776,7.6836,7.6024,7.5611,7.5234,7.4408,7.4186,7.4186,7.4186,7.4186,7.4186,7.4186,7.4186,7.4148,7.4047,7.3998,7.3998,7.3885,7.3974,7.4108,7.4158,7.4298,7.4451,7.4543,7.4553,7.4553,7.4553,7.4553,7.4632,7.4817,7.4846,7.4971,7.5272,7.5329,7.5383,7.5509,7.5509,7.5509,7.5509,7.5509,7.5509,7.5509,7.5535,7.5549,7.5616,7.566,7.57,7.5785,7.6637,7.7107,7.737,7.8215,7.9146,7.9969,7.9969,8.0439,8.1023,8.0337,8.0151,8.0164,9.0042,8.9765,8.9235,8.7481,8.7262,8.7299,8.7299,8.7341,8.7415,8.7398,8.7406,8.7413,8.7459,8.7419,8.7409,8.7409,8.7387,8.72,8.666,8.6217,8.5373,8.4044,8.3597,8.2967,8.203,8.1987,8.1986,8.1892,8.1814,8.1718,8.1691,8.1595,8.1528,8.1491,8.1353,8.1284,8.1277,8.1162,8.1007,8.088,8.0826,8.0741,8.0605,8.0543,8.0506,8.0497,8.0383,8.0235,8.0083,7.9962,7.9898,7.9898,7.9898,7.9632,7.9329,7.9329,7.8647,7.7781,7.7348,7.6844,7.6154,7.52,7.4989,7.4853,7.4321,7.4186,7.4186,7.4186,7.4186,7.4186,7.4186,7.4186,7.4186,7.4186,7.4358,7.4454,7.4509,7.467,7.4833,7.4884,7.4884,7.4884,7.4884,7.4884,7.4915,7.4955,7.4987,7.5056,7.5152,7.5226,7.5338,7.5383,7.5445,7.5509,7.5509,7.5509,7.5509,7.5509,7.5509,7.5527,7.557,7.5574,7.5616,7.5658,7.6041,7.652,7.7061,7.7445,7.8183,7.9023,7.9023,7.9285,7.9608,7.9297,7.9215,7.9246]}]]